<?xml version="1.0" encoding="UTF-8" standalone="no" ?>
<gpx xmlns="http://www.topografix.com/GPX/1/1" xmlns:xsi="http://www.w3.org/2001/XMLSchema-instance" xsi:schemaLocation="http://www.topografix.com/GPX/1/1 http://www.topografix.com/GPX/1/1/gpx.xsd" version="1.1" creator="VisuGPX - https://www.visugpx.com">
  <metadata>
    <name>La Cadière Le Castellet Le Beausset vieux</name>
    <desc><![CDATA[Circuit de 29 kms empruntant des petites routes peu fréquentées permettant de rejoindre le castellet village et le sanctuaire de Notre Dame du Beausset Vieux]]></desc>
  </metadata>
  <trk>
    <name><![CDATA[La Cadière-d’Azur Cyclisme]]></name>
    <trkseg>
      <trkpt lat="43.19577" lon="5.7574">
        <ele>135.80000305176</ele>
        <time>2016-04-10T07:29:43.000Z</time>
      </trkpt>
      <trkpt lat="43.19574" lon="5.75748">
        <ele>134.39999389648</ele>
        <time>2016-04-10T07:30:35.000Z</time>
      </trkpt>
      <trkpt lat="43.19574" lon="5.7575">
        <ele>134.19999694824</ele>
        <time>2016-04-10T07:30:36.000Z</time>
      </trkpt>
      <trkpt lat="43.19573" lon="5.75753">
        <ele>133.80000305176</ele>
        <time>2016-04-10T07:30:38.000Z</time>
      </trkpt>
      <trkpt lat="43.19556" lon="5.7577">
        <ele>129.19999694824</ele>
        <time>2016-04-10T07:31:22.000Z</time>
      </trkpt>
      <trkpt lat="43.19552" lon="5.75782">
        <ele>128.60000610352</ele>
        <time>2016-04-10T07:31:24.000Z</time>
      </trkpt>
      <trkpt lat="43.19547" lon="5.75814">
        <ele>127.19999694824</ele>
        <time>2016-04-10T07:31:29.000Z</time>
      </trkpt>
      <trkpt lat="43.19546" lon="5.75818">
        <ele>126.80000305176</ele>
        <time>2016-04-10T07:31:30.000Z</time>
      </trkpt>
      <trkpt lat="43.19541" lon="5.75828">
        <ele>125.80000305176</ele>
        <time>2016-04-10T07:31:32.000Z</time>
      </trkpt>
      <trkpt lat="43.19537" lon="5.75838">
        <ele>124.80000305176</ele>
        <time>2016-04-10T07:31:34.000Z</time>
      </trkpt>
      <trkpt lat="43.19535" lon="5.75843">
        <ele>124.19999694824</ele>
        <time>2016-04-10T07:31:35.000Z</time>
      </trkpt>
      <trkpt lat="43.19532" lon="5.75854">
        <ele>123.19999694824</ele>
        <time>2016-04-10T07:31:37.000Z</time>
      </trkpt>
      <trkpt lat="43.1953" lon="5.75859">
        <ele>122.59999847412</ele>
        <time>2016-04-10T07:31:38.000Z</time>
      </trkpt>
      <trkpt lat="43.19527" lon="5.75864">
        <ele>122</ele>
        <time>2016-04-10T07:31:39.000Z</time>
      </trkpt>
      <trkpt lat="43.19516" lon="5.7587">
        <ele>120.59999847412</ele>
        <time>2016-04-10T07:31:41.000Z</time>
      </trkpt>
      <trkpt lat="43.19509" lon="5.75871">
        <ele>119.59999847412</ele>
        <time>2016-04-10T07:31:42.000Z</time>
      </trkpt>
      <trkpt lat="43.19493" lon="5.75867">
        <ele>117.40000152588</ele>
        <time>2016-04-10T07:31:44.000Z</time>
      </trkpt>
      <trkpt lat="43.19474" lon="5.75868">
        <ele>114</ele>
        <time>2016-04-10T07:31:46.000Z</time>
      </trkpt>
      <trkpt lat="43.19468" lon="5.75866">
        <ele>113</ele>
        <time>2016-04-10T07:31:47.000Z</time>
      </trkpt>
      <trkpt lat="43.19463" lon="5.75863">
        <ele>112.40000152588</ele>
        <time>2016-04-10T07:31:48.000Z</time>
      </trkpt>
      <trkpt lat="43.19459" lon="5.75858">
        <ele>112</ele>
        <time>2016-04-10T07:31:49.000Z</time>
      </trkpt>
      <trkpt lat="43.19446" lon="5.75851">
        <ele>110.19999694824</ele>
        <time>2016-04-10T07:31:51.000Z</time>
      </trkpt>
      <trkpt lat="43.1944" lon="5.75846">
        <ele>109.59999847412</ele>
        <time>2016-04-10T07:31:52.000Z</time>
      </trkpt>
      <trkpt lat="43.19431" lon="5.75826">
        <ele>109.59999847412</ele>
        <time>2016-04-10T07:31:55.000Z</time>
      </trkpt>
      <trkpt lat="43.19429" lon="5.75791">
        <ele>111.19999694824</ele>
        <time>2016-04-10T07:31:59.000Z</time>
      </trkpt>
      <trkpt lat="43.19428" lon="5.75781">
        <ele>111.19999694824</ele>
        <time>2016-04-10T07:32:00.000Z</time>
      </trkpt>
      <trkpt lat="43.19427" lon="5.75771">
        <ele>111.19999694824</ele>
        <time>2016-04-10T07:32:01.000Z</time>
      </trkpt>
      <trkpt lat="43.19422" lon="5.75752">
        <ele>110.40000152588</ele>
        <time>2016-04-10T07:32:03.000Z</time>
      </trkpt>
      <trkpt lat="43.19416" lon="5.75746">
        <ele>109.40000152588</ele>
        <time>2016-04-10T07:32:04.000Z</time>
      </trkpt>
      <trkpt lat="43.1941" lon="5.75739">
        <ele>108.19999694824</ele>
        <time>2016-04-10T07:32:05.000Z</time>
      </trkpt>
      <trkpt lat="43.19398" lon="5.75726">
        <ele>105.80000305176</ele>
        <time>2016-04-10T07:32:07.000Z</time>
      </trkpt>
      <trkpt lat="43.19384" lon="5.75712">
        <ele>103.40000152588</ele>
        <time>2016-04-10T07:32:09.000Z</time>
      </trkpt>
      <trkpt lat="43.19379" lon="5.75703">
        <ele>102.40000152588</ele>
        <time>2016-04-10T07:32:10.000Z</time>
      </trkpt>
      <trkpt lat="43.19368" lon="5.75685">
        <ele>101</ele>
        <time>2016-04-10T07:32:12.000Z</time>
      </trkpt>
      <trkpt lat="43.19362" lon="5.75675">
        <ele>100.19999694824</ele>
        <time>2016-04-10T07:32:13.000Z</time>
      </trkpt>
      <trkpt lat="43.19356" lon="5.75665">
        <ele>99.400001525879</ele>
        <time>2016-04-10T07:32:14.000Z</time>
      </trkpt>
      <trkpt lat="43.1935" lon="5.75655">
        <ele>98.400001525879</ele>
        <time>2016-04-10T07:32:15.000Z</time>
      </trkpt>
      <trkpt lat="43.19331" lon="5.75626">
        <ele>97.800003051758</ele>
        <time>2016-04-10T07:32:18.000Z</time>
      </trkpt>
      <trkpt lat="43.19317" lon="5.75607">
        <ele>98</ele>
        <time>2016-04-10T07:32:20.000Z</time>
      </trkpt>
      <trkpt lat="43.19304" lon="5.75588">
        <ele>98.199996948242</ele>
        <time>2016-04-10T07:32:22.000Z</time>
      </trkpt>
      <trkpt lat="43.1929" lon="5.75572">
        <ele>98.199996948242</ele>
        <time>2016-04-10T07:32:24.000Z</time>
      </trkpt>
      <trkpt lat="43.19283" lon="5.75564">
        <ele>98.199996948242</ele>
        <time>2016-04-10T07:32:25.000Z</time>
      </trkpt>
      <trkpt lat="43.19276" lon="5.75556">
        <ele>98</ele>
        <time>2016-04-10T07:32:26.000Z</time>
      </trkpt>
      <trkpt lat="43.19263" lon="5.75546">
        <ele>97.199996948242</ele>
        <time>2016-04-10T07:32:28.000Z</time>
      </trkpt>
      <trkpt lat="43.19258" lon="5.75544">
        <ele>96.800003051758</ele>
        <time>2016-04-10T07:32:29.000Z</time>
      </trkpt>
      <trkpt lat="43.19253" lon="5.75544">
        <ele>96.199996948242</ele>
        <time>2016-04-10T07:32:30.000Z</time>
      </trkpt>
      <trkpt lat="43.19235" lon="5.75547">
        <ele>95.199996948242</ele>
        <time>2016-04-10T07:32:33.000Z</time>
      </trkpt>
      <trkpt lat="43.19229" lon="5.75549">
        <ele>95</ele>
        <time>2016-04-10T07:32:34.000Z</time>
      </trkpt>
      <trkpt lat="43.19224" lon="5.75551">
        <ele>94.599998474121</ele>
        <time>2016-04-10T07:32:35.000Z</time>
      </trkpt>
      <trkpt lat="43.19255" lon="5.75686">
        <ele>94</ele>
        <time>2016-04-10T07:32:37.000Z</time>
      </trkpt>
      <trkpt lat="43.19255" lon="5.75701">
        <ele>94</ele>
        <time>2016-04-10T07:32:38.000Z</time>
      </trkpt>
      <trkpt lat="43.19255" lon="5.75727">
        <ele>93.800003051758</ele>
        <time>2016-04-10T07:32:40.000Z</time>
      </trkpt>
      <trkpt lat="43.19256" lon="5.75756">
        <ele>92.800003051758</ele>
        <time>2016-04-10T07:32:42.000Z</time>
      </trkpt>
      <trkpt lat="43.19256" lon="5.75785">
        <ele>91.800003051758</ele>
        <time>2016-04-10T07:32:44.000Z</time>
      </trkpt>
      <trkpt lat="43.19255" lon="5.75814">
        <ele>90.599998474121</ele>
        <time>2016-04-10T07:32:46.000Z</time>
      </trkpt>
      <trkpt lat="43.19253" lon="5.75855">
        <ele>88.599998474121</ele>
        <time>2016-04-10T07:32:49.000Z</time>
      </trkpt>
      <trkpt lat="43.19252" lon="5.75882">
        <ele>87.599998474121</ele>
        <time>2016-04-10T07:32:51.000Z</time>
      </trkpt>
      <trkpt lat="43.19251" lon="5.75895">
        <ele>87.599998474121</ele>
        <time>2016-04-10T07:32:52.000Z</time>
      </trkpt>
      <trkpt lat="43.1925" lon="5.75909">
        <ele>87</ele>
        <time>2016-04-10T07:32:53.000Z</time>
      </trkpt>
      <trkpt lat="43.19249" lon="5.75949">
        <ele>85.199996948242</ele>
        <time>2016-04-10T07:32:56.000Z</time>
      </trkpt>
      <trkpt lat="43.19248" lon="5.75975">
        <ele>84.400001525879</ele>
        <time>2016-04-10T07:32:58.000Z</time>
      </trkpt>
      <trkpt lat="43.19247" lon="5.76001">
        <ele>83.599998474121</ele>
        <time>2016-04-10T07:33:00.000Z</time>
      </trkpt>
      <trkpt lat="43.19247" lon="5.76027">
        <ele>82.800003051758</ele>
        <time>2016-04-10T07:33:02.000Z</time>
      </trkpt>
      <trkpt lat="43.19249" lon="5.76065">
        <ele>80.800003051758</ele>
        <time>2016-04-10T07:33:05.000Z</time>
      </trkpt>
      <trkpt lat="43.1925" lon="5.76089">
        <ele>79</ele>
        <time>2016-04-10T07:33:07.000Z</time>
      </trkpt>
      <trkpt lat="43.19251" lon="5.76101">
        <ele>78</ele>
        <time>2016-04-10T07:33:08.000Z</time>
      </trkpt>
      <trkpt lat="43.19254" lon="5.76139">
        <ele>75</ele>
        <time>2016-04-10T07:33:11.000Z</time>
      </trkpt>
      <trkpt lat="43.19255" lon="5.76163">
        <ele>73.800003051758</ele>
        <time>2016-04-10T07:33:13.000Z</time>
      </trkpt>
      <trkpt lat="43.19254" lon="5.76176">
        <ele>73.400001525879</ele>
        <time>2016-04-10T07:33:14.000Z</time>
      </trkpt>
      <trkpt lat="43.1925" lon="5.762">
        <ele>72.599998474121</ele>
        <time>2016-04-10T07:33:16.000Z</time>
      </trkpt>
      <trkpt lat="43.19248" lon="5.76212">
        <ele>72</ele>
        <time>2016-04-10T07:33:17.000Z</time>
      </trkpt>
      <trkpt lat="43.19245" lon="5.76223">
        <ele>71.199996948242</ele>
        <time>2016-04-10T07:33:18.000Z</time>
      </trkpt>
      <trkpt lat="43.19238" lon="5.76251">
        <ele>72</ele>
        <time>2016-04-10T07:33:21.000Z</time>
      </trkpt>
      <trkpt lat="43.19234" lon="5.76265">
        <ele>72.599998474121</ele>
        <time>2016-04-10T07:33:24.000Z</time>
      </trkpt>
      <trkpt lat="43.19236" lon="5.76287">
        <ele>71.599998474121</ele>
        <time>2016-04-10T07:33:29.000Z</time>
      </trkpt>
      <trkpt lat="43.19245" lon="5.7631">
        <ele>70.199996948242</ele>
        <time>2016-04-10T07:33:34.000Z</time>
      </trkpt>
      <trkpt lat="43.19246" lon="5.76316">
        <ele>70.400001525879</ele>
        <time>2016-04-10T07:33:35.000Z</time>
      </trkpt>
      <trkpt lat="43.19254" lon="5.76346">
        <ele>72</ele>
        <time>2016-04-10T07:33:40.000Z</time>
      </trkpt>
      <trkpt lat="43.19256" lon="5.76354">
        <ele>72.400001525879</ele>
        <time>2016-04-10T07:33:41.000Z</time>
      </trkpt>
      <trkpt lat="43.19258" lon="5.76376">
        <ele>73.400001525879</ele>
        <time>2016-04-10T07:33:44.000Z</time>
      </trkpt>
      <trkpt lat="43.19258" lon="5.76383">
        <ele>73.599998474121</ele>
        <time>2016-04-10T07:33:45.000Z</time>
      </trkpt>
      <trkpt lat="43.19259" lon="5.76414">
        <ele>74.400001525879</ele>
        <time>2016-04-10T07:33:50.000Z</time>
      </trkpt>
      <trkpt lat="43.19253" lon="5.76434">
        <ele>74.400001525879</ele>
        <time>2016-04-10T07:33:55.000Z</time>
      </trkpt>
      <trkpt lat="43.19251" lon="5.76447">
        <ele>74.599998474121</ele>
        <time>2016-04-10T07:33:57.000Z</time>
      </trkpt>
      <trkpt lat="43.1925" lon="5.76455">
        <ele>74.599998474121</ele>
        <time>2016-04-10T07:33:58.000Z</time>
      </trkpt>
      <trkpt lat="43.1925" lon="5.76462">
        <ele>74.800003051758</ele>
        <time>2016-04-10T07:33:59.000Z</time>
      </trkpt>
      <trkpt lat="43.19251" lon="5.76468">
        <ele>75</ele>
        <time>2016-04-10T07:34:00.000Z</time>
      </trkpt>
      <trkpt lat="43.19261" lon="5.76481">
        <ele>76.199996948242</ele>
        <time>2016-04-10T07:34:03.000Z</time>
      </trkpt>
      <trkpt lat="43.19277" lon="5.76482">
        <ele>77.199996948242</ele>
        <time>2016-04-10T07:34:06.000Z</time>
      </trkpt>
      <trkpt lat="43.1929" lon="5.7647">
        <ele>78</ele>
        <time>2016-04-10T07:34:09.000Z</time>
      </trkpt>
      <trkpt lat="43.19296" lon="5.76458">
        <ele>78.199996948242</ele>
        <time>2016-04-10T07:34:11.000Z</time>
      </trkpt>
      <trkpt lat="43.19302" lon="5.76447">
        <ele>78.400001525879</ele>
        <time>2016-04-10T07:34:13.000Z</time>
      </trkpt>
      <trkpt lat="43.19305" lon="5.76441">
        <ele>78.400001525879</ele>
        <time>2016-04-10T07:34:14.000Z</time>
      </trkpt>
      <trkpt lat="43.19326" lon="5.76409">
        <ele>77.599998474121</ele>
        <time>2016-04-10T07:34:20.000Z</time>
      </trkpt>
      <trkpt lat="43.19329" lon="5.76403">
        <ele>77.400001525879</ele>
        <time>2016-04-10T07:34:21.000Z</time>
      </trkpt>
      <trkpt lat="43.1934" lon="5.76382">
        <ele>76.599998474121</ele>
        <time>2016-04-10T07:34:25.000Z</time>
      </trkpt>
      <trkpt lat="43.19348" lon="5.76373">
        <ele>76.400001525879</ele>
        <time>2016-04-10T07:34:27.000Z</time>
      </trkpt>
      <trkpt lat="43.19379" lon="5.76347">
        <ele>77</ele>
        <time>2016-04-10T07:34:34.000Z</time>
      </trkpt>
      <trkpt lat="43.1941" lon="5.7633">
        <ele>78.800003051758</ele>
        <time>2016-04-10T07:34:41.000Z</time>
      </trkpt>
      <trkpt lat="43.19423" lon="5.76323">
        <ele>79.400001525879</ele>
        <time>2016-04-10T07:34:44.000Z</time>
      </trkpt>
      <trkpt lat="43.19443" lon="5.76315">
        <ele>81.599998474121</ele>
        <time>2016-04-10T07:34:49.000Z</time>
      </trkpt>
      <trkpt lat="43.19458" lon="5.76323">
        <ele>84.199996948242</ele>
        <time>2016-04-10T07:34:53.000Z</time>
      </trkpt>
      <trkpt lat="43.19461" lon="5.76326">
        <ele>84.800003051758</ele>
        <time>2016-04-10T07:34:54.000Z</time>
      </trkpt>
      <trkpt lat="43.19466" lon="5.76337">
        <ele>86</ele>
        <time>2016-04-10T07:34:57.000Z</time>
      </trkpt>
      <trkpt lat="43.19469" lon="5.76346">
        <ele>86.800003051758</ele>
        <time>2016-04-10T07:34:59.000Z</time>
      </trkpt>
      <trkpt lat="43.19469" lon="5.76353">
        <ele>87.199996948242</ele>
        <time>2016-04-10T07:35:00.000Z</time>
      </trkpt>
      <trkpt lat="43.19472" lon="5.76366">
        <ele>88.199996948242</ele>
        <time>2016-04-10T07:35:02.000Z</time>
      </trkpt>
      <trkpt lat="43.19474" lon="5.76371">
        <ele>88.800003051758</ele>
        <time>2016-04-10T07:35:03.000Z</time>
      </trkpt>
      <trkpt lat="43.19478" lon="5.76383">
        <ele>89.800003051758</ele>
        <time>2016-04-10T07:35:05.000Z</time>
      </trkpt>
      <trkpt lat="43.19482" lon="5.76402">
        <ele>91</ele>
        <time>2016-04-10T07:35:08.000Z</time>
      </trkpt>
      <trkpt lat="43.19487" lon="5.76421">
        <ele>91.800003051758</ele>
        <time>2016-04-10T07:35:11.000Z</time>
      </trkpt>
      <trkpt lat="43.19488" lon="5.76427">
        <ele>92.199996948242</ele>
        <time>2016-04-10T07:35:12.000Z</time>
      </trkpt>
      <trkpt lat="43.19491" lon="5.7644">
        <ele>92.599998474121</ele>
        <time>2016-04-10T07:35:14.000Z</time>
      </trkpt>
      <trkpt lat="43.19494" lon="5.76458">
        <ele>93.400001525879</ele>
        <time>2016-04-10T07:35:17.000Z</time>
      </trkpt>
      <trkpt lat="43.19496" lon="5.7647">
        <ele>94</ele>
        <time>2016-04-10T07:35:19.000Z</time>
      </trkpt>
      <trkpt lat="43.19496" lon="5.76476">
        <ele>94.199996948242</ele>
        <time>2016-04-10T07:35:20.000Z</time>
      </trkpt>
      <trkpt lat="43.19499" lon="5.76495">
        <ele>94.800003051758</ele>
        <time>2016-04-10T07:35:23.000Z</time>
      </trkpt>
      <trkpt lat="43.19501" lon="5.76501">
        <ele>95</ele>
        <time>2016-04-10T07:35:24.000Z</time>
      </trkpt>
      <trkpt lat="43.19502" lon="5.76508">
        <ele>95.400001525879</ele>
        <time>2016-04-10T07:35:25.000Z</time>
      </trkpt>
      <trkpt lat="43.19505" lon="5.76521">
        <ele>95.800003051758</ele>
        <time>2016-04-10T07:35:27.000Z</time>
      </trkpt>
      <trkpt lat="43.19512" lon="5.76552">
        <ele>97.199996948242</ele>
        <time>2016-04-10T07:35:32.000Z</time>
      </trkpt>
      <trkpt lat="43.19514" lon="5.76558">
        <ele>97.400001525879</ele>
        <time>2016-04-10T07:35:33.000Z</time>
      </trkpt>
      <trkpt lat="43.19517" lon="5.76576">
        <ele>98.199996948242</ele>
        <time>2016-04-10T07:35:36.000Z</time>
      </trkpt>
      <trkpt lat="43.19518" lon="5.76582">
        <ele>98.599998474121</ele>
        <time>2016-04-10T07:35:37.000Z</time>
      </trkpt>
      <trkpt lat="43.19521" lon="5.76594">
        <ele>99.199996948242</ele>
        <time>2016-04-10T07:35:39.000Z</time>
      </trkpt>
      <trkpt lat="43.19522" lon="5.76601">
        <ele>99.599998474121</ele>
        <time>2016-04-10T07:35:40.000Z</time>
      </trkpt>
      <trkpt lat="43.19525" lon="5.76623">
        <ele>100.40000152588</ele>
        <time>2016-04-10T07:35:43.000Z</time>
      </trkpt>
      <trkpt lat="43.19531" lon="5.76657">
        <ele>101.19999694824</ele>
        <time>2016-04-10T07:35:48.000Z</time>
      </trkpt>
      <trkpt lat="43.19536" lon="5.76694">
        <ele>102.19999694824</ele>
        <time>2016-04-10T07:35:54.000Z</time>
      </trkpt>
      <trkpt lat="43.19537" lon="5.76701">
        <ele>102.19999694824</ele>
        <time>2016-04-10T07:35:55.000Z</time>
      </trkpt>
      <trkpt lat="43.19541" lon="5.76733">
        <ele>102.19999694824</ele>
        <time>2016-04-10T07:36:00.000Z</time>
      </trkpt>
      <trkpt lat="43.19543" lon="5.76755">
        <ele>101.80000305176</ele>
        <time>2016-04-10T07:36:03.000Z</time>
      </trkpt>
      <trkpt lat="43.19551" lon="5.7681">
        <ele>101.59999847412</ele>
        <time>2016-04-10T07:36:11.000Z</time>
      </trkpt>
      <trkpt lat="43.19561" lon="5.76855">
        <ele>101.80000305176</ele>
        <time>2016-04-10T07:36:18.000Z</time>
      </trkpt>
      <trkpt lat="43.19572" lon="5.76875">
        <ele>103.19999694824</ele>
        <time>2016-04-10T07:36:22.000Z</time>
      </trkpt>
      <trkpt lat="43.19578" lon="5.76884">
        <ele>104</ele>
        <time>2016-04-10T07:36:24.000Z</time>
      </trkpt>
      <trkpt lat="43.1959" lon="5.76901">
        <ele>105.40000152588</ele>
        <time>2016-04-10T07:36:28.000Z</time>
      </trkpt>
      <trkpt lat="43.19595" lon="5.7691">
        <ele>106.19999694824</ele>
        <time>2016-04-10T07:36:30.000Z</time>
      </trkpt>
      <trkpt lat="43.19598" lon="5.76914">
        <ele>106.59999847412</ele>
        <time>2016-04-10T07:36:31.000Z</time>
      </trkpt>
      <trkpt lat="43.19605" lon="5.76926">
        <ele>108.40000152588</ele>
        <time>2016-04-10T07:36:34.000Z</time>
      </trkpt>
      <trkpt lat="43.1961" lon="5.76933">
        <ele>109.80000305176</ele>
        <time>2016-04-10T07:36:36.000Z</time>
      </trkpt>
      <trkpt lat="43.19618" lon="5.76945">
        <ele>111.59999847412</ele>
        <time>2016-04-10T07:36:39.000Z</time>
      </trkpt>
      <trkpt lat="43.19626" lon="5.76956">
        <ele>113.40000152588</ele>
        <time>2016-04-10T07:36:42.000Z</time>
      </trkpt>
      <trkpt lat="43.19633" lon="5.76967">
        <ele>115.19999694824</ele>
        <time>2016-04-10T07:36:45.000Z</time>
      </trkpt>
      <trkpt lat="43.19641" lon="5.76978">
        <ele>116.40000152588</ele>
        <time>2016-04-10T07:36:48.000Z</time>
      </trkpt>
      <trkpt lat="43.19643" lon="5.76982">
        <ele>116.59999847412</ele>
        <time>2016-04-10T07:36:49.000Z</time>
      </trkpt>
      <trkpt lat="43.19648" lon="5.7699">
        <ele>117.19999694824</ele>
        <time>2016-04-10T07:36:51.000Z</time>
      </trkpt>
      <trkpt lat="43.19656" lon="5.77003">
        <ele>118</ele>
        <time>2016-04-10T07:36:54.000Z</time>
      </trkpt>
      <trkpt lat="43.19664" lon="5.77015">
        <ele>118.80000305176</ele>
        <time>2016-04-10T07:36:57.000Z</time>
      </trkpt>
      <trkpt lat="43.19667" lon="5.77018">
        <ele>119.19999694824</ele>
        <time>2016-04-10T07:36:58.000Z</time>
      </trkpt>
      <trkpt lat="43.19669" lon="5.7702">
        <ele>119.59999847412</ele>
        <time>2016-04-10T07:36:59.000Z</time>
      </trkpt>
      <trkpt lat="43.19676" lon="5.77028">
        <ele>120.80000305176</ele>
        <time>2016-04-10T07:37:02.000Z</time>
      </trkpt>
      <trkpt lat="43.19681" lon="5.77034">
        <ele>121.59999847412</ele>
        <time>2016-04-10T07:37:04.000Z</time>
      </trkpt>
      <trkpt lat="43.19685" lon="5.77043">
        <ele>122.19999694824</ele>
        <time>2016-04-10T07:37:06.000Z</time>
      </trkpt>
      <trkpt lat="43.19692" lon="5.77056">
        <ele>123.59999847412</ele>
        <time>2016-04-10T07:37:09.000Z</time>
      </trkpt>
      <trkpt lat="43.19698" lon="5.77065">
        <ele>124.80000305176</ele>
        <time>2016-04-10T07:37:11.000Z</time>
      </trkpt>
      <trkpt lat="43.19701" lon="5.7707">
        <ele>125.19999694824</ele>
        <time>2016-04-10T07:37:12.000Z</time>
      </trkpt>
      <trkpt lat="43.19709" lon="5.77088">
        <ele>126.80000305176</ele>
        <time>2016-04-10T07:37:16.000Z</time>
      </trkpt>
      <trkpt lat="43.19716" lon="5.77102">
        <ele>128</ele>
        <time>2016-04-10T07:37:19.000Z</time>
      </trkpt>
      <trkpt lat="43.19723" lon="5.77115">
        <ele>129.39999389648</ele>
        <time>2016-04-10T07:37:22.000Z</time>
      </trkpt>
      <trkpt lat="43.19729" lon="5.77123">
        <ele>130.60000610352</ele>
        <time>2016-04-10T07:37:24.000Z</time>
      </trkpt>
      <trkpt lat="43.19736" lon="5.77134">
        <ele>132.19999694824</ele>
        <time>2016-04-10T07:37:27.000Z</time>
      </trkpt>
      <trkpt lat="43.19744" lon="5.77146">
        <ele>134.60000610352</ele>
        <time>2016-04-10T07:37:30.000Z</time>
      </trkpt>
      <trkpt lat="43.19752" lon="5.77159">
        <ele>137.60000610352</ele>
        <time>2016-04-10T07:37:33.000Z</time>
      </trkpt>
      <trkpt lat="43.19756" lon="5.77169">
        <ele>139</ele>
        <time>2016-04-10T07:37:35.000Z</time>
      </trkpt>
      <trkpt lat="43.19759" lon="5.77179">
        <ele>140</ele>
        <time>2016-04-10T07:37:37.000Z</time>
      </trkpt>
      <trkpt lat="43.19761" lon="5.77199">
        <ele>141.19999694824</ele>
        <time>2016-04-10T07:37:41.000Z</time>
      </trkpt>
      <trkpt lat="43.19761" lon="5.77204">
        <ele>141.39999389648</ele>
        <time>2016-04-10T07:37:42.000Z</time>
      </trkpt>
      <trkpt lat="43.1976" lon="5.77221">
        <ele>141.39999389648</ele>
        <time>2016-04-10T07:37:45.000Z</time>
      </trkpt>
      <trkpt lat="43.19758" lon="5.77238">
        <ele>141.39999389648</ele>
        <time>2016-04-10T07:37:48.000Z</time>
      </trkpt>
      <trkpt lat="43.19757" lon="5.77244">
        <ele>141.39999389648</ele>
        <time>2016-04-10T07:37:49.000Z</time>
      </trkpt>
      <trkpt lat="43.19756" lon="5.77263">
        <ele>141.60000610352</ele>
        <time>2016-04-10T07:37:52.000Z</time>
      </trkpt>
      <trkpt lat="43.19757" lon="5.77286">
        <ele>142.39999389648</ele>
        <time>2016-04-10T07:37:56.000Z</time>
      </trkpt>
      <trkpt lat="43.19758" lon="5.77292">
        <ele>142.80000305176</ele>
        <time>2016-04-10T07:37:57.000Z</time>
      </trkpt>
      <trkpt lat="43.19764" lon="5.77312">
        <ele>145</ele>
        <time>2016-04-10T07:38:01.000Z</time>
      </trkpt>
      <trkpt lat="43.19769" lon="5.77327">
        <ele>146.60000610352</ele>
        <time>2016-04-10T07:38:04.000Z</time>
      </trkpt>
      <trkpt lat="43.19771" lon="5.77332">
        <ele>147.19999694824</ele>
        <time>2016-04-10T07:38:05.000Z</time>
      </trkpt>
      <trkpt lat="43.19774" lon="5.77345">
        <ele>148.39999389648</ele>
        <time>2016-04-10T07:38:08.000Z</time>
      </trkpt>
      <trkpt lat="43.19775" lon="5.77359">
        <ele>149.60000610352</ele>
        <time>2016-04-10T07:38:11.000Z</time>
      </trkpt>
      <trkpt lat="43.19773" lon="5.77379">
        <ele>150.39999389648</ele>
        <time>2016-04-10T07:38:15.000Z</time>
      </trkpt>
      <trkpt lat="43.19771" lon="5.77395">
        <ele>150.60000610352</ele>
        <time>2016-04-10T07:38:19.000Z</time>
      </trkpt>
      <trkpt lat="43.19766" lon="5.77417">
        <ele>151.80000305176</ele>
        <time>2016-04-10T07:38:23.000Z</time>
      </trkpt>
      <trkpt lat="43.19764" lon="5.77439">
        <ele>153.39999389648</ele>
        <time>2016-04-10T07:38:27.000Z</time>
      </trkpt>
      <trkpt lat="43.19757" lon="5.77456">
        <ele>153.80000305176</ele>
        <time>2016-04-10T07:38:31.000Z</time>
      </trkpt>
      <trkpt lat="43.19753" lon="5.77462">
        <ele>153.60000610352</ele>
        <time>2016-04-10T07:38:33.000Z</time>
      </trkpt>
      <trkpt lat="43.19748" lon="5.77465">
        <ele>153.19999694824</ele>
        <time>2016-04-10T07:38:35.000Z</time>
      </trkpt>
      <trkpt lat="43.19733" lon="5.77479">
        <ele>152.80000305176</ele>
        <time>2016-04-10T07:38:40.000Z</time>
      </trkpt>
      <trkpt lat="43.19729" lon="5.77483">
        <ele>153</ele>
        <time>2016-04-10T07:38:41.000Z</time>
      </trkpt>
      <trkpt lat="43.1972" lon="5.77494">
        <ele>153.60000610352</ele>
        <time>2016-04-10T07:38:45.000Z</time>
      </trkpt>
      <trkpt lat="43.19706" lon="5.77514">
        <ele>154.60000610352</ele>
        <time>2016-04-10T07:38:47.000Z</time>
      </trkpt>
      <trkpt lat="43.19688" lon="5.77537">
        <ele>155</ele>
        <time>2016-04-10T07:38:51.000Z</time>
      </trkpt>
      <trkpt lat="43.19683" lon="5.7755">
        <ele>156</ele>
        <time>2016-04-10T07:38:53.000Z</time>
      </trkpt>
      <trkpt lat="43.19683" lon="5.77567">
        <ele>158.60000610352</ele>
        <time>2016-04-10T07:38:56.000Z</time>
      </trkpt>
      <trkpt lat="43.19691" lon="5.77567">
        <ele>160</ele>
        <time>2016-04-10T07:38:59.000Z</time>
      </trkpt>
      <trkpt lat="43.19695" lon="5.77564">
        <ele>160.19999694824</ele>
        <time>2016-04-10T07:39:00.000Z</time>
      </trkpt>
      <trkpt lat="43.19702" lon="5.7756">
        <ele>161</ele>
        <time>2016-04-10T07:39:02.000Z</time>
      </trkpt>
      <trkpt lat="43.19713" lon="5.77554">
        <ele>162</ele>
        <time>2016-04-10T07:39:05.000Z</time>
      </trkpt>
      <trkpt lat="43.19717" lon="5.77553">
        <ele>162.60000610352</ele>
        <time>2016-04-10T07:39:06.000Z</time>
      </trkpt>
      <trkpt lat="43.1973" lon="5.77552">
        <ele>164.80000305176</ele>
        <time>2016-04-10T07:39:09.000Z</time>
      </trkpt>
      <trkpt lat="43.19738" lon="5.77551">
        <ele>166.19999694824</ele>
        <time>2016-04-10T07:39:11.000Z</time>
      </trkpt>
      <trkpt lat="43.19746" lon="5.77551">
        <ele>167.60000610352</ele>
        <time>2016-04-10T07:39:13.000Z</time>
      </trkpt>
      <trkpt lat="43.19761" lon="5.7755">
        <ele>170</ele>
        <time>2016-04-10T07:39:17.000Z</time>
      </trkpt>
      <trkpt lat="43.19765" lon="5.77549">
        <ele>170.39999389648</ele>
        <time>2016-04-10T07:39:18.000Z</time>
      </trkpt>
      <trkpt lat="43.19778" lon="5.77548">
        <ele>171.19999694824</ele>
        <time>2016-04-10T07:39:21.000Z</time>
      </trkpt>
      <trkpt lat="43.1979" lon="5.77547">
        <ele>172</ele>
        <time>2016-04-10T07:39:24.000Z</time>
      </trkpt>
      <trkpt lat="43.19798" lon="5.77546">
        <ele>172.39999389648</ele>
        <time>2016-04-10T07:39:26.000Z</time>
      </trkpt>
      <trkpt lat="43.19806" lon="5.77546">
        <ele>173</ele>
        <time>2016-04-10T07:39:28.000Z</time>
      </trkpt>
      <trkpt lat="43.19821" lon="5.77546">
        <ele>174.60000610352</ele>
        <time>2016-04-10T07:39:32.000Z</time>
      </trkpt>
      <trkpt lat="43.1983" lon="5.77546">
        <ele>175.19999694824</ele>
        <time>2016-04-10T07:39:34.000Z</time>
      </trkpt>
      <trkpt lat="43.19838" lon="5.77546">
        <ele>175.80000305176</ele>
        <time>2016-04-10T07:39:36.000Z</time>
      </trkpt>
      <trkpt lat="43.19854" lon="5.77546">
        <ele>176</ele>
        <time>2016-04-10T07:39:40.000Z</time>
      </trkpt>
      <trkpt lat="43.19858" lon="5.77547">
        <ele>176</ele>
        <time>2016-04-10T07:39:41.000Z</time>
      </trkpt>
      <trkpt lat="43.19867" lon="5.77557">
        <ele>177.19999694824</ele>
        <time>2016-04-10T07:39:44.000Z</time>
      </trkpt>
      <trkpt lat="43.1987" lon="5.77561">
        <ele>177.60000610352</ele>
        <time>2016-04-10T07:39:45.000Z</time>
      </trkpt>
      <trkpt lat="43.19875" lon="5.7757">
        <ele>178.60000610352</ele>
        <time>2016-04-10T07:39:47.000Z</time>
      </trkpt>
      <trkpt lat="43.19885" lon="5.77586">
        <ele>180.19999694824</ele>
        <time>2016-04-10T07:39:51.000Z</time>
      </trkpt>
      <trkpt lat="43.1989" lon="5.77593">
        <ele>181</ele>
        <time>2016-04-10T07:39:53.000Z</time>
      </trkpt>
      <trkpt lat="43.19892" lon="5.77597">
        <ele>181.39999389648</ele>
        <time>2016-04-10T07:39:54.000Z</time>
      </trkpt>
      <trkpt lat="43.19902" lon="5.77613">
        <ele>183</ele>
        <time>2016-04-10T07:39:58.000Z</time>
      </trkpt>
      <trkpt lat="43.19909" lon="5.77627">
        <ele>184.39999389648</ele>
        <time>2016-04-10T07:40:01.000Z</time>
      </trkpt>
      <trkpt lat="43.19912" lon="5.77631">
        <ele>184.80000305176</ele>
        <time>2016-04-10T07:40:02.000Z</time>
      </trkpt>
      <trkpt lat="43.1992" lon="5.77643">
        <ele>186.19999694824</ele>
        <time>2016-04-10T07:40:05.000Z</time>
      </trkpt>
      <trkpt lat="43.19928" lon="5.77656">
        <ele>187.80000305176</ele>
        <time>2016-04-10T07:40:08.000Z</time>
      </trkpt>
      <trkpt lat="43.19931" lon="5.7766">
        <ele>188.60000610352</ele>
        <time>2016-04-10T07:40:09.000Z</time>
      </trkpt>
      <trkpt lat="43.19939" lon="5.77673">
        <ele>191</ele>
        <time>2016-04-10T07:40:12.000Z</time>
      </trkpt>
      <trkpt lat="43.19949" lon="5.77686">
        <ele>193.39999389648</ele>
        <time>2016-04-10T07:40:16.000Z</time>
      </trkpt>
      <trkpt lat="43.19959" lon="5.77689">
        <ele>194.39999389648</ele>
        <time>2016-04-10T07:40:19.000Z</time>
      </trkpt>
      <trkpt lat="43.19963" lon="5.77689">
        <ele>194.60000610352</ele>
        <time>2016-04-10T07:40:20.000Z</time>
      </trkpt>
      <trkpt lat="43.1997" lon="5.77686">
        <ele>194.60000610352</ele>
        <time>2016-04-10T07:40:22.000Z</time>
      </trkpt>
      <trkpt lat="43.19981" lon="5.7768">
        <ele>194</ele>
        <time>2016-04-10T07:40:25.000Z</time>
      </trkpt>
      <trkpt lat="43.19984" lon="5.77677">
        <ele>193.80000305176</ele>
        <time>2016-04-10T07:40:26.000Z</time>
      </trkpt>
      <trkpt lat="43.19992" lon="5.77673">
        <ele>193.60000610352</ele>
        <time>2016-04-10T07:40:28.000Z</time>
      </trkpt>
      <trkpt lat="43.20006" lon="5.77667">
        <ele>193.19999694824</ele>
        <time>2016-04-10T07:40:32.000Z</time>
      </trkpt>
      <trkpt lat="43.20014" lon="5.77665">
        <ele>193.39999389648</ele>
        <time>2016-04-10T07:40:34.000Z</time>
      </trkpt>
      <trkpt lat="43.20017" lon="5.77664">
        <ele>193.60000610352</ele>
        <time>2016-04-10T07:40:35.000Z</time>
      </trkpt>
      <trkpt lat="43.20032" lon="5.77661">
        <ele>194.19999694824</ele>
        <time>2016-04-10T07:40:39.000Z</time>
      </trkpt>
      <trkpt lat="43.20046" lon="5.77657">
        <ele>195.19999694824</ele>
        <time>2016-04-10T07:40:43.000Z</time>
      </trkpt>
      <trkpt lat="43.20061" lon="5.77654">
        <ele>196.39999389648</ele>
        <time>2016-04-10T07:40:47.000Z</time>
      </trkpt>
      <trkpt lat="43.20076" lon="5.77652">
        <ele>197.80000305176</ele>
        <time>2016-04-10T07:40:51.000Z</time>
      </trkpt>
      <trkpt lat="43.2008" lon="5.77651">
        <ele>198</ele>
        <time>2016-04-10T07:40:52.000Z</time>
      </trkpt>
      <trkpt lat="43.20093" lon="5.77647">
        <ele>199</ele>
        <time>2016-04-10T07:40:55.000Z</time>
      </trkpt>
      <trkpt lat="43.2011" lon="5.77639">
        <ele>201.39999389648</ele>
        <time>2016-04-10T07:40:59.000Z</time>
      </trkpt>
      <trkpt lat="43.20114" lon="5.77637">
        <ele>202</ele>
        <time>2016-04-10T07:41:00.000Z</time>
      </trkpt>
      <trkpt lat="43.20126" lon="5.77626">
        <ele>202.60000610352</ele>
        <time>2016-04-10T07:41:03.000Z</time>
      </trkpt>
      <trkpt lat="43.20129" lon="5.77621">
        <ele>202.60000610352</ele>
        <time>2016-04-10T07:41:04.000Z</time>
      </trkpt>
      <trkpt lat="43.20132" lon="5.77617">
        <ele>202.39999389648</ele>
        <time>2016-04-10T07:41:05.000Z</time>
      </trkpt>
      <trkpt lat="43.20141" lon="5.77602">
        <ele>201.80000305176</ele>
        <time>2016-04-10T07:41:08.000Z</time>
      </trkpt>
      <trkpt lat="43.20147" lon="5.77588">
        <ele>202.60000610352</ele>
        <time>2016-04-10T07:41:11.000Z</time>
      </trkpt>
      <trkpt lat="43.20153" lon="5.77575">
        <ele>203.60000610352</ele>
        <time>2016-04-10T07:41:14.000Z</time>
      </trkpt>
      <trkpt lat="43.20158" lon="5.77567">
        <ele>204.39999389648</ele>
        <time>2016-04-10T07:41:17.000Z</time>
      </trkpt>
      <trkpt lat="43.20159" lon="5.77565">
        <ele>204.60000610352</ele>
        <time>2016-04-10T07:41:18.000Z</time>
      </trkpt>
      <trkpt lat="43.20158" lon="5.77562">
        <ele>204.19999694824</ele>
        <time>2016-04-10T07:41:23.000Z</time>
      </trkpt>
      <trkpt lat="43.20157" lon="5.77565">
        <ele>204.19999694824</ele>
        <time>2016-04-10T07:41:24.000Z</time>
      </trkpt>
      <trkpt lat="43.20147" lon="5.77581">
        <ele>202</ele>
        <time>2016-04-10T07:44:44.000Z</time>
      </trkpt>
      <trkpt lat="43.20151" lon="5.77575">
        <ele>203</ele>
        <time>2016-04-10T07:44:46.000Z</time>
      </trkpt>
      <trkpt lat="43.20156" lon="5.77566">
        <ele>203.80000305176</ele>
        <time>2016-04-10T07:44:48.000Z</time>
      </trkpt>
      <trkpt lat="43.2016" lon="5.77557">
        <ele>204.39999389648</ele>
        <time>2016-04-10T07:44:50.000Z</time>
      </trkpt>
      <trkpt lat="43.20163" lon="5.77551">
        <ele>204.80000305176</ele>
        <time>2016-04-10T07:44:52.000Z</time>
      </trkpt>
      <trkpt lat="43.20164" lon="5.77553">
        <ele>205.19999694824</ele>
        <time>2016-04-10T07:44:53.000Z</time>
      </trkpt>
      <trkpt lat="43.20166" lon="5.77558">
        <ele>206.39999389648</ele>
        <time>2016-04-10T07:44:55.000Z</time>
      </trkpt>
      <trkpt lat="43.20169" lon="5.77568">
        <ele>208</ele>
        <time>2016-04-10T07:44:58.000Z</time>
      </trkpt>
      <trkpt lat="43.20169" lon="5.77572">
        <ele>208.39999389648</ele>
        <time>2016-04-10T07:44:59.000Z</time>
      </trkpt>
      <trkpt lat="43.20169" lon="5.77583">
        <ele>209</ele>
        <time>2016-04-10T07:45:01.000Z</time>
      </trkpt>
      <trkpt lat="43.20167" lon="5.77602">
        <ele>210</ele>
        <time>2016-04-10T07:45:04.000Z</time>
      </trkpt>
      <trkpt lat="43.20166" lon="5.77621">
        <ele>211</ele>
        <time>2016-04-10T07:45:07.000Z</time>
      </trkpt>
      <trkpt lat="43.20166" lon="5.7764">
        <ele>213.39999389648</ele>
        <time>2016-04-10T07:45:11.000Z</time>
      </trkpt>
      <trkpt lat="43.20168" lon="5.7765">
        <ele>214.39999389648</ele>
        <time>2016-04-10T07:45:13.000Z</time>
      </trkpt>
      <trkpt lat="43.20168" lon="5.77655">
        <ele>214.80000305176</ele>
        <time>2016-04-10T07:45:14.000Z</time>
      </trkpt>
      <trkpt lat="43.20168" lon="5.77678">
        <ele>216.19999694824</ele>
        <time>2016-04-10T07:45:18.000Z</time>
      </trkpt>
      <trkpt lat="43.20167" lon="5.77695">
        <ele>217</ele>
        <time>2016-04-10T07:45:21.000Z</time>
      </trkpt>
      <trkpt lat="43.20167" lon="5.77699">
        <ele>217.19999694824</ele>
        <time>2016-04-10T07:45:22.000Z</time>
      </trkpt>
      <trkpt lat="43.20166" lon="5.77709">
        <ele>217.60000610352</ele>
        <time>2016-04-10T07:45:24.000Z</time>
      </trkpt>
      <trkpt lat="43.20165" lon="5.77717">
        <ele>218.39999389648</ele>
        <time>2016-04-10T07:45:26.000Z</time>
      </trkpt>
      <trkpt lat="43.20162" lon="5.77724">
        <ele>218.80000305176</ele>
        <time>2016-04-10T07:45:28.000Z</time>
      </trkpt>
      <trkpt lat="43.20159" lon="5.77727">
        <ele>218.80000305176</ele>
        <time>2016-04-10T07:45:29.000Z</time>
      </trkpt>
      <trkpt lat="43.20152" lon="5.77736">
        <ele>218.60000610352</ele>
        <time>2016-04-10T07:45:32.000Z</time>
      </trkpt>
      <trkpt lat="43.20146" lon="5.77743">
        <ele>218.39999389648</ele>
        <time>2016-04-10T07:45:34.000Z</time>
      </trkpt>
      <trkpt lat="43.20141" lon="5.7775">
        <ele>218.39999389648</ele>
        <time>2016-04-10T07:45:36.000Z</time>
      </trkpt>
      <trkpt lat="43.20137" lon="5.77763">
        <ele>219</ele>
        <time>2016-04-10T07:45:40.000Z</time>
      </trkpt>
      <trkpt lat="43.20137" lon="5.77766">
        <ele>219.60000610352</ele>
        <time>2016-04-10T07:45:41.000Z</time>
      </trkpt>
      <trkpt lat="43.2014" lon="5.77779">
        <ele>222</ele>
        <time>2016-04-10T07:45:45.000Z</time>
      </trkpt>
      <trkpt lat="43.20145" lon="5.77784">
        <ele>223.19999694824</ele>
        <time>2016-04-10T07:45:47.000Z</time>
      </trkpt>
      <trkpt lat="43.20152" lon="5.77787">
        <ele>224.19999694824</ele>
        <time>2016-04-10T07:45:49.000Z</time>
      </trkpt>
      <trkpt lat="43.2016" lon="5.77787">
        <ele>224.60000610352</ele>
        <time>2016-04-10T07:45:51.000Z</time>
      </trkpt>
      <trkpt lat="43.20166" lon="5.77785">
        <ele>225.19999694824</ele>
        <time>2016-04-10T07:45:53.000Z</time>
      </trkpt>
      <trkpt lat="43.20174" lon="5.77778">
        <ele>225.80000305176</ele>
        <time>2016-04-10T07:45:56.000Z</time>
      </trkpt>
      <trkpt lat="43.2018" lon="5.77771">
        <ele>225.80000305176</ele>
        <time>2016-04-10T07:45:58.000Z</time>
      </trkpt>
      <trkpt lat="43.20187" lon="5.77763">
        <ele>225.60000610352</ele>
        <time>2016-04-10T07:46:01.000Z</time>
      </trkpt>
      <trkpt lat="43.2019" lon="5.77762">
        <ele>225.80000305176</ele>
        <time>2016-04-10T07:46:02.000Z</time>
      </trkpt>
      <trkpt lat="43.20198" lon="5.77761">
        <ele>226.19999694824</ele>
        <time>2016-04-10T07:46:05.000Z</time>
      </trkpt>
      <trkpt lat="43.202" lon="5.77762">
        <ele>226.39999389648</ele>
        <time>2016-04-10T07:46:06.000Z</time>
      </trkpt>
      <trkpt lat="43.202" lon="5.77765">
        <ele>226.80000305176</ele>
        <time>2016-04-10T07:46:07.000Z</time>
      </trkpt>
      <trkpt lat="43.20199" lon="5.77772">
        <ele>227.39999389648</ele>
        <time>2016-04-10T07:46:09.000Z</time>
      </trkpt>
      <trkpt lat="43.20197" lon="5.7778">
        <ele>228</ele>
        <time>2016-04-10T07:46:11.000Z</time>
      </trkpt>
      <trkpt lat="43.20194" lon="5.77785">
        <ele>228.19999694824</ele>
        <time>2016-04-10T07:46:12.000Z</time>
      </trkpt>
      <trkpt lat="43.20188" lon="5.77798">
        <ele>229</ele>
        <time>2016-04-10T07:46:15.000Z</time>
      </trkpt>
      <trkpt lat="43.20181" lon="5.7781">
        <ele>229.80000305176</ele>
        <time>2016-04-10T07:46:18.000Z</time>
      </trkpt>
      <trkpt lat="43.20177" lon="5.77818">
        <ele>230.60000610352</ele>
        <time>2016-04-10T07:46:20.000Z</time>
      </trkpt>
      <trkpt lat="43.20169" lon="5.77832">
        <ele>232</ele>
        <time>2016-04-10T07:46:24.000Z</time>
      </trkpt>
      <trkpt lat="43.20168" lon="5.77835">
        <ele>232.19999694824</ele>
        <time>2016-04-10T07:46:25.000Z</time>
      </trkpt>
      <trkpt lat="43.20162" lon="5.77845">
        <ele>233.19999694824</ele>
        <time>2016-04-10T07:46:28.000Z</time>
      </trkpt>
      <trkpt lat="43.2015" lon="5.77862">
        <ele>234.39999389648</ele>
        <time>2016-04-10T07:46:32.000Z</time>
      </trkpt>
      <trkpt lat="43.20136" lon="5.77883">
        <ele>235.39999389648</ele>
        <time>2016-04-10T07:46:37.000Z</time>
      </trkpt>
      <trkpt lat="43.20127" lon="5.77894">
        <ele>235.39999389648</ele>
        <time>2016-04-10T07:46:40.000Z</time>
      </trkpt>
      <trkpt lat="43.20117" lon="5.77907">
        <ele>235</ele>
        <time>2016-04-10T07:46:44.000Z</time>
      </trkpt>
      <trkpt lat="43.20106" lon="5.77917">
        <ele>234.39999389648</ele>
        <time>2016-04-10T07:46:47.000Z</time>
      </trkpt>
      <trkpt lat="43.20082" lon="5.77952">
        <ele>234.19999694824</ele>
        <time>2016-04-10T07:46:54.000Z</time>
      </trkpt>
      <trkpt lat="43.20067" lon="5.77985">
        <ele>233</ele>
        <time>2016-04-10T07:47:01.000Z</time>
      </trkpt>
      <trkpt lat="43.20063" lon="5.77991">
        <ele>232.60000610352</ele>
        <time>2016-04-10T07:47:03.000Z</time>
      </trkpt>
      <trkpt lat="43.20061" lon="5.77997">
        <ele>232.60000610352</ele>
        <time>2016-04-10T07:47:53.000Z</time>
      </trkpt>
      <trkpt lat="43.20061" lon="5.78">
        <ele>232.60000610352</ele>
        <time>2016-04-10T07:47:54.000Z</time>
      </trkpt>
      <trkpt lat="43.2006" lon="5.78022">
        <ele>233</ele>
        <time>2016-04-10T07:47:59.000Z</time>
      </trkpt>
      <trkpt lat="43.20057" lon="5.78049">
        <ele>233.19999694824</ele>
        <time>2016-04-10T07:48:34.000Z</time>
      </trkpt>
      <trkpt lat="43.20056" lon="5.78059">
        <ele>233.60000610352</ele>
        <time>2016-04-10T07:48:37.000Z</time>
      </trkpt>
      <trkpt lat="43.20059" lon="5.78089">
        <ele>236.39999389648</ele>
        <time>2016-04-10T07:48:44.000Z</time>
      </trkpt>
      <trkpt lat="43.20061" lon="5.78101">
        <ele>237.80000305176</ele>
        <time>2016-04-10T07:48:48.000Z</time>
      </trkpt>
      <trkpt lat="43.2006" lon="5.78114">
        <ele>238.60000610352</ele>
        <time>2016-04-10T07:48:51.000Z</time>
      </trkpt>
      <trkpt lat="43.20052" lon="5.78132">
        <ele>238.80000305176</ele>
        <time>2016-04-10T07:48:55.000Z</time>
      </trkpt>
      <trkpt lat="43.20049" lon="5.78136">
        <ele>238.80000305176</ele>
        <time>2016-04-10T07:48:56.000Z</time>
      </trkpt>
      <trkpt lat="43.20025" lon="5.78162">
        <ele>236.80000305176</ele>
        <time>2016-04-10T07:49:02.000Z</time>
      </trkpt>
      <trkpt lat="43.20008" lon="5.78172">
        <ele>236</ele>
        <time>2016-04-10T07:49:05.000Z</time>
      </trkpt>
      <trkpt lat="43.19995" lon="5.78174">
        <ele>235</ele>
        <time>2016-04-10T07:49:07.000Z</time>
      </trkpt>
      <trkpt lat="43.19966" lon="5.78177">
        <ele>232.60000610352</ele>
        <time>2016-04-10T07:49:11.000Z</time>
      </trkpt>
      <trkpt lat="43.19959" lon="5.78178">
        <ele>232.39999389648</ele>
        <time>2016-04-10T07:49:12.000Z</time>
      </trkpt>
      <trkpt lat="43.19943" lon="5.78179">
        <ele>232</ele>
        <time>2016-04-10T07:49:14.000Z</time>
      </trkpt>
      <trkpt lat="43.19919" lon="5.78182">
        <ele>231.60000610352</ele>
        <time>2016-04-10T07:49:17.000Z</time>
      </trkpt>
      <trkpt lat="43.19896" lon="5.78186">
        <ele>232</ele>
        <time>2016-04-10T07:49:20.000Z</time>
      </trkpt>
      <trkpt lat="43.19889" lon="5.78189">
        <ele>232.60000610352</ele>
        <time>2016-04-10T07:49:21.000Z</time>
      </trkpt>
      <trkpt lat="43.1987" lon="5.78199">
        <ele>235.19999694824</ele>
        <time>2016-04-10T07:49:24.000Z</time>
      </trkpt>
      <trkpt lat="43.19864" lon="5.78202">
        <ele>235.80000305176</ele>
        <time>2016-04-10T07:49:25.000Z</time>
      </trkpt>
      <trkpt lat="43.19832" lon="5.78217">
        <ele>237.60000610352</ele>
        <time>2016-04-10T07:49:31.000Z</time>
      </trkpt>
      <trkpt lat="43.19804" lon="5.78232">
        <ele>234.80000305176</ele>
        <time>2016-04-10T07:49:38.000Z</time>
      </trkpt>
      <trkpt lat="43.19794" lon="5.78242">
        <ele>234.19999694824</ele>
        <time>2016-04-10T07:49:41.000Z</time>
      </trkpt>
      <trkpt lat="43.19787" lon="5.7825">
        <ele>234</ele>
        <time>2016-04-10T07:49:43.000Z</time>
      </trkpt>
      <trkpt lat="43.19785" lon="5.78254">
        <ele>233.80000305176</ele>
        <time>2016-04-10T07:49:44.000Z</time>
      </trkpt>
      <trkpt lat="43.19759" lon="5.7829">
        <ele>232.19999694824</ele>
        <time>2016-04-10T07:49:52.000Z</time>
      </trkpt>
      <trkpt lat="43.19737" lon="5.78323">
        <ele>231.80000305176</ele>
        <time>2016-04-10T07:49:57.000Z</time>
      </trkpt>
      <trkpt lat="43.19732" lon="5.78329">
        <ele>231.60000610352</ele>
        <time>2016-04-10T07:49:58.000Z</time>
      </trkpt>
      <trkpt lat="43.19702" lon="5.78361">
        <ele>230.39999389648</ele>
        <time>2016-04-10T07:50:04.000Z</time>
      </trkpt>
      <trkpt lat="43.19685" lon="5.78376">
        <ele>229.60000610352</ele>
        <time>2016-04-10T07:50:07.000Z</time>
      </trkpt>
      <trkpt lat="43.19664" lon="5.78395">
        <ele>227.39999389648</ele>
        <time>2016-04-10T07:50:10.000Z</time>
      </trkpt>
      <trkpt lat="43.19657" lon="5.78402">
        <ele>226.19999694824</ele>
        <time>2016-04-10T07:50:11.000Z</time>
      </trkpt>
      <trkpt lat="43.19651" lon="5.78409">
        <ele>225.19999694824</ele>
        <time>2016-04-10T07:50:12.000Z</time>
      </trkpt>
      <trkpt lat="43.19642" lon="5.78424">
        <ele>224</ele>
        <time>2016-04-10T07:50:14.000Z</time>
      </trkpt>
      <trkpt lat="43.19631" lon="5.78459">
        <ele>223</ele>
        <time>2016-04-10T07:50:18.000Z</time>
      </trkpt>
      <trkpt lat="43.19629" lon="5.78469">
        <ele>222.80000305176</ele>
        <time>2016-04-10T07:50:19.000Z</time>
      </trkpt>
      <trkpt lat="43.19628" lon="5.78477">
        <ele>222.80000305176</ele>
        <time>2016-04-10T07:50:20.000Z</time>
      </trkpt>
      <trkpt lat="43.19627" lon="5.78493">
        <ele>222.39999389648</ele>
        <time>2016-04-10T07:50:22.000Z</time>
      </trkpt>
      <trkpt lat="43.19627" lon="5.785">
        <ele>222.39999389648</ele>
        <time>2016-04-10T07:50:23.000Z</time>
      </trkpt>
      <trkpt lat="43.19626" lon="5.78529">
        <ele>222.19999694824</ele>
        <time>2016-04-10T07:50:27.000Z</time>
      </trkpt>
      <trkpt lat="43.19624" lon="5.78548">
        <ele>222</ele>
        <time>2016-04-10T07:50:30.000Z</time>
      </trkpt>
      <trkpt lat="43.19621" lon="5.78598">
        <ele>222.19999694824</ele>
        <time>2016-04-10T07:50:37.000Z</time>
      </trkpt>
      <trkpt lat="43.1962" lon="5.78606">
        <ele>222</ele>
        <time>2016-04-10T07:50:38.000Z</time>
      </trkpt>
      <trkpt lat="43.19618" lon="5.78668">
        <ele>221.39999389648</ele>
        <time>2016-04-10T07:50:45.000Z</time>
      </trkpt>
      <trkpt lat="43.19614" lon="5.78716">
        <ele>220.19999694824</ele>
        <time>2016-04-10T07:50:50.000Z</time>
      </trkpt>
      <trkpt lat="43.19612" lon="5.78726">
        <ele>219.60000610352</ele>
        <time>2016-04-10T07:50:51.000Z</time>
      </trkpt>
      <trkpt lat="43.19597" lon="5.78768">
        <ele>217.19999694824</ele>
        <time>2016-04-10T07:50:55.000Z</time>
      </trkpt>
      <trkpt lat="43.19581" lon="5.78812">
        <ele>214.80000305176</ele>
        <time>2016-04-10T07:50:59.000Z</time>
      </trkpt>
      <trkpt lat="43.19572" lon="5.78835">
        <ele>212.60000610352</ele>
        <time>2016-04-10T07:51:01.000Z</time>
      </trkpt>
      <trkpt lat="43.19563" lon="5.78858">
        <ele>210.39999389648</ele>
        <time>2016-04-10T07:51:03.000Z</time>
      </trkpt>
      <trkpt lat="43.19554" lon="5.78883">
        <ele>208.60000610352</ele>
        <time>2016-04-10T07:51:05.000Z</time>
      </trkpt>
      <trkpt lat="43.19544" lon="5.78907">
        <ele>205.19999694824</ele>
        <time>2016-04-10T07:51:07.000Z</time>
      </trkpt>
      <trkpt lat="43.1954" lon="5.7892">
        <ele>203.60000610352</ele>
        <time>2016-04-10T07:51:08.000Z</time>
      </trkpt>
      <trkpt lat="43.19536" lon="5.78933">
        <ele>202.80000305176</ele>
        <time>2016-04-10T07:51:09.000Z</time>
      </trkpt>
      <trkpt lat="43.19536" lon="5.78947">
        <ele>202.39999389648</ele>
        <time>2016-04-10T07:51:10.000Z</time>
      </trkpt>
      <trkpt lat="43.19535" lon="5.78961">
        <ele>202</ele>
        <time>2016-04-10T07:51:11.000Z</time>
      </trkpt>
      <trkpt lat="43.19538" lon="5.78987">
        <ele>200.39999389648</ele>
        <time>2016-04-10T07:51:13.000Z</time>
      </trkpt>
      <trkpt lat="43.19543" lon="5.79013">
        <ele>199</ele>
        <time>2016-04-10T07:51:15.000Z</time>
      </trkpt>
      <trkpt lat="43.19551" lon="5.79038">
        <ele>198.60000610352</ele>
        <time>2016-04-10T07:51:17.000Z</time>
      </trkpt>
      <trkpt lat="43.19557" lon="5.79048">
        <ele>198.60000610352</ele>
        <time>2016-04-10T07:51:18.000Z</time>
      </trkpt>
      <trkpt lat="43.19563" lon="5.79058">
        <ele>198.80000305176</ele>
        <time>2016-04-10T07:51:19.000Z</time>
      </trkpt>
      <trkpt lat="43.19577" lon="5.79077">
        <ele>198.39999389648</ele>
        <time>2016-04-10T07:51:21.000Z</time>
      </trkpt>
      <trkpt lat="43.19584" lon="5.79087">
        <ele>198.19999694824</ele>
        <time>2016-04-10T07:51:22.000Z</time>
      </trkpt>
      <trkpt lat="43.19591" lon="5.79096">
        <ele>198.19999694824</ele>
        <time>2016-04-10T07:51:23.000Z</time>
      </trkpt>
      <trkpt lat="43.19606" lon="5.79114">
        <ele>198.19999694824</ele>
        <time>2016-04-10T07:51:25.000Z</time>
      </trkpt>
      <trkpt lat="43.1962" lon="5.79133">
        <ele>198.19999694824</ele>
        <time>2016-04-10T07:51:27.000Z</time>
      </trkpt>
      <trkpt lat="43.19634" lon="5.79153">
        <ele>197.80000305176</ele>
        <time>2016-04-10T07:51:29.000Z</time>
      </trkpt>
      <trkpt lat="43.1964" lon="5.79166">
        <ele>197.19999694824</ele>
        <time>2016-04-10T07:51:30.000Z</time>
      </trkpt>
      <trkpt lat="43.19645" lon="5.79178">
        <ele>196.60000610352</ele>
        <time>2016-04-10T07:51:31.000Z</time>
      </trkpt>
      <trkpt lat="43.19655" lon="5.79204">
        <ele>195.39999389648</ele>
        <time>2016-04-10T07:51:33.000Z</time>
      </trkpt>
      <trkpt lat="43.19663" lon="5.79231">
        <ele>194.80000305176</ele>
        <time>2016-04-10T07:51:35.000Z</time>
      </trkpt>
      <trkpt lat="43.19669" lon="5.79257">
        <ele>193.80000305176</ele>
        <time>2016-04-10T07:51:37.000Z</time>
      </trkpt>
      <trkpt lat="43.19671" lon="5.79284">
        <ele>192.60000610352</ele>
        <time>2016-04-10T07:51:39.000Z</time>
      </trkpt>
      <trkpt lat="43.1967" lon="5.7931">
        <ele>191.60000610352</ele>
        <time>2016-04-10T07:51:41.000Z</time>
      </trkpt>
      <trkpt lat="43.19671" lon="5.79323">
        <ele>191.60000610352</ele>
        <time>2016-04-10T07:51:42.000Z</time>
      </trkpt>
      <trkpt lat="43.19671" lon="5.79348">
        <ele>191.19999694824</ele>
        <time>2016-04-10T07:51:44.000Z</time>
      </trkpt>
      <trkpt lat="43.19669" lon="5.7936">
        <ele>191</ele>
        <time>2016-04-10T07:51:45.000Z</time>
      </trkpt>
      <trkpt lat="43.19666" lon="5.79371">
        <ele>190.80000305176</ele>
        <time>2016-04-10T07:51:46.000Z</time>
      </trkpt>
      <trkpt lat="43.19663" lon="5.79383">
        <ele>190.60000610352</ele>
        <time>2016-04-10T07:51:47.000Z</time>
      </trkpt>
      <trkpt lat="43.19653" lon="5.79414">
        <ele>189.19999694824</ele>
        <time>2016-04-10T07:51:50.000Z</time>
      </trkpt>
      <trkpt lat="43.19649" lon="5.79424">
        <ele>188.60000610352</ele>
        <time>2016-04-10T07:51:51.000Z</time>
      </trkpt>
      <trkpt lat="43.19621" lon="5.79469">
        <ele>186.60000610352</ele>
        <time>2016-04-10T07:51:56.000Z</time>
      </trkpt>
      <trkpt lat="43.19613" lon="5.79487">
        <ele>186</ele>
        <time>2016-04-10T07:51:58.000Z</time>
      </trkpt>
      <trkpt lat="43.19604" lon="5.79505">
        <ele>186.19999694824</ele>
        <time>2016-04-10T07:52:00.000Z</time>
      </trkpt>
      <trkpt lat="43.19589" lon="5.79539">
        <ele>186.80000305176</ele>
        <time>2016-04-10T07:52:04.000Z</time>
      </trkpt>
      <trkpt lat="43.19582" lon="5.79554">
        <ele>187.39999389648</ele>
        <time>2016-04-10T07:52:06.000Z</time>
      </trkpt>
      <trkpt lat="43.19578" lon="5.7956">
        <ele>187.60000610352</ele>
        <time>2016-04-10T07:52:07.000Z</time>
      </trkpt>
      <trkpt lat="43.19568" lon="5.79569">
        <ele>188.19999694824</ele>
        <time>2016-04-10T07:52:09.000Z</time>
      </trkpt>
      <trkpt lat="43.19556" lon="5.79575">
        <ele>188.60000610352</ele>
        <time>2016-04-10T07:52:13.000Z</time>
      </trkpt>
      <trkpt lat="43.19554" lon="5.79577">
        <ele>188.80000305176</ele>
        <time>2016-04-10T07:52:14.000Z</time>
      </trkpt>
      <trkpt lat="43.1955" lon="5.79583">
        <ele>189</ele>
        <time>2016-04-10T07:52:17.000Z</time>
      </trkpt>
      <trkpt lat="43.19549" lon="5.79587">
        <ele>189</ele>
        <time>2016-04-10T07:52:18.000Z</time>
      </trkpt>
      <trkpt lat="43.19548" lon="5.79612">
        <ele>190.19999694824</ele>
        <time>2016-04-10T07:52:23.000Z</time>
      </trkpt>
      <trkpt lat="43.19553" lon="5.7964">
        <ele>191</ele>
        <time>2016-04-10T07:52:27.000Z</time>
      </trkpt>
      <trkpt lat="43.19569" lon="5.79683">
        <ele>188.19999694824</ele>
        <time>2016-04-10T07:52:32.000Z</time>
      </trkpt>
      <trkpt lat="43.19584" lon="5.79719">
        <ele>186.19999694824</ele>
        <time>2016-04-10T07:52:36.000Z</time>
      </trkpt>
      <trkpt lat="43.19594" lon="5.79744">
        <ele>185</ele>
        <time>2016-04-10T07:52:39.000Z</time>
      </trkpt>
      <trkpt lat="43.19597" lon="5.79751">
        <ele>185</ele>
        <time>2016-04-10T07:52:40.000Z</time>
      </trkpt>
      <trkpt lat="43.196" lon="5.79761">
        <ele>184.80000305176</ele>
        <time>2016-04-10T07:52:42.000Z</time>
      </trkpt>
      <trkpt lat="43.19599" lon="5.7978">
        <ele>184.80000305176</ele>
        <time>2016-04-10T07:52:46.000Z</time>
      </trkpt>
      <trkpt lat="43.196" lon="5.79811">
        <ele>184.80000305176</ele>
        <time>2016-04-10T07:52:51.000Z</time>
      </trkpt>
      <trkpt lat="43.19598" lon="5.79824">
        <ele>184.39999389648</ele>
        <time>2016-04-10T07:52:53.000Z</time>
      </trkpt>
      <trkpt lat="43.19593" lon="5.79874">
        <ele>183.60000610352</ele>
        <time>2016-04-10T07:53:01.000Z</time>
      </trkpt>
      <trkpt lat="43.19586" lon="5.7989">
        <ele>183.60000610352</ele>
        <time>2016-04-10T07:53:05.000Z</time>
      </trkpt>
      <trkpt lat="43.19583" lon="5.7989">
        <ele>183.80000305176</ele>
        <time>2016-04-10T07:53:06.000Z</time>
      </trkpt>
      <trkpt lat="43.1958" lon="5.7989">
        <ele>184</ele>
        <time>2016-04-10T07:53:07.000Z</time>
      </trkpt>
      <trkpt lat="43.19569" lon="5.79887">
        <ele>185</ele>
        <time>2016-04-10T07:53:10.000Z</time>
      </trkpt>
      <trkpt lat="43.19561" lon="5.79884">
        <ele>185.60000610352</ele>
        <time>2016-04-10T07:53:12.000Z</time>
      </trkpt>
      <trkpt lat="43.19549" lon="5.79883">
        <ele>186.39999389648</ele>
        <time>2016-04-10T07:53:15.000Z</time>
      </trkpt>
      <trkpt lat="43.19545" lon="5.79884">
        <ele>186.80000305176</ele>
        <time>2016-04-10T07:53:16.000Z</time>
      </trkpt>
      <trkpt lat="43.19541" lon="5.79885">
        <ele>187</ele>
        <time>2016-04-10T07:53:17.000Z</time>
      </trkpt>
      <trkpt lat="43.19533" lon="5.79887">
        <ele>187.60000610352</ele>
        <time>2016-04-10T07:53:19.000Z</time>
      </trkpt>
      <trkpt lat="43.19513" lon="5.79893">
        <ele>188.80000305176</ele>
        <time>2016-04-10T07:53:24.000Z</time>
      </trkpt>
      <trkpt lat="43.19509" lon="5.79894">
        <ele>189.19999694824</ele>
        <time>2016-04-10T07:53:25.000Z</time>
      </trkpt>
      <trkpt lat="43.19502" lon="5.79898">
        <ele>190.19999694824</ele>
        <time>2016-04-10T07:53:27.000Z</time>
      </trkpt>
      <trkpt lat="43.19493" lon="5.79906">
        <ele>191.19999694824</ele>
        <time>2016-04-10T07:53:30.000Z</time>
      </trkpt>
      <trkpt lat="43.19491" lon="5.79911">
        <ele>191.39999389648</ele>
        <time>2016-04-10T07:53:31.000Z</time>
      </trkpt>
      <trkpt lat="43.19481" lon="5.79931">
        <ele>192.19999694824</ele>
        <time>2016-04-10T07:53:35.000Z</time>
      </trkpt>
      <trkpt lat="43.19473" lon="5.79946">
        <ele>192.39999389648</ele>
        <time>2016-04-10T07:53:38.000Z</time>
      </trkpt>
      <trkpt lat="43.19467" lon="5.79953">
        <ele>193.19999694824</ele>
        <time>2016-04-10T07:53:40.000Z</time>
      </trkpt>
      <trkpt lat="43.19462" lon="5.79955">
        <ele>193.60000610352</ele>
        <time>2016-04-10T07:53:41.000Z</time>
      </trkpt>
      <trkpt lat="43.19448" lon="5.79958">
        <ele>195.80000305176</ele>
        <time>2016-04-10T07:53:44.000Z</time>
      </trkpt>
      <trkpt lat="43.19443" lon="5.79957">
        <ele>196.60000610352</ele>
        <time>2016-04-10T07:53:45.000Z</time>
      </trkpt>
      <trkpt lat="43.19438" lon="5.79956">
        <ele>197.39999389648</ele>
        <time>2016-04-10T07:53:46.000Z</time>
      </trkpt>
      <trkpt lat="43.19427" lon="5.79948">
        <ele>199.60000610352</ele>
        <time>2016-04-10T07:53:49.000Z</time>
      </trkpt>
      <trkpt lat="43.19422" lon="5.79941">
        <ele>201.39999389648</ele>
        <time>2016-04-10T07:53:51.000Z</time>
      </trkpt>
      <trkpt lat="43.1942" lon="5.79937">
        <ele>202</ele>
        <time>2016-04-10T07:53:52.000Z</time>
      </trkpt>
      <trkpt lat="43.1942" lon="5.7992">
        <ele>203.19999694824</ele>
        <time>2016-04-10T07:53:55.000Z</time>
      </trkpt>
      <trkpt lat="43.19424" lon="5.79903">
        <ele>203.19999694824</ele>
        <time>2016-04-10T07:53:58.000Z</time>
      </trkpt>
      <trkpt lat="43.19429" lon="5.79887">
        <ele>203</ele>
        <time>2016-04-10T07:54:01.000Z</time>
      </trkpt>
      <trkpt lat="43.19435" lon="5.79867">
        <ele>203.80000305176</ele>
        <time>2016-04-10T07:54:05.000Z</time>
      </trkpt>
      <trkpt lat="43.19441" lon="5.7985">
        <ele>204.19999694824</ele>
        <time>2016-04-10T07:54:08.000Z</time>
      </trkpt>
      <trkpt lat="43.19448" lon="5.79832">
        <ele>204.39999389648</ele>
        <time>2016-04-10T07:54:11.000Z</time>
      </trkpt>
      <trkpt lat="43.19459" lon="5.79814">
        <ele>203</ele>
        <time>2016-04-10T07:54:15.000Z</time>
      </trkpt>
      <trkpt lat="43.19465" lon="5.79805">
        <ele>202</ele>
        <time>2016-04-10T07:54:17.000Z</time>
      </trkpt>
      <trkpt lat="43.1947" lon="5.79795">
        <ele>200.60000610352</ele>
        <time>2016-04-10T07:54:19.000Z</time>
      </trkpt>
      <trkpt lat="43.19474" lon="5.79783">
        <ele>199.60000610352</ele>
        <time>2016-04-10T07:54:21.000Z</time>
      </trkpt>
      <trkpt lat="43.19478" lon="5.79757">
        <ele>199</ele>
        <time>2016-04-10T07:54:25.000Z</time>
      </trkpt>
      <trkpt lat="43.19478" lon="5.7975">
        <ele>199.19999694824</ele>
        <time>2016-04-10T07:54:26.000Z</time>
      </trkpt>
      <trkpt lat="43.19466" lon="5.79728">
        <ele>201.80000305176</ele>
        <time>2016-04-10T07:54:30.000Z</time>
      </trkpt>
      <trkpt lat="43.19454" lon="5.79717">
        <ele>203.80000305176</ele>
        <time>2016-04-10T07:54:33.000Z</time>
      </trkpt>
      <trkpt lat="43.19446" lon="5.7971">
        <ele>204.80000305176</ele>
        <time>2016-04-10T07:54:35.000Z</time>
      </trkpt>
      <trkpt lat="43.19441" lon="5.79707">
        <ele>205.39999389648</ele>
        <time>2016-04-10T07:54:36.000Z</time>
      </trkpt>
      <trkpt lat="43.19425" lon="5.79695">
        <ele>207.60000610352</ele>
        <time>2016-04-10T07:54:40.000Z</time>
      </trkpt>
      <trkpt lat="43.19421" lon="5.79692">
        <ele>208</ele>
        <time>2016-04-10T07:54:41.000Z</time>
      </trkpt>
      <trkpt lat="43.19414" lon="5.79682">
        <ele>208.80000305176</ele>
        <time>2016-04-10T07:54:43.000Z</time>
      </trkpt>
      <trkpt lat="43.19412" lon="5.79677">
        <ele>209</ele>
        <time>2016-04-10T07:54:44.000Z</time>
      </trkpt>
      <trkpt lat="43.19409" lon="5.79671">
        <ele>209.19999694824</ele>
        <time>2016-04-10T07:54:45.000Z</time>
      </trkpt>
      <trkpt lat="43.19401" lon="5.79657">
        <ele>210</ele>
        <time>2016-04-10T07:54:48.000Z</time>
      </trkpt>
      <trkpt lat="43.19397" lon="5.79653">
        <ele>210.39999389648</ele>
        <time>2016-04-10T07:54:49.000Z</time>
      </trkpt>
      <trkpt lat="43.19385" lon="5.79642">
        <ele>211.80000305176</ele>
        <time>2016-04-10T07:54:52.000Z</time>
      </trkpt>
      <trkpt lat="43.19371" lon="5.79629">
        <ele>212.19999694824</ele>
        <time>2016-04-10T07:54:56.000Z</time>
      </trkpt>
      <trkpt lat="43.19367" lon="5.79626">
        <ele>212.39999389648</ele>
        <time>2016-04-10T07:54:57.000Z</time>
      </trkpt>
      <trkpt lat="43.19359" lon="5.79623">
        <ele>213</ele>
        <time>2016-04-10T07:54:59.000Z</time>
      </trkpt>
      <trkpt lat="43.19355" lon="5.79623">
        <ele>213.80000305176</ele>
        <time>2016-04-10T07:55:00.000Z</time>
      </trkpt>
      <trkpt lat="43.1935" lon="5.79624">
        <ele>214.80000305176</ele>
        <time>2016-04-10T07:55:01.000Z</time>
      </trkpt>
      <trkpt lat="43.19334" lon="5.79627">
        <ele>215.60000610352</ele>
        <time>2016-04-10T07:55:04.000Z</time>
      </trkpt>
      <trkpt lat="43.19304" lon="5.79636">
        <ele>217</ele>
        <time>2016-04-10T07:55:10.000Z</time>
      </trkpt>
      <trkpt lat="43.19265" lon="5.79646">
        <ele>218.60000610352</ele>
        <time>2016-04-10T07:55:18.000Z</time>
      </trkpt>
      <trkpt lat="43.1926" lon="5.79648">
        <ele>219.39999389648</ele>
        <time>2016-04-10T07:55:19.000Z</time>
      </trkpt>
      <trkpt lat="43.19226" lon="5.79664">
        <ele>223.60000610352</ele>
        <time>2016-04-10T07:55:27.000Z</time>
      </trkpt>
      <trkpt lat="43.19219" lon="5.79669">
        <ele>225</ele>
        <time>2016-04-10T07:55:29.000Z</time>
      </trkpt>
      <trkpt lat="43.19215" lon="5.79671">
        <ele>225.39999389648</ele>
        <time>2016-04-10T07:55:30.000Z</time>
      </trkpt>
      <trkpt lat="43.19204" lon="5.79672">
        <ele>225</ele>
        <time>2016-04-10T07:55:32.000Z</time>
      </trkpt>
      <trkpt lat="43.19185" lon="5.79662">
        <ele>222</ele>
        <time>2016-04-10T07:55:36.000Z</time>
      </trkpt>
      <trkpt lat="43.19174" lon="5.79653">
        <ele>221</ele>
        <time>2016-04-10T07:55:39.000Z</time>
      </trkpt>
      <trkpt lat="43.19168" lon="5.79648">
        <ele>221.39999389648</ele>
        <time>2016-04-10T07:55:41.000Z</time>
      </trkpt>
      <trkpt lat="43.1914" lon="5.79623">
        <ele>224.39999389648</ele>
        <time>2016-04-10T07:55:49.000Z</time>
      </trkpt>
      <trkpt lat="43.19134" lon="5.7961">
        <ele>224.80000305176</ele>
        <time>2016-04-10T07:55:52.000Z</time>
      </trkpt>
      <trkpt lat="43.19131" lon="5.796">
        <ele>224.80000305176</ele>
        <time>2016-04-10T07:55:54.000Z</time>
      </trkpt>
      <trkpt lat="43.19128" lon="5.7959">
        <ele>224.80000305176</ele>
        <time>2016-04-10T07:55:56.000Z</time>
      </trkpt>
      <trkpt lat="43.19124" lon="5.7957">
        <ele>223.39999389648</ele>
        <time>2016-04-10T07:56:00.000Z</time>
      </trkpt>
      <trkpt lat="43.19123" lon="5.79565">
        <ele>223.19999694824</ele>
        <time>2016-04-10T07:56:01.000Z</time>
      </trkpt>
      <trkpt lat="43.19118" lon="5.7955">
        <ele>222.60000610352</ele>
        <time>2016-04-10T07:56:04.000Z</time>
      </trkpt>
      <trkpt lat="43.1911" lon="5.79529">
        <ele>222.39999389648</ele>
        <time>2016-04-10T07:56:08.000Z</time>
      </trkpt>
      <trkpt lat="43.19103" lon="5.79514">
        <ele>222.60000610352</ele>
        <time>2016-04-10T07:56:11.000Z</time>
      </trkpt>
      <trkpt lat="43.19093" lon="5.79502">
        <ele>223.39999389648</ele>
        <time>2016-04-10T07:56:15.000Z</time>
      </trkpt>
      <trkpt lat="43.19085" lon="5.79495">
        <ele>223.39999389648</ele>
        <time>2016-04-10T07:56:18.000Z</time>
      </trkpt>
      <trkpt lat="43.19079" lon="5.79492">
        <ele>223.80000305176</ele>
        <time>2016-04-10T07:56:20.000Z</time>
      </trkpt>
      <trkpt lat="43.19076" lon="5.79492">
        <ele>224</ele>
        <time>2016-04-10T07:56:22.000Z</time>
      </trkpt>
      <trkpt lat="43.19073" lon="5.79497">
        <ele>224.80000305176</ele>
        <time>2016-04-10T08:01:46.000Z</time>
      </trkpt>
      <trkpt lat="43.19065" lon="5.79502">
        <ele>226.19999694824</ele>
        <time>2016-04-10T08:01:49.000Z</time>
      </trkpt>
      <trkpt lat="43.19061" lon="5.79504">
        <ele>226.80000305176</ele>
        <time>2016-04-10T08:01:50.000Z</time>
      </trkpt>
      <trkpt lat="43.19045" lon="5.79509">
        <ele>228.80000305176</ele>
        <time>2016-04-10T08:01:54.000Z</time>
      </trkpt>
      <trkpt lat="43.19042" lon="5.79508">
        <ele>229</ele>
        <time>2016-04-10T08:01:55.000Z</time>
      </trkpt>
      <trkpt lat="43.1903" lon="5.79501">
        <ele>229.39999389648</ele>
        <time>2016-04-10T08:01:58.000Z</time>
      </trkpt>
      <trkpt lat="43.19022" lon="5.79495">
        <ele>229.60000610352</ele>
        <time>2016-04-10T08:02:00.000Z</time>
      </trkpt>
      <trkpt lat="43.19003" lon="5.79481">
        <ele>230</ele>
        <time>2016-04-10T08:02:05.000Z</time>
      </trkpt>
      <trkpt lat="43.18995" lon="5.79479">
        <ele>230.60000610352</ele>
        <time>2016-04-10T08:02:07.000Z</time>
      </trkpt>
      <trkpt lat="43.1898" lon="5.79483">
        <ele>232.60000610352</ele>
        <time>2016-04-10T08:02:11.000Z</time>
      </trkpt>
      <trkpt lat="43.18976" lon="5.79484">
        <ele>233.19999694824</ele>
        <time>2016-04-10T08:02:12.000Z</time>
      </trkpt>
      <trkpt lat="43.18968" lon="5.79486">
        <ele>234.19999694824</ele>
        <time>2016-04-10T08:02:14.000Z</time>
      </trkpt>
      <trkpt lat="43.18955" lon="5.79485">
        <ele>235.39999389648</ele>
        <time>2016-04-10T08:02:17.000Z</time>
      </trkpt>
      <trkpt lat="43.18951" lon="5.79483">
        <ele>235.80000305176</ele>
        <time>2016-04-10T08:02:18.000Z</time>
      </trkpt>
      <trkpt lat="43.18924" lon="5.79472">
        <ele>237</ele>
        <time>2016-04-10T08:02:24.000Z</time>
      </trkpt>
      <trkpt lat="43.1891" lon="5.79467">
        <ele>236.19999694824</ele>
        <time>2016-04-10T08:02:27.000Z</time>
      </trkpt>
      <trkpt lat="43.18879" lon="5.79456">
        <ele>234.39999389648</ele>
        <time>2016-04-10T08:02:35.000Z</time>
      </trkpt>
      <trkpt lat="43.18847" lon="5.79447">
        <ele>232.80000305176</ele>
        <time>2016-04-10T08:02:41.000Z</time>
      </trkpt>
      <trkpt lat="43.18815" lon="5.79437">
        <ele>229.60000610352</ele>
        <time>2016-04-10T08:02:47.000Z</time>
      </trkpt>
      <trkpt lat="43.18811" lon="5.79437">
        <ele>229.39999389648</ele>
        <time>2016-04-10T08:02:48.000Z</time>
      </trkpt>
      <trkpt lat="43.18801" lon="5.79449">
        <ele>228.60000610352</ele>
        <time>2016-04-10T08:02:51.000Z</time>
      </trkpt>
      <trkpt lat="43.18795" lon="5.79468">
        <ele>228.60000610352</ele>
        <time>2016-04-10T08:02:54.000Z</time>
      </trkpt>
      <trkpt lat="43.18789" lon="5.79481">
        <ele>229.19999694824</ele>
        <time>2016-04-10T08:02:56.000Z</time>
      </trkpt>
      <trkpt lat="43.18781" lon="5.79492">
        <ele>229.39999389648</ele>
        <time>2016-04-10T08:02:58.000Z</time>
      </trkpt>
      <trkpt lat="43.1877" lon="5.79509">
        <ele>229</ele>
        <time>2016-04-10T08:03:01.000Z</time>
      </trkpt>
      <trkpt lat="43.18763" lon="5.79521">
        <ele>229</ele>
        <time>2016-04-10T08:03:03.000Z</time>
      </trkpt>
      <trkpt lat="43.18748" lon="5.79539">
        <ele>228.80000305176</ele>
        <time>2016-04-10T08:03:06.000Z</time>
      </trkpt>
      <trkpt lat="43.18742" lon="5.79544">
        <ele>228.19999694824</ele>
        <time>2016-04-10T08:03:07.000Z</time>
      </trkpt>
      <trkpt lat="43.18729" lon="5.79553">
        <ele>226.80000305176</ele>
        <time>2016-04-10T08:03:09.000Z</time>
      </trkpt>
      <trkpt lat="43.18706" lon="5.7957">
        <ele>225</ele>
        <time>2016-04-10T08:03:13.000Z</time>
      </trkpt>
      <trkpt lat="43.187" lon="5.79574">
        <ele>224.60000610352</ele>
        <time>2016-04-10T08:03:14.000Z</time>
      </trkpt>
      <trkpt lat="43.18666" lon="5.79604">
        <ele>223.19999694824</ele>
        <time>2016-04-10T08:03:21.000Z</time>
      </trkpt>
      <trkpt lat="43.18648" lon="5.79621">
        <ele>222.19999694824</ele>
        <time>2016-04-10T08:03:25.000Z</time>
      </trkpt>
      <trkpt lat="43.18638" lon="5.79633">
        <ele>221.39999389648</ele>
        <time>2016-04-10T08:03:28.000Z</time>
      </trkpt>
      <trkpt lat="43.18632" lon="5.79643">
        <ele>220.80000305176</ele>
        <time>2016-04-10T08:03:30.000Z</time>
      </trkpt>
      <trkpt lat="43.18626" lon="5.7966">
        <ele>220.19999694824</ele>
        <time>2016-04-10T08:03:33.000Z</time>
      </trkpt>
      <trkpt lat="43.18625" lon="5.79673">
        <ele>220.39999389648</ele>
        <time>2016-04-10T08:03:35.000Z</time>
      </trkpt>
      <trkpt lat="43.18623" lon="5.79695">
        <ele>221.80000305176</ele>
        <time>2016-04-10T08:03:38.000Z</time>
      </trkpt>
      <trkpt lat="43.18622" lon="5.79719">
        <ele>223.39999389648</ele>
        <time>2016-04-10T08:03:42.000Z</time>
      </trkpt>
      <trkpt lat="43.18621" lon="5.79725">
        <ele>223.60000610352</ele>
        <time>2016-04-10T08:03:43.000Z</time>
      </trkpt>
      <trkpt lat="43.18607" lon="5.7974">
        <ele>222.80000305176</ele>
        <time>2016-04-10T08:03:47.000Z</time>
      </trkpt>
      <trkpt lat="43.18604" lon="5.79743">
        <ele>222.60000610352</ele>
        <time>2016-04-10T08:03:48.000Z</time>
      </trkpt>
      <trkpt lat="43.18582" lon="5.79757">
        <ele>222.19999694824</ele>
        <time>2016-04-10T08:03:54.000Z</time>
      </trkpt>
      <trkpt lat="43.18563" lon="5.79762">
        <ele>221.60000610352</ele>
        <time>2016-04-10T08:04:00.000Z</time>
      </trkpt>
      <trkpt lat="43.18539" lon="5.79763">
        <ele>220.39999389648</ele>
        <time>2016-04-10T08:04:05.000Z</time>
      </trkpt>
      <trkpt lat="43.1853" lon="5.79765">
        <ele>220.19999694824</ele>
        <time>2016-04-10T08:04:07.000Z</time>
      </trkpt>
      <trkpt lat="43.18527" lon="5.79768">
        <ele>220.19999694824</ele>
        <time>2016-04-10T08:04:09.000Z</time>
      </trkpt>
      <trkpt lat="43.18528" lon="5.79767">
        <ele>220.19999694824</ele>
        <time>2016-04-10T08:05:14.000Z</time>
      </trkpt>
      <trkpt lat="43.18525" lon="5.79768">
        <ele>220.19999694824</ele>
        <time>2016-04-10T08:05:15.000Z</time>
      </trkpt>
      <trkpt lat="43.18511" lon="5.79776">
        <ele>220.19999694824</ele>
        <time>2016-04-10T08:05:19.000Z</time>
      </trkpt>
      <trkpt lat="43.18486" lon="5.79797">
        <ele>220.39999389648</ele>
        <time>2016-04-10T08:05:27.000Z</time>
      </trkpt>
      <trkpt lat="43.18473" lon="5.79821">
        <ele>221.60000610352</ele>
        <time>2016-04-10T08:05:32.000Z</time>
      </trkpt>
      <trkpt lat="43.18457" lon="5.79867">
        <ele>224.80000305176</ele>
        <time>2016-04-10T08:05:39.000Z</time>
      </trkpt>
      <trkpt lat="43.18456" lon="5.79873">
        <ele>225.19999694824</ele>
        <time>2016-04-10T08:05:40.000Z</time>
      </trkpt>
      <trkpt lat="43.18443" lon="5.79896">
        <ele>226.80000305176</ele>
        <time>2016-04-10T08:05:45.000Z</time>
      </trkpt>
      <trkpt lat="43.1844" lon="5.799">
        <ele>227</ele>
        <time>2016-04-10T08:05:46.000Z</time>
      </trkpt>
      <trkpt lat="43.18421" lon="5.79911">
        <ele>227.80000305176</ele>
        <time>2016-04-10T08:05:50.000Z</time>
      </trkpt>
      <trkpt lat="43.1841" lon="5.79913">
        <ele>228.60000610352</ele>
        <time>2016-04-10T08:05:52.000Z</time>
      </trkpt>
      <trkpt lat="43.18394" lon="5.79914">
        <ele>229.39999389648</ele>
        <time>2016-04-10T08:05:55.000Z</time>
      </trkpt>
      <trkpt lat="43.18366" lon="5.79913">
        <ele>230.60000610352</ele>
        <time>2016-04-10T08:06:01.000Z</time>
      </trkpt>
      <trkpt lat="43.18357" lon="5.79898">
        <ele>229.39999389648</ele>
        <time>2016-04-10T08:06:04.000Z</time>
      </trkpt>
      <trkpt lat="43.18354" lon="5.79892">
        <ele>229</ele>
        <time>2016-04-10T08:06:05.000Z</time>
      </trkpt>
      <trkpt lat="43.18352" lon="5.79886">
        <ele>228.39999389648</ele>
        <time>2016-04-10T08:06:06.000Z</time>
      </trkpt>
      <trkpt lat="43.18343" lon="5.79867">
        <ele>227</ele>
        <time>2016-04-10T08:06:10.000Z</time>
      </trkpt>
      <trkpt lat="43.18326" lon="5.79837">
        <ele>225.19999694824</ele>
        <time>2016-04-10T08:06:17.000Z</time>
      </trkpt>
      <trkpt lat="43.18305" lon="5.79824">
        <ele>225.19999694824</ele>
        <time>2016-04-10T08:06:22.000Z</time>
      </trkpt>
      <trkpt lat="43.18295" lon="5.79825">
        <ele>225.80000305176</ele>
        <time>2016-04-10T08:06:24.000Z</time>
      </trkpt>
      <trkpt lat="43.18275" lon="5.79824">
        <ele>227.39999389648</ele>
        <time>2016-04-10T08:06:28.000Z</time>
      </trkpt>
      <trkpt lat="43.18256" lon="5.79816">
        <ele>228.19999694824</ele>
        <time>2016-04-10T08:06:32.000Z</time>
      </trkpt>
      <trkpt lat="43.18248" lon="5.79811">
        <ele>227.80000305176</ele>
        <time>2016-04-10T08:06:34.000Z</time>
      </trkpt>
      <trkpt lat="43.18236" lon="5.79801">
        <ele>227</ele>
        <time>2016-04-10T08:06:37.000Z</time>
      </trkpt>
      <trkpt lat="43.1822" lon="5.7979">
        <ele>226.60000610352</ele>
        <time>2016-04-10T08:06:41.000Z</time>
      </trkpt>
      <trkpt lat="43.18193" lon="5.79775">
        <ele>226.19999694824</ele>
        <time>2016-04-10T08:06:47.000Z</time>
      </trkpt>
      <trkpt lat="43.18183" lon="5.79772">
        <ele>226.39999389648</ele>
        <time>2016-04-10T08:06:49.000Z</time>
      </trkpt>
      <trkpt lat="43.18167" lon="5.7978">
        <ele>227.60000610352</ele>
        <time>2016-04-10T08:06:53.000Z</time>
      </trkpt>
      <trkpt lat="43.18162" lon="5.79797">
        <ele>230.19999694824</ele>
        <time>2016-04-10T08:06:56.000Z</time>
      </trkpt>
      <trkpt lat="43.1816" lon="5.79803">
        <ele>231.39999389648</ele>
        <time>2016-04-10T08:06:57.000Z</time>
      </trkpt>
      <trkpt lat="43.18153" lon="5.79814">
        <ele>233.60000610352</ele>
        <time>2016-04-10T08:07:00.000Z</time>
      </trkpt>
      <trkpt lat="43.1815" lon="5.79816">
        <ele>234</ele>
        <time>2016-04-10T08:07:01.000Z</time>
      </trkpt>
      <trkpt lat="43.18145" lon="5.79816">
        <ele>234.39999389648</ele>
        <time>2016-04-10T08:07:02.000Z</time>
      </trkpt>
      <trkpt lat="43.18136" lon="5.79817">
        <ele>235</ele>
        <time>2016-04-10T08:07:04.000Z</time>
      </trkpt>
      <trkpt lat="43.1813" lon="5.79817">
        <ele>235.19999694824</ele>
        <time>2016-04-10T08:07:05.000Z</time>
      </trkpt>
      <trkpt lat="43.1811" lon="5.79816">
        <ele>236</ele>
        <time>2016-04-10T08:07:09.000Z</time>
      </trkpt>
      <trkpt lat="43.18096" lon="5.79816">
        <ele>237.19999694824</ele>
        <time>2016-04-10T08:07:12.000Z</time>
      </trkpt>
      <trkpt lat="43.18091" lon="5.79815">
        <ele>237.60000610352</ele>
        <time>2016-04-10T08:07:13.000Z</time>
      </trkpt>
      <trkpt lat="43.18078" lon="5.79818">
        <ele>240.39999389648</ele>
        <time>2016-04-10T08:07:16.000Z</time>
      </trkpt>
      <trkpt lat="43.18059" lon="5.79822">
        <ele>244</ele>
        <time>2016-04-10T08:07:20.000Z</time>
      </trkpt>
      <trkpt lat="43.18055" lon="5.79823">
        <ele>245</ele>
        <time>2016-04-10T08:07:21.000Z</time>
      </trkpt>
      <trkpt lat="43.18046" lon="5.79824">
        <ele>246.60000610352</ele>
        <time>2016-04-10T08:07:23.000Z</time>
      </trkpt>
      <trkpt lat="43.18033" lon="5.79818">
        <ele>247.19999694824</ele>
        <time>2016-04-10T08:07:26.000Z</time>
      </trkpt>
      <trkpt lat="43.18029" lon="5.79814">
        <ele>247</ele>
        <time>2016-04-10T08:07:27.000Z</time>
      </trkpt>
      <trkpt lat="43.18025" lon="5.79809">
        <ele>246.60000610352</ele>
        <time>2016-04-10T08:07:28.000Z</time>
      </trkpt>
      <trkpt lat="43.18014" lon="5.79795">
        <ele>245.39999389648</ele>
        <time>2016-04-10T08:07:31.000Z</time>
      </trkpt>
      <trkpt lat="43.18012" lon="5.7979">
        <ele>245</ele>
        <time>2016-04-10T08:07:32.000Z</time>
      </trkpt>
      <trkpt lat="43.18003" lon="5.79778">
        <ele>243.19999694824</ele>
        <time>2016-04-10T08:07:35.000Z</time>
      </trkpt>
      <trkpt lat="43.1799" lon="5.7977">
        <ele>242.60000610352</ele>
        <time>2016-04-10T08:07:38.000Z</time>
      </trkpt>
      <trkpt lat="43.17981" lon="5.79765">
        <ele>242.39999389648</ele>
        <time>2016-04-10T08:07:40.000Z</time>
      </trkpt>
      <trkpt lat="43.17957" lon="5.79749">
        <ele>241.19999694824</ele>
        <time>2016-04-10T08:07:46.000Z</time>
      </trkpt>
      <trkpt lat="43.17927" lon="5.79733">
        <ele>240.19999694824</ele>
        <time>2016-04-10T08:07:53.000Z</time>
      </trkpt>
      <trkpt lat="43.17919" lon="5.79735">
        <ele>240.39999389648</ele>
        <time>2016-04-10T08:07:55.000Z</time>
      </trkpt>
      <trkpt lat="43.17912" lon="5.7974">
        <ele>241.19999694824</ele>
        <time>2016-04-10T08:07:57.000Z</time>
      </trkpt>
      <trkpt lat="43.17901" lon="5.79749">
        <ele>243</ele>
        <time>2016-04-10T08:08:00.000Z</time>
      </trkpt>
      <trkpt lat="43.17897" lon="5.79753">
        <ele>243.80000305176</ele>
        <time>2016-04-10T08:08:01.000Z</time>
      </trkpt>
      <trkpt lat="43.17894" lon="5.79757">
        <ele>244.39999389648</ele>
        <time>2016-04-10T08:08:02.000Z</time>
      </trkpt>
      <trkpt lat="43.17885" lon="5.79762">
        <ele>245.39999389648</ele>
        <time>2016-04-10T08:08:04.000Z</time>
      </trkpt>
      <trkpt lat="43.17876" lon="5.79763">
        <ele>245.19999694824</ele>
        <time>2016-04-10T08:08:06.000Z</time>
      </trkpt>
      <trkpt lat="43.17857" lon="5.79757">
        <ele>243.80000305176</ele>
        <time>2016-04-10T08:08:10.000Z</time>
      </trkpt>
      <trkpt lat="43.17852" lon="5.79755">
        <ele>243.39999389648</ele>
        <time>2016-04-10T08:08:11.000Z</time>
      </trkpt>
      <trkpt lat="43.17835" lon="5.7975">
        <ele>242.19999694824</ele>
        <time>2016-04-10T08:08:15.000Z</time>
      </trkpt>
      <trkpt lat="43.17822" lon="5.79748">
        <ele>241.39999389648</ele>
        <time>2016-04-10T08:08:18.000Z</time>
      </trkpt>
      <trkpt lat="43.17789" lon="5.79748">
        <ele>240.80000305176</ele>
        <time>2016-04-10T08:08:25.000Z</time>
      </trkpt>
      <trkpt lat="43.17752" lon="5.79748">
        <ele>239.19999694824</ele>
        <time>2016-04-10T08:08:33.000Z</time>
      </trkpt>
      <trkpt lat="43.17734" lon="5.79746">
        <ele>237.19999694824</ele>
        <time>2016-04-10T08:08:37.000Z</time>
      </trkpt>
      <trkpt lat="43.1773" lon="5.79748">
        <ele>237.19999694824</ele>
        <time>2016-04-10T08:08:38.000Z</time>
      </trkpt>
      <trkpt lat="43.17727" lon="5.79753">
        <ele>237.60000610352</ele>
        <time>2016-04-10T08:08:39.000Z</time>
      </trkpt>
      <trkpt lat="43.17721" lon="5.7977">
        <ele>239.39999389648</ele>
        <time>2016-04-10T08:08:42.000Z</time>
      </trkpt>
      <trkpt lat="43.17719" lon="5.79776">
        <ele>239.80000305176</ele>
        <time>2016-04-10T08:08:43.000Z</time>
      </trkpt>
      <trkpt lat="43.17698" lon="5.79819">
        <ele>243</ele>
        <time>2016-04-10T08:08:51.000Z</time>
      </trkpt>
      <trkpt lat="43.17677" lon="5.79859">
        <ele>247.60000610352</ele>
        <time>2016-04-10T08:08:59.000Z</time>
      </trkpt>
      <trkpt lat="43.17668" lon="5.79873">
        <ele>252.19999694824</ele>
        <time>2016-04-10T08:09:02.000Z</time>
      </trkpt>
      <trkpt lat="43.17655" lon="5.79884">
        <ele>253.80000305176</ele>
        <time>2016-04-10T08:09:05.000Z</time>
      </trkpt>
      <trkpt lat="43.17641" lon="5.79901">
        <ele>256</ele>
        <time>2016-04-10T08:09:09.000Z</time>
      </trkpt>
      <trkpt lat="43.17639" lon="5.79906">
        <ele>256.79998779297</ele>
        <time>2016-04-10T08:09:10.000Z</time>
      </trkpt>
      <trkpt lat="43.17634" lon="5.79916">
        <ele>258.20001220703</ele>
        <time>2016-04-10T08:09:12.000Z</time>
      </trkpt>
      <trkpt lat="43.17625" lon="5.7994">
        <ele>259</ele>
        <time>2016-04-10T08:09:18.000Z</time>
      </trkpt>
      <trkpt lat="43.17623" lon="5.79951">
        <ele>258.79998779297</ele>
        <time>2016-04-10T08:09:21.000Z</time>
      </trkpt>
      <trkpt lat="43.17621" lon="5.79958">
        <ele>258.60000610352</ele>
        <time>2016-04-10T08:09:23.000Z</time>
      </trkpt>
      <trkpt lat="43.17615" lon="5.79968">
        <ele>258</ele>
        <time>2016-04-10T08:09:25.000Z</time>
      </trkpt>
      <trkpt lat="43.1761" lon="5.79977">
        <ele>257.60000610352</ele>
        <time>2016-04-10T08:09:27.000Z</time>
      </trkpt>
      <trkpt lat="43.17599" lon="5.79992">
        <ele>256.79998779297</ele>
        <time>2016-04-10T08:09:30.000Z</time>
      </trkpt>
      <trkpt lat="43.17592" lon="5.80003">
        <ele>256.79998779297</ele>
        <time>2016-04-10T08:09:33.000Z</time>
      </trkpt>
      <trkpt lat="43.17591" lon="5.80005">
        <ele>257.20001220703</ele>
        <time>2016-04-10T08:09:34.000Z</time>
      </trkpt>
      <trkpt lat="43.17587" lon="5.80008">
        <ele>258</ele>
        <time>2016-04-10T08:09:35.000Z</time>
      </trkpt>
      <trkpt lat="43.17583" lon="5.80008">
        <ele>258.60000610352</ele>
        <time>2016-04-10T08:09:36.000Z</time>
      </trkpt>
      <trkpt lat="43.17576" lon="5.80007">
        <ele>260</ele>
        <time>2016-04-10T08:09:38.000Z</time>
      </trkpt>
      <trkpt lat="43.17572" lon="5.80006">
        <ele>260.79998779297</ele>
        <time>2016-04-10T08:09:39.000Z</time>
      </trkpt>
      <trkpt lat="43.17556" lon="5.80002">
        <ele>263.79998779297</ele>
        <time>2016-04-10T08:09:44.000Z</time>
      </trkpt>
      <trkpt lat="43.17548" lon="5.80004">
        <ele>265.39999389648</ele>
        <time>2016-04-10T08:09:47.000Z</time>
      </trkpt>
      <trkpt lat="43.17548" lon="5.80008">
        <ele>265.39999389648</ele>
        <time>2016-04-10T08:10:10.000Z</time>
      </trkpt>
      <trkpt lat="43.17547" lon="5.80018">
        <ele>264</ele>
        <time>2016-04-10T08:10:13.000Z</time>
      </trkpt>
      <trkpt lat="43.17544" lon="5.80026">
        <ele>262.79998779297</ele>
        <time>2016-04-10T08:10:15.000Z</time>
      </trkpt>
      <trkpt lat="43.17538" lon="5.80037">
        <ele>261.20001220703</ele>
        <time>2016-04-10T08:10:18.000Z</time>
      </trkpt>
      <trkpt lat="43.17534" lon="5.80039">
        <ele>260.79998779297</ele>
        <time>2016-04-10T08:10:19.000Z</time>
      </trkpt>
      <trkpt lat="43.17522" lon="5.80045">
        <ele>260.39999389648</ele>
        <time>2016-04-10T08:10:22.000Z</time>
      </trkpt>
      <trkpt lat="43.17511" lon="5.80049">
        <ele>259.79998779297</ele>
        <time>2016-04-10T08:10:25.000Z</time>
      </trkpt>
      <trkpt lat="43.17501" lon="5.8005">
        <ele>260.60000610352</ele>
        <time>2016-04-10T08:10:28.000Z</time>
      </trkpt>
      <trkpt lat="43.17498" lon="5.80049">
        <ele>261.20001220703</ele>
        <time>2016-04-10T08:10:30.000Z</time>
      </trkpt>
      <trkpt lat="43.17492" lon="5.80046">
        <ele>262</ele>
        <time>2016-04-10T08:10:33.000Z</time>
      </trkpt>
      <trkpt lat="43.17472" lon="5.80047">
        <ele>264.20001220703</ele>
        <time>2016-04-10T08:10:38.000Z</time>
      </trkpt>
      <trkpt lat="43.17463" lon="5.80051">
        <ele>264.60000610352</ele>
        <time>2016-04-10T08:10:40.000Z</time>
      </trkpt>
      <trkpt lat="43.17451" lon="5.80066">
        <ele>265.39999389648</ele>
        <time>2016-04-10T08:10:44.000Z</time>
      </trkpt>
      <trkpt lat="43.17446" lon="5.80089">
        <ele>264.20001220703</ele>
        <time>2016-04-10T08:10:48.000Z</time>
      </trkpt>
      <trkpt lat="43.17451" lon="5.80109">
        <ele>262</ele>
        <time>2016-04-10T08:10:51.000Z</time>
      </trkpt>
      <trkpt lat="43.17452" lon="5.80126">
        <ele>260</ele>
        <time>2016-04-10T08:10:53.000Z</time>
      </trkpt>
      <trkpt lat="43.17454" lon="5.80133">
        <ele>259.20001220703</ele>
        <time>2016-04-10T08:10:54.000Z</time>
      </trkpt>
      <trkpt lat="43.17473" lon="5.80172">
        <ele>261.79998779297</ele>
        <time>2016-04-10T08:11:01.000Z</time>
      </trkpt>
      <trkpt lat="43.17476" lon="5.80178">
        <ele>262.20001220703</ele>
        <time>2016-04-10T08:11:02.000Z</time>
      </trkpt>
      <trkpt lat="43.17482" lon="5.80186">
        <ele>263</ele>
        <time>2016-04-10T08:11:04.000Z</time>
      </trkpt>
      <trkpt lat="43.17498" lon="5.80207">
        <ele>264.79998779297</ele>
        <time>2016-04-10T08:11:09.000Z</time>
      </trkpt>
      <trkpt lat="43.17502" lon="5.80218">
        <ele>265.20001220703</ele>
        <time>2016-04-10T08:11:11.000Z</time>
      </trkpt>
      <trkpt lat="43.17503" lon="5.80223">
        <ele>265.39999389648</ele>
        <time>2016-04-10T08:11:12.000Z</time>
      </trkpt>
      <trkpt lat="43.17503" lon="5.80227">
        <ele>266</ele>
        <time>2016-04-10T08:11:13.000Z</time>
      </trkpt>
      <trkpt lat="43.17502" lon="5.80235">
        <ele>267</ele>
        <time>2016-04-10T08:11:15.000Z</time>
      </trkpt>
      <trkpt lat="43.1749" lon="5.80246">
        <ele>267.60000610352</ele>
        <time>2016-04-10T08:11:18.000Z</time>
      </trkpt>
      <trkpt lat="43.17487" lon="5.8025">
        <ele>267.79998779297</ele>
        <time>2016-04-10T08:11:19.000Z</time>
      </trkpt>
      <trkpt lat="43.17474" lon="5.80267">
        <ele>269</ele>
        <time>2016-04-10T08:11:23.000Z</time>
      </trkpt>
      <trkpt lat="43.17469" lon="5.8028">
        <ele>269.60000610352</ele>
        <time>2016-04-10T08:11:26.000Z</time>
      </trkpt>
      <trkpt lat="43.17468" lon="5.80286">
        <ele>269.79998779297</ele>
        <time>2016-04-10T08:11:27.000Z</time>
      </trkpt>
      <trkpt lat="43.17465" lon="5.803">
        <ele>270.79998779297</ele>
        <time>2016-04-10T08:11:30.000Z</time>
      </trkpt>
      <trkpt lat="43.17463" lon="5.8031">
        <ele>271.79998779297</ele>
        <time>2016-04-10T08:11:32.000Z</time>
      </trkpt>
      <trkpt lat="43.17462" lon="5.80319">
        <ele>273.20001220703</ele>
        <time>2016-04-10T08:11:34.000Z</time>
      </trkpt>
      <trkpt lat="43.17459" lon="5.80327">
        <ele>274</ele>
        <time>2016-04-10T08:11:36.000Z</time>
      </trkpt>
      <trkpt lat="43.17452" lon="5.80339">
        <ele>274.60000610352</ele>
        <time>2016-04-10T08:11:39.000Z</time>
      </trkpt>
      <trkpt lat="43.17448" lon="5.80344">
        <ele>274.39999389648</ele>
        <time>2016-04-10T08:11:40.000Z</time>
      </trkpt>
      <trkpt lat="43.17442" lon="5.80353">
        <ele>274.60000610352</ele>
        <time>2016-04-10T08:11:42.000Z</time>
      </trkpt>
      <trkpt lat="43.17434" lon="5.80371">
        <ele>275.60000610352</ele>
        <time>2016-04-10T08:11:46.000Z</time>
      </trkpt>
      <trkpt lat="43.17433" lon="5.80376">
        <ele>276.20001220703</ele>
        <time>2016-04-10T08:11:47.000Z</time>
      </trkpt>
      <trkpt lat="43.17431" lon="5.80389">
        <ele>277.60000610352</ele>
        <time>2016-04-10T08:11:49.000Z</time>
      </trkpt>
      <trkpt lat="43.17432" lon="5.80409">
        <ele>280.20001220703</ele>
        <time>2016-04-10T08:11:52.000Z</time>
      </trkpt>
      <trkpt lat="43.17434" lon="5.80427">
        <ele>282.79998779297</ele>
        <time>2016-04-10T08:11:55.000Z</time>
      </trkpt>
      <trkpt lat="43.17437" lon="5.80435">
        <ele>284.20001220703</ele>
        <time>2016-04-10T08:11:56.000Z</time>
      </trkpt>
      <trkpt lat="43.17441" lon="5.80447">
        <ele>286.39999389648</ele>
        <time>2016-04-10T08:11:58.000Z</time>
      </trkpt>
      <trkpt lat="43.17444" lon="5.8046">
        <ele>288.20001220703</ele>
        <time>2016-04-10T08:12:00.000Z</time>
      </trkpt>
      <trkpt lat="43.17445" lon="5.80466">
        <ele>289.20001220703</ele>
        <time>2016-04-10T08:12:01.000Z</time>
      </trkpt>
      <trkpt lat="43.17449" lon="5.80483">
        <ele>290.79998779297</ele>
        <time>2016-04-10T08:12:04.000Z</time>
      </trkpt>
      <trkpt lat="43.17454" lon="5.80507">
        <ele>292.60000610352</ele>
        <time>2016-04-10T08:12:08.000Z</time>
      </trkpt>
      <trkpt lat="43.1746" lon="5.8053">
        <ele>295.20001220703</ele>
        <time>2016-04-10T08:12:12.000Z</time>
      </trkpt>
      <trkpt lat="43.17461" lon="5.80541">
        <ele>296.20001220703</ele>
        <time>2016-04-10T08:12:14.000Z</time>
      </trkpt>
      <trkpt lat="43.17463" lon="5.80555">
        <ele>297.60000610352</ele>
        <time>2016-04-10T08:12:17.000Z</time>
      </trkpt>
      <trkpt lat="43.17465" lon="5.80565">
        <ele>297.60000610352</ele>
        <time>2016-04-10T08:12:19.000Z</time>
      </trkpt>
      <trkpt lat="43.17466" lon="5.80569">
        <ele>297.60000610352</ele>
        <time>2016-04-10T08:12:20.000Z</time>
      </trkpt>
      <trkpt lat="43.17468" lon="5.80578">
        <ele>297.60000610352</ele>
        <time>2016-04-10T08:12:22.000Z</time>
      </trkpt>
      <trkpt lat="43.1747" lon="5.80588">
        <ele>297.60000610352</ele>
        <time>2016-04-10T08:12:24.000Z</time>
      </trkpt>
      <trkpt lat="43.17473" lon="5.80597">
        <ele>297.60000610352</ele>
        <time>2016-04-10T08:12:26.000Z</time>
      </trkpt>
      <trkpt lat="43.17474" lon="5.80602">
        <ele>297.60000610352</ele>
        <time>2016-04-10T08:12:27.000Z</time>
      </trkpt>
      <trkpt lat="43.17475" lon="5.80608">
        <ele>298</ele>
        <time>2016-04-10T08:12:28.000Z</time>
      </trkpt>
      <trkpt lat="43.17477" lon="5.80621">
        <ele>298.39999389648</ele>
        <time>2016-04-10T08:12:30.000Z</time>
      </trkpt>
      <trkpt lat="43.1748" lon="5.80634">
        <ele>298.79998779297</ele>
        <time>2016-04-10T08:12:32.000Z</time>
      </trkpt>
      <trkpt lat="43.17482" lon="5.80646">
        <ele>298.60000610352</ele>
        <time>2016-04-10T08:12:34.000Z</time>
      </trkpt>
      <trkpt lat="43.17482" lon="5.80651">
        <ele>298.20001220703</ele>
        <time>2016-04-10T08:12:35.000Z</time>
      </trkpt>
      <trkpt lat="43.17485" lon="5.80661">
        <ele>297.60000610352</ele>
        <time>2016-04-10T08:12:37.000Z</time>
      </trkpt>
      <trkpt lat="43.1749" lon="5.80667">
        <ele>297.20001220703</ele>
        <time>2016-04-10T08:12:40.000Z</time>
      </trkpt>
      <trkpt lat="43.17491" lon="5.80667">
        <ele>297.20001220703</ele>
        <time>2016-04-10T08:12:41.000Z</time>
      </trkpt>
      <trkpt lat="43.17495" lon="5.80662">
        <ele>297.60000610352</ele>
        <time>2016-04-10T08:12:44.000Z</time>
      </trkpt>
      <trkpt lat="43.17497" lon="5.80655">
        <ele>298</ele>
        <time>2016-04-10T08:12:46.000Z</time>
      </trkpt>
      <trkpt lat="43.17499" lon="5.80646">
        <ele>298.60000610352</ele>
        <time>2016-04-10T08:12:48.000Z</time>
      </trkpt>
      <trkpt lat="43.175" lon="5.80641">
        <ele>298.79998779297</ele>
        <time>2016-04-10T08:12:49.000Z</time>
      </trkpt>
      <trkpt lat="43.17501" lon="5.80636">
        <ele>299</ele>
        <time>2016-04-10T08:12:50.000Z</time>
      </trkpt>
      <trkpt lat="43.17504" lon="5.80621">
        <ele>298.79998779297</ele>
        <time>2016-04-10T08:12:53.000Z</time>
      </trkpt>
      <trkpt lat="43.1751" lon="5.80601">
        <ele>299.39999389648</ele>
        <time>2016-04-10T08:12:57.000Z</time>
      </trkpt>
      <trkpt lat="43.17514" lon="5.80593">
        <ele>300</ele>
        <time>2016-04-10T08:12:59.000Z</time>
      </trkpt>
      <trkpt lat="43.17519" lon="5.80589">
        <ele>300.79998779297</ele>
        <time>2016-04-10T08:13:01.000Z</time>
      </trkpt>
      <trkpt lat="43.17524" lon="5.80588">
        <ele>301.79998779297</ele>
        <time>2016-04-10T08:13:03.000Z</time>
      </trkpt>
      <trkpt lat="43.17527" lon="5.8059">
        <ele>302.20001220703</ele>
        <time>2016-04-10T08:13:04.000Z</time>
      </trkpt>
      <trkpt lat="43.1753" lon="5.80592">
        <ele>302.79998779297</ele>
        <time>2016-04-10T08:13:05.000Z</time>
      </trkpt>
      <trkpt lat="43.17537" lon="5.80595">
        <ele>303.79998779297</ele>
        <time>2016-04-10T08:13:07.000Z</time>
      </trkpt>
      <trkpt lat="43.17547" lon="5.80598">
        <ele>305.60000610352</ele>
        <time>2016-04-10T08:13:10.000Z</time>
      </trkpt>
      <trkpt lat="43.1755" lon="5.80598">
        <ele>306</ele>
        <time>2016-04-10T08:13:11.000Z</time>
      </trkpt>
      <trkpt lat="43.17554" lon="5.80597">
        <ele>306.79998779297</ele>
        <time>2016-04-10T08:13:13.000Z</time>
      </trkpt>
      <trkpt lat="43.17556" lon="5.80592">
        <ele>307.60000610352</ele>
        <time>2016-04-10T08:15:30.000Z</time>
      </trkpt>
      <trkpt lat="43.17561" lon="5.80586">
        <ele>309</ele>
        <time>2016-04-10T08:15:33.000Z</time>
      </trkpt>
      <trkpt lat="43.17572" lon="5.80568">
        <ele>312.39999389648</ele>
        <time>2016-04-10T08:15:38.000Z</time>
      </trkpt>
      <trkpt lat="43.1758" lon="5.80568">
        <ele>314</ele>
        <time>2016-04-10T08:15:40.000Z</time>
      </trkpt>
      <trkpt lat="43.17587" lon="5.80571">
        <ele>315.39999389648</ele>
        <time>2016-04-10T08:15:42.000Z</time>
      </trkpt>
      <trkpt lat="43.17591" lon="5.80573">
        <ele>316</ele>
        <time>2016-04-10T08:15:43.000Z</time>
      </trkpt>
      <trkpt lat="43.17596" lon="5.80579">
        <ele>316.79998779297</ele>
        <time>2016-04-10T08:15:45.000Z</time>
      </trkpt>
      <trkpt lat="43.17596" lon="5.80585">
        <ele>316.60000610352</ele>
        <time>2016-04-10T08:15:46.000Z</time>
      </trkpt>
      <trkpt lat="43.17596" lon="5.8059">
        <ele>316.20001220703</ele>
        <time>2016-04-10T08:15:47.000Z</time>
      </trkpt>
      <trkpt lat="43.17598" lon="5.80602">
        <ele>316</ele>
        <time>2016-04-10T08:15:49.000Z</time>
      </trkpt>
      <trkpt lat="43.17599" lon="5.80617">
        <ele>315.20001220703</ele>
        <time>2016-04-10T08:15:51.000Z</time>
      </trkpt>
      <trkpt lat="43.17599" lon="5.80623">
        <ele>314.79998779297</ele>
        <time>2016-04-10T08:15:52.000Z</time>
      </trkpt>
      <trkpt lat="43.176" lon="5.80629">
        <ele>314.79998779297</ele>
        <time>2016-04-10T08:15:53.000Z</time>
      </trkpt>
      <trkpt lat="43.17607" lon="5.80643">
        <ele>315</ele>
        <time>2016-04-10T08:15:56.000Z</time>
      </trkpt>
      <trkpt lat="43.17616" lon="5.80656">
        <ele>315.60000610352</ele>
        <time>2016-04-10T08:15:59.000Z</time>
      </trkpt>
      <trkpt lat="43.17625" lon="5.80668">
        <ele>316</ele>
        <time>2016-04-10T08:16:02.000Z</time>
      </trkpt>
      <trkpt lat="43.17628" lon="5.80674">
        <ele>316</ele>
        <time>2016-04-10T08:16:03.000Z</time>
      </trkpt>
      <trkpt lat="43.1763" lon="5.80679">
        <ele>316</ele>
        <time>2016-04-10T08:16:04.000Z</time>
      </trkpt>
      <trkpt lat="43.17637" lon="5.80697">
        <ele>315.60000610352</ele>
        <time>2016-04-10T08:16:07.000Z</time>
      </trkpt>
      <trkpt lat="43.17645" lon="5.8072">
        <ele>315</ele>
        <time>2016-04-10T08:16:11.000Z</time>
      </trkpt>
      <trkpt lat="43.17653" lon="5.80742">
        <ele>316.60000610352</ele>
        <time>2016-04-10T08:16:15.000Z</time>
      </trkpt>
      <trkpt lat="43.1767" lon="5.80773">
        <ele>320.79998779297</ele>
        <time>2016-04-10T08:16:22.000Z</time>
      </trkpt>
      <trkpt lat="43.17676" lon="5.80778">
        <ele>322</ele>
        <time>2016-04-10T08:16:24.000Z</time>
      </trkpt>
      <trkpt lat="43.17683" lon="5.8078">
        <ele>321.79998779297</ele>
        <time>2016-04-10T08:16:26.000Z</time>
      </trkpt>
      <trkpt lat="43.17695" lon="5.80771">
        <ele>320.39999389648</ele>
        <time>2016-04-10T08:16:30.000Z</time>
      </trkpt>
      <trkpt lat="43.17698" lon="5.80767">
        <ele>320</ele>
        <time>2016-04-10T08:16:31.000Z</time>
      </trkpt>
      <trkpt lat="43.17719" lon="5.80743">
        <ele>320.39999389648</ele>
        <time>2016-04-10T08:16:37.000Z</time>
      </trkpt>
      <trkpt lat="43.17723" lon="5.8074">
        <ele>321</ele>
        <time>2016-04-10T08:16:38.000Z</time>
      </trkpt>
      <trkpt lat="43.1774" lon="5.80728">
        <ele>323.79998779297</ele>
        <time>2016-04-10T08:16:43.000Z</time>
      </trkpt>
      <trkpt lat="43.17744" lon="5.80725">
        <ele>324.39999389648</ele>
        <time>2016-04-10T08:16:45.000Z</time>
      </trkpt>
      <trkpt lat="43.17749" lon="5.80724">
        <ele>324.79998779297</ele>
        <time>2016-04-10T08:16:50.000Z</time>
      </trkpt>
      <trkpt lat="43.17761" lon="5.80725">
        <ele>325.60000610352</ele>
        <time>2016-04-10T08:16:54.000Z</time>
      </trkpt>
      <trkpt lat="43.17765" lon="5.80725">
        <ele>325.79998779297</ele>
        <time>2016-04-10T08:16:55.000Z</time>
      </trkpt>
      <trkpt lat="43.1778" lon="5.80723">
        <ele>326.79998779297</ele>
        <time>2016-04-10T08:16:59.000Z</time>
      </trkpt>
      <trkpt lat="43.17793" lon="5.80723">
        <ele>327.39999389648</ele>
        <time>2016-04-10T08:17:02.000Z</time>
      </trkpt>
      <trkpt lat="43.1781" lon="5.80723">
        <ele>328.20001220703</ele>
        <time>2016-04-10T08:17:06.000Z</time>
      </trkpt>
      <trkpt lat="43.17824" lon="5.80726">
        <ele>328.39999389648</ele>
        <time>2016-04-10T08:17:10.000Z</time>
      </trkpt>
      <trkpt lat="43.17834" lon="5.80728">
        <ele>328.60000610352</ele>
        <time>2016-04-10T08:17:13.000Z</time>
      </trkpt>
      <trkpt lat="43.17843" lon="5.80729">
        <ele>328.79998779297</ele>
        <time>2016-04-10T08:17:15.000Z</time>
      </trkpt>
      <trkpt lat="43.17853" lon="5.80729">
        <ele>330.20001220703</ele>
        <time>2016-04-10T08:17:17.000Z</time>
      </trkpt>
      <trkpt lat="43.17866" lon="5.80729">
        <ele>332.20001220703</ele>
        <time>2016-04-10T08:17:20.000Z</time>
      </trkpt>
      <trkpt lat="43.17878" lon="5.8073">
        <ele>333.79998779297</ele>
        <time>2016-04-10T08:17:23.000Z</time>
      </trkpt>
      <trkpt lat="43.17885" lon="5.80731">
        <ele>335</ele>
        <time>2016-04-10T08:17:25.000Z</time>
      </trkpt>
      <trkpt lat="43.17893" lon="5.80733">
        <ele>336</ele>
        <time>2016-04-10T08:17:27.000Z</time>
      </trkpt>
      <trkpt lat="43.179" lon="5.80735">
        <ele>336.60000610352</ele>
        <time>2016-04-10T08:17:29.000Z</time>
      </trkpt>
      <trkpt lat="43.17907" lon="5.8074">
        <ele>337.20001220703</ele>
        <time>2016-04-10T08:17:31.000Z</time>
      </trkpt>
      <trkpt lat="43.17914" lon="5.80745">
        <ele>337.60000610352</ele>
        <time>2016-04-10T08:17:33.000Z</time>
      </trkpt>
      <trkpt lat="43.1793" lon="5.80756">
        <ele>338.39999389648</ele>
        <time>2016-04-10T08:17:37.000Z</time>
      </trkpt>
      <trkpt lat="43.17938" lon="5.80759">
        <ele>338.60000610352</ele>
        <time>2016-04-10T08:17:39.000Z</time>
      </trkpt>
      <trkpt lat="43.17941" lon="5.8076">
        <ele>339</ele>
        <time>2016-04-10T08:17:40.000Z</time>
      </trkpt>
      <trkpt lat="43.17955" lon="5.80761">
        <ele>340.39999389648</ele>
        <time>2016-04-10T08:17:43.000Z</time>
      </trkpt>
      <trkpt lat="43.17964" lon="5.8076">
        <ele>341.39999389648</ele>
        <time>2016-04-10T08:17:45.000Z</time>
      </trkpt>
      <trkpt lat="43.17968" lon="5.8076">
        <ele>341.79998779297</ele>
        <time>2016-04-10T08:17:46.000Z</time>
      </trkpt>
      <trkpt lat="43.1798" lon="5.80761">
        <ele>343</ele>
        <time>2016-04-10T08:17:49.000Z</time>
      </trkpt>
      <trkpt lat="43.17988" lon="5.80761">
        <ele>343.79998779297</ele>
        <time>2016-04-10T08:17:51.000Z</time>
      </trkpt>
      <trkpt lat="43.17992" lon="5.80762">
        <ele>344.20001220703</ele>
        <time>2016-04-10T08:17:52.000Z</time>
      </trkpt>
      <trkpt lat="43.18004" lon="5.80762">
        <ele>345.39999389648</ele>
        <time>2016-04-10T08:17:55.000Z</time>
      </trkpt>
      <trkpt lat="43.18008" lon="5.80762">
        <ele>346</ele>
        <time>2016-04-10T08:17:56.000Z</time>
      </trkpt>
      <trkpt lat="43.18017" lon="5.8076">
        <ele>346.60000610352</ele>
        <time>2016-04-10T08:17:58.000Z</time>
      </trkpt>
      <trkpt lat="43.18021" lon="5.80758">
        <ele>347</ele>
        <time>2016-04-10T08:17:59.000Z</time>
      </trkpt>
      <trkpt lat="43.18033" lon="5.80752">
        <ele>348.20001220703</ele>
        <time>2016-04-10T08:18:02.000Z</time>
      </trkpt>
      <trkpt lat="43.18037" lon="5.8075">
        <ele>348.60000610352</ele>
        <time>2016-04-10T08:18:03.000Z</time>
      </trkpt>
      <trkpt lat="43.18051" lon="5.8074">
        <ele>348.39999389648</ele>
        <time>2016-04-10T08:18:07.000Z</time>
      </trkpt>
      <trkpt lat="43.18061" lon="5.8073">
        <ele>348</ele>
        <time>2016-04-10T08:18:10.000Z</time>
      </trkpt>
      <trkpt lat="43.18069" lon="5.80723">
        <ele>347.79998779297</ele>
        <time>2016-04-10T08:18:12.000Z</time>
      </trkpt>
      <trkpt lat="43.18084" lon="5.80712">
        <ele>347.60000610352</ele>
        <time>2016-04-10T08:18:15.000Z</time>
      </trkpt>
      <trkpt lat="43.18089" lon="5.80708">
        <ele>347.39999389648</ele>
        <time>2016-04-10T08:18:16.000Z</time>
      </trkpt>
      <trkpt lat="43.181" lon="5.807">
        <ele>346.20001220703</ele>
        <time>2016-04-10T08:18:18.000Z</time>
      </trkpt>
      <trkpt lat="43.18107" lon="5.80696">
        <ele>345</ele>
        <time>2016-04-10T08:18:19.000Z</time>
      </trkpt>
      <trkpt lat="43.18113" lon="5.80694">
        <ele>343.79998779297</ele>
        <time>2016-04-10T08:18:20.000Z</time>
      </trkpt>
      <trkpt lat="43.18126" lon="5.80691">
        <ele>341.20001220703</ele>
        <time>2016-04-10T08:18:22.000Z</time>
      </trkpt>
      <trkpt lat="43.18133" lon="5.8069">
        <ele>339.79998779297</ele>
        <time>2016-04-10T08:18:23.000Z</time>
      </trkpt>
      <trkpt lat="43.18141" lon="5.80689">
        <ele>338</ele>
        <time>2016-04-10T08:18:24.000Z</time>
      </trkpt>
      <trkpt lat="43.1815" lon="5.80687">
        <ele>336.39999389648</ele>
        <time>2016-04-10T08:18:25.000Z</time>
      </trkpt>
      <trkpt lat="43.18159" lon="5.80685">
        <ele>334.79998779297</ele>
        <time>2016-04-10T08:18:26.000Z</time>
      </trkpt>
      <trkpt lat="43.18169" lon="5.80686">
        <ele>333.20001220703</ele>
        <time>2016-04-10T08:18:27.000Z</time>
      </trkpt>
      <trkpt lat="43.18185" lon="5.80688">
        <ele>330.60000610352</ele>
        <time>2016-04-10T08:18:29.000Z</time>
      </trkpt>
      <trkpt lat="43.18213" lon="5.8069">
        <ele>328.20001220703</ele>
        <time>2016-04-10T08:18:33.000Z</time>
      </trkpt>
      <trkpt lat="43.18218" lon="5.80689">
        <ele>327.79998779297</ele>
        <time>2016-04-10T08:18:34.000Z</time>
      </trkpt>
      <trkpt lat="43.18235" lon="5.80685">
        <ele>327.20001220703</ele>
        <time>2016-04-10T08:18:38.000Z</time>
      </trkpt>
      <trkpt lat="43.18257" lon="5.80671">
        <ele>328.39999389648</ele>
        <time>2016-04-10T08:18:44.000Z</time>
      </trkpt>
      <trkpt lat="43.18283" lon="5.8065">
        <ele>329.60000610352</ele>
        <time>2016-04-10T08:18:51.000Z</time>
      </trkpt>
      <trkpt lat="43.1829" lon="5.8064">
        <ele>331.60000610352</ele>
        <time>2016-04-10T08:18:53.000Z</time>
      </trkpt>
      <trkpt lat="43.183" lon="5.80622">
        <ele>330.20001220703</ele>
        <time>2016-04-10T08:18:56.000Z</time>
      </trkpt>
      <trkpt lat="43.18314" lon="5.80598">
        <ele>328.79998779297</ele>
        <time>2016-04-10T08:19:00.000Z</time>
      </trkpt>
      <trkpt lat="43.18323" lon="5.80586">
        <ele>330</ele>
        <time>2016-04-10T08:19:02.000Z</time>
      </trkpt>
      <trkpt lat="43.18333" lon="5.80578">
        <ele>331.20001220703</ele>
        <time>2016-04-10T08:19:04.000Z</time>
      </trkpt>
      <trkpt lat="43.18341" lon="5.80572">
        <ele>332.20001220703</ele>
        <time>2016-04-10T08:19:06.000Z</time>
      </trkpt>
      <trkpt lat="43.18365" lon="5.80557">
        <ele>338</ele>
        <time>2016-04-10T08:19:13.000Z</time>
      </trkpt>
      <trkpt lat="43.18376" lon="5.8055">
        <ele>340.79998779297</ele>
        <time>2016-04-10T08:19:16.000Z</time>
      </trkpt>
      <trkpt lat="43.18387" lon="5.80542">
        <ele>342.79998779297</ele>
        <time>2016-04-10T08:19:19.000Z</time>
      </trkpt>
      <trkpt lat="43.18394" lon="5.80538">
        <ele>344.20001220703</ele>
        <time>2016-04-10T08:19:21.000Z</time>
      </trkpt>
      <trkpt lat="43.18405" lon="5.8053">
        <ele>346</ele>
        <time>2016-04-10T08:19:24.000Z</time>
      </trkpt>
      <trkpt lat="43.18416" lon="5.80518">
        <ele>347.20001220703</ele>
        <time>2016-04-10T08:19:27.000Z</time>
      </trkpt>
      <trkpt lat="43.18424" lon="5.8051">
        <ele>347.79998779297</ele>
        <time>2016-04-10T08:19:29.000Z</time>
      </trkpt>
      <trkpt lat="43.1843" lon="5.80503">
        <ele>348</ele>
        <time>2016-04-10T08:19:31.000Z</time>
      </trkpt>
      <trkpt lat="43.18434" lon="5.805">
        <ele>347.79998779297</ele>
        <time>2016-04-10T08:19:32.000Z</time>
      </trkpt>
      <trkpt lat="43.18445" lon="5.80491">
        <ele>347.39999389648</ele>
        <time>2016-04-10T08:19:35.000Z</time>
      </trkpt>
      <trkpt lat="43.18457" lon="5.80483">
        <ele>350.39999389648</ele>
        <time>2016-04-10T08:19:38.000Z</time>
      </trkpt>
      <trkpt lat="43.18468" lon="5.80475">
        <ele>353.79998779297</ele>
        <time>2016-04-10T08:19:41.000Z</time>
      </trkpt>
      <trkpt lat="43.18478" lon="5.80468">
        <ele>355.60000610352</ele>
        <time>2016-04-10T08:19:44.000Z</time>
      </trkpt>
      <trkpt lat="43.18489" lon="5.80461">
        <ele>356.60000610352</ele>
        <time>2016-04-10T08:19:47.000Z</time>
      </trkpt>
      <trkpt lat="43.18496" lon="5.80457">
        <ele>357.60000610352</ele>
        <time>2016-04-10T08:19:49.000Z</time>
      </trkpt>
      <trkpt lat="43.185" lon="5.80456">
        <ele>358.20001220703</ele>
        <time>2016-04-10T08:19:50.000Z</time>
      </trkpt>
      <trkpt lat="43.18508" lon="5.80453">
        <ele>359.60000610352</ele>
        <time>2016-04-10T08:19:52.000Z</time>
      </trkpt>
      <trkpt lat="43.18515" lon="5.8045">
        <ele>359.60000610352</ele>
        <time>2016-04-10T08:19:54.000Z</time>
      </trkpt>
      <trkpt lat="43.18522" lon="5.80448">
        <ele>358.60000610352</ele>
        <time>2016-04-10T08:19:56.000Z</time>
      </trkpt>
      <trkpt lat="43.18526" lon="5.80448">
        <ele>358</ele>
        <time>2016-04-10T08:19:57.000Z</time>
      </trkpt>
      <trkpt lat="43.18537" lon="5.80447">
        <ele>357</ele>
        <time>2016-04-10T08:20:00.000Z</time>
      </trkpt>
      <trkpt lat="43.18543" lon="5.80447">
        <ele>356.60000610352</ele>
        <time>2016-04-10T08:20:02.000Z</time>
      </trkpt>
      <trkpt lat="43.18547" lon="5.80447">
        <ele>356.39999389648</ele>
        <time>2016-04-10T08:20:03.000Z</time>
      </trkpt>
      <trkpt lat="43.18558" lon="5.80445">
        <ele>355</ele>
        <time>2016-04-10T08:20:06.000Z</time>
      </trkpt>
      <trkpt lat="43.1857" lon="5.80444">
        <ele>354.39999389648</ele>
        <time>2016-04-10T08:20:09.000Z</time>
      </trkpt>
      <trkpt lat="43.18577" lon="5.80442">
        <ele>355.20001220703</ele>
        <time>2016-04-10T08:20:12.000Z</time>
      </trkpt>
      <trkpt lat="43.18581" lon="5.80444">
        <ele>355.79998779297</ele>
        <time>2016-04-10T08:20:14.000Z</time>
      </trkpt>
      <trkpt lat="43.18583" lon="5.80445">
        <ele>356.20001220703</ele>
        <time>2016-04-10T08:20:15.000Z</time>
      </trkpt>
      <trkpt lat="43.18587" lon="5.80451">
        <ele>357.20001220703</ele>
        <time>2016-04-10T08:20:22.000Z</time>
      </trkpt>
      <trkpt lat="43.18577" lon="5.80446">
        <ele>355.39999389648</ele>
        <time>2016-04-10T08:20:27.000Z</time>
      </trkpt>
      <trkpt lat="43.18575" lon="5.80446">
        <ele>355.20001220703</ele>
        <time>2016-04-10T08:20:28.000Z</time>
      </trkpt>
      <trkpt lat="43.18571" lon="5.80448">
        <ele>354.79998779297</ele>
        <time>2016-04-10T08:20:30.000Z</time>
      </trkpt>
      <trkpt lat="43.18564" lon="5.80451">
        <ele>356.20001220703</ele>
        <time>2016-04-10T08:20:33.000Z</time>
      </trkpt>
      <trkpt lat="43.18559" lon="5.80452">
        <ele>357</ele>
        <time>2016-04-10T08:20:35.000Z</time>
      </trkpt>
      <trkpt lat="43.18557" lon="5.80453">
        <ele>357.20001220703</ele>
        <time>2016-04-10T08:20:36.000Z</time>
      </trkpt>
      <trkpt lat="43.18549" lon="5.80454">
        <ele>358.20001220703</ele>
        <time>2016-04-10T08:20:40.000Z</time>
      </trkpt>
      <trkpt lat="43.18541" lon="5.80455">
        <ele>359</ele>
        <time>2016-04-10T08:20:43.000Z</time>
      </trkpt>
      <trkpt lat="43.18519" lon="5.80463">
        <ele>363</ele>
        <time>2016-04-10T08:20:51.000Z</time>
      </trkpt>
      <trkpt lat="43.18502" lon="5.8048">
        <ele>363.20001220703</ele>
        <time>2016-04-10T08:20:58.000Z</time>
      </trkpt>
      <trkpt lat="43.18499" lon="5.80484">
        <ele>362.20001220703</ele>
        <time>2016-04-10T08:21:00.000Z</time>
      </trkpt>
      <trkpt lat="43.18491" lon="5.80497">
        <ele>359.60000610352</ele>
        <time>2016-04-10T08:21:04.000Z</time>
      </trkpt>
      <trkpt lat="43.18477" lon="5.80513">
        <ele>355</ele>
        <time>2016-04-10T08:21:10.000Z</time>
      </trkpt>
      <trkpt lat="43.18463" lon="5.80523">
        <ele>354</ele>
        <time>2016-04-10T08:21:16.000Z</time>
      </trkpt>
      <trkpt lat="43.18462" lon="5.80528">
        <ele>354.60000610352</ele>
        <time>2016-04-10T08:21:18.000Z</time>
      </trkpt>
      <trkpt lat="43.18462" lon="5.80536">
        <ele>355.79998779297</ele>
        <time>2016-04-10T08:21:21.000Z</time>
      </trkpt>
      <trkpt lat="43.18464" lon="5.80541">
        <ele>356.79998779297</ele>
        <time>2016-04-10T08:21:23.000Z</time>
      </trkpt>
      <trkpt lat="43.18467" lon="5.80543">
        <ele>357.39999389648</ele>
        <time>2016-04-10T08:21:26.000Z</time>
      </trkpt>
      <trkpt lat="43.18494" lon="5.8052">
        <ele>359.39999389648</ele>
        <time>2016-04-10T08:28:14.000Z</time>
      </trkpt>
      <trkpt lat="43.18494" lon="5.80516">
        <ele>359.60000610352</ele>
        <time>2016-04-10T08:28:16.000Z</time>
      </trkpt>
      <trkpt lat="43.18492" lon="5.80517">
        <ele>359.20001220703</ele>
        <time>2016-04-10T08:28:57.000Z</time>
      </trkpt>
      <trkpt lat="43.18491" lon="5.80518">
        <ele>358.79998779297</ele>
        <time>2016-04-10T08:28:58.000Z</time>
      </trkpt>
      <trkpt lat="43.18483" lon="5.80531">
        <ele>356.79998779297</ele>
        <time>2016-04-10T08:29:03.000Z</time>
      </trkpt>
      <trkpt lat="43.18479" lon="5.80536">
        <ele>357.20001220703</ele>
        <time>2016-04-10T08:29:05.000Z</time>
      </trkpt>
      <trkpt lat="43.18471" lon="5.80541">
        <ele>357.39999389648</ele>
        <time>2016-04-10T08:29:09.000Z</time>
      </trkpt>
      <trkpt lat="43.18466" lon="5.80544">
        <ele>357.39999389648</ele>
        <time>2016-04-10T08:29:12.000Z</time>
      </trkpt>
      <trkpt lat="43.18464" lon="5.80541">
        <ele>356.79998779297</ele>
        <time>2016-04-10T08:29:14.000Z</time>
      </trkpt>
      <trkpt lat="43.18464" lon="5.80536">
        <ele>356</ele>
        <time>2016-04-10T08:29:16.000Z</time>
      </trkpt>
      <trkpt lat="43.18466" lon="5.80527">
        <ele>354.79998779297</ele>
        <time>2016-04-10T08:29:19.000Z</time>
      </trkpt>
      <trkpt lat="43.18467" lon="5.80525">
        <ele>354.60000610352</ele>
        <time>2016-04-10T08:29:20.000Z</time>
      </trkpt>
      <trkpt lat="43.18473" lon="5.80519">
        <ele>354.20001220703</ele>
        <time>2016-04-10T08:29:23.000Z</time>
      </trkpt>
      <trkpt lat="43.1848" lon="5.80513">
        <ele>355.79998779297</ele>
        <time>2016-04-10T08:29:27.000Z</time>
      </trkpt>
      <trkpt lat="43.18493" lon="5.80496">
        <ele>360</ele>
        <time>2016-04-10T08:29:34.000Z</time>
      </trkpt>
      <trkpt lat="43.18498" lon="5.80486">
        <ele>361.79998779297</ele>
        <time>2016-04-10T08:29:38.000Z</time>
      </trkpt>
      <trkpt lat="43.185" lon="5.80484">
        <ele>362.39999389648</ele>
        <time>2016-04-10T08:29:39.000Z</time>
      </trkpt>
      <trkpt lat="43.18517" lon="5.80468">
        <ele>364.60000610352</ele>
        <time>2016-04-10T08:29:45.000Z</time>
      </trkpt>
      <trkpt lat="43.18535" lon="5.8046">
        <ele>361</ele>
        <time>2016-04-10T08:29:50.000Z</time>
      </trkpt>
      <trkpt lat="43.18539" lon="5.80459">
        <ele>360.39999389648</ele>
        <time>2016-04-10T08:29:51.000Z</time>
      </trkpt>
      <trkpt lat="43.18559" lon="5.80454">
        <ele>357.39999389648</ele>
        <time>2016-04-10T08:29:58.000Z</time>
      </trkpt>
      <trkpt lat="43.18572" lon="5.8045">
        <ele>355.39999389648</ele>
        <time>2016-04-10T08:30:03.000Z</time>
      </trkpt>
      <trkpt lat="43.18575" lon="5.80451">
        <ele>355.60000610352</ele>
        <time>2016-04-10T08:30:05.000Z</time>
      </trkpt>
      <trkpt lat="43.18576" lon="5.80453">
        <ele>356</ele>
        <time>2016-04-10T08:30:06.000Z</time>
      </trkpt>
      <trkpt lat="43.18578" lon="5.80459">
        <ele>357.60000610352</ele>
        <time>2016-04-10T08:30:09.000Z</time>
      </trkpt>
      <trkpt lat="43.18583" lon="5.8047">
        <ele>360.39999389648</ele>
        <time>2016-04-10T08:30:14.000Z</time>
      </trkpt>
      <trkpt lat="43.18586" lon="5.80474">
        <ele>360.20001220703</ele>
        <time>2016-04-10T08:30:17.000Z</time>
      </trkpt>
      <trkpt lat="43.18589" lon="5.80469">
        <ele>359.60000610352</ele>
        <time>2016-04-10T08:30:21.000Z</time>
      </trkpt>
      <trkpt lat="43.1859" lon="5.80467">
        <ele>359</ele>
        <time>2016-04-10T08:30:22.000Z</time>
      </trkpt>
      <trkpt lat="43.18587" lon="5.80444">
        <ele>356.60000610352</ele>
        <time>2016-04-10T08:30:30.000Z</time>
      </trkpt>
      <trkpt lat="43.18575" lon="5.80437">
        <ele>354.39999389648</ele>
        <time>2016-04-10T08:30:36.000Z</time>
      </trkpt>
      <trkpt lat="43.18563" lon="5.80434">
        <ele>352.60000610352</ele>
        <time>2016-04-10T08:30:39.000Z</time>
      </trkpt>
      <trkpt lat="43.18557" lon="5.80434">
        <ele>351.79998779297</ele>
        <time>2016-04-10T08:30:40.000Z</time>
      </trkpt>
      <trkpt lat="43.18551" lon="5.80434">
        <ele>352.20001220703</ele>
        <time>2016-04-10T08:30:41.000Z</time>
      </trkpt>
      <trkpt lat="43.18546" lon="5.80433">
        <ele>352.39999389648</ele>
        <time>2016-04-10T08:30:42.000Z</time>
      </trkpt>
      <trkpt lat="43.1853" lon="5.80433">
        <ele>353.39999389648</ele>
        <time>2016-04-10T08:30:45.000Z</time>
      </trkpt>
      <trkpt lat="43.1852" lon="5.80433">
        <ele>354.20001220703</ele>
        <time>2016-04-10T08:30:47.000Z</time>
      </trkpt>
      <trkpt lat="43.18515" lon="5.80434">
        <ele>354.79998779297</ele>
        <time>2016-04-10T08:30:48.000Z</time>
      </trkpt>
      <trkpt lat="43.1851" lon="5.80435">
        <ele>355</ele>
        <time>2016-04-10T08:30:49.000Z</time>
      </trkpt>
      <trkpt lat="43.185" lon="5.80438">
        <ele>352.79998779297</ele>
        <time>2016-04-10T08:30:51.000Z</time>
      </trkpt>
      <trkpt lat="43.18494" lon="5.8044">
        <ele>352</ele>
        <time>2016-04-10T08:30:52.000Z</time>
      </trkpt>
      <trkpt lat="43.18489" lon="5.80443">
        <ele>351.39999389648</ele>
        <time>2016-04-10T08:30:53.000Z</time>
      </trkpt>
      <trkpt lat="43.18484" lon="5.80446">
        <ele>350.79998779297</ele>
        <time>2016-04-10T08:30:54.000Z</time>
      </trkpt>
      <trkpt lat="43.18479" lon="5.8045">
        <ele>350.60000610352</ele>
        <time>2016-04-10T08:30:55.000Z</time>
      </trkpt>
      <trkpt lat="43.18468" lon="5.80458">
        <ele>350</ele>
        <time>2016-04-10T08:30:57.000Z</time>
      </trkpt>
      <trkpt lat="43.18457" lon="5.80466">
        <ele>349.20001220703</ele>
        <time>2016-04-10T08:30:59.000Z</time>
      </trkpt>
      <trkpt lat="43.18451" lon="5.8047">
        <ele>348.79998779297</ele>
        <time>2016-04-10T08:31:00.000Z</time>
      </trkpt>
      <trkpt lat="43.18446" lon="5.80474">
        <ele>347.79998779297</ele>
        <time>2016-04-10T08:31:01.000Z</time>
      </trkpt>
      <trkpt lat="43.18435" lon="5.80484">
        <ele>345.39999389648</ele>
        <time>2016-04-10T08:31:03.000Z</time>
      </trkpt>
      <trkpt lat="43.18426" lon="5.80495">
        <ele>346</ele>
        <time>2016-04-10T08:31:05.000Z</time>
      </trkpt>
      <trkpt lat="43.18415" lon="5.80507">
        <ele>345.20001220703</ele>
        <time>2016-04-10T08:31:07.000Z</time>
      </trkpt>
      <trkpt lat="43.18406" lon="5.80518">
        <ele>344.20001220703</ele>
        <time>2016-04-10T08:31:09.000Z</time>
      </trkpt>
      <trkpt lat="43.18396" lon="5.80527">
        <ele>343.20001220703</ele>
        <time>2016-04-10T08:31:11.000Z</time>
      </trkpt>
      <trkpt lat="43.18391" lon="5.80532">
        <ele>342.39999389648</ele>
        <time>2016-04-10T08:31:12.000Z</time>
      </trkpt>
      <trkpt lat="43.18381" lon="5.8054">
        <ele>340.60000610352</ele>
        <time>2016-04-10T08:31:14.000Z</time>
      </trkpt>
      <trkpt lat="43.1837" lon="5.80548">
        <ele>339</ele>
        <time>2016-04-10T08:31:16.000Z</time>
      </trkpt>
      <trkpt lat="43.18365" lon="5.80551">
        <ele>338</ele>
        <time>2016-04-10T08:31:17.000Z</time>
      </trkpt>
      <trkpt lat="43.18359" lon="5.80554">
        <ele>336.79998779297</ele>
        <time>2016-04-10T08:31:18.000Z</time>
      </trkpt>
      <trkpt lat="43.18348" lon="5.8056">
        <ele>333.20001220703</ele>
        <time>2016-04-10T08:31:20.000Z</time>
      </trkpt>
      <trkpt lat="43.18336" lon="5.80566">
        <ele>331.79998779297</ele>
        <time>2016-04-10T08:31:22.000Z</time>
      </trkpt>
      <trkpt lat="43.1833" lon="5.80571">
        <ele>331.20001220703</ele>
        <time>2016-04-10T08:31:23.000Z</time>
      </trkpt>
      <trkpt lat="43.18325" lon="5.80576">
        <ele>330.60000610352</ele>
        <time>2016-04-10T08:31:24.000Z</time>
      </trkpt>
      <trkpt lat="43.18318" lon="5.80588">
        <ele>329.60000610352</ele>
        <time>2016-04-10T08:31:26.000Z</time>
      </trkpt>
      <trkpt lat="43.18314" lon="5.80598">
        <ele>328.79998779297</ele>
        <time>2016-04-10T08:31:28.000Z</time>
      </trkpt>
      <trkpt lat="43.18308" lon="5.80611">
        <ele>329</ele>
        <time>2016-04-10T08:31:31.000Z</time>
      </trkpt>
      <trkpt lat="43.18292" lon="5.80641">
        <ele>331.20001220703</ele>
        <time>2016-04-10T08:31:38.000Z</time>
      </trkpt>
      <trkpt lat="43.18269" lon="5.80659">
        <ele>329.20001220703</ele>
        <time>2016-04-10T08:31:44.000Z</time>
      </trkpt>
      <trkpt lat="43.18265" lon="5.80661">
        <ele>329.39999389648</ele>
        <time>2016-04-10T08:31:45.000Z</time>
      </trkpt>
      <trkpt lat="43.18232" lon="5.80678">
        <ele>328.20001220703</ele>
        <time>2016-04-10T08:31:53.000Z</time>
      </trkpt>
      <trkpt lat="43.18211" lon="5.80681">
        <ele>329.20001220703</ele>
        <time>2016-04-10T08:31:57.000Z</time>
      </trkpt>
      <trkpt lat="43.18205" lon="5.8068">
        <ele>329.79998779297</ele>
        <time>2016-04-10T08:31:58.000Z</time>
      </trkpt>
      <trkpt lat="43.18169" lon="5.80676">
        <ele>334</ele>
        <time>2016-04-10T08:32:04.000Z</time>
      </trkpt>
      <trkpt lat="43.18142" lon="5.80679">
        <ele>338.60000610352</ele>
        <time>2016-04-10T08:32:10.000Z</time>
      </trkpt>
      <trkpt lat="43.1812" lon="5.80679">
        <ele>343.20001220703</ele>
        <time>2016-04-10T08:32:16.000Z</time>
      </trkpt>
      <trkpt lat="43.18116" lon="5.8068">
        <ele>343.79998779297</ele>
        <time>2016-04-10T08:32:17.000Z</time>
      </trkpt>
      <trkpt lat="43.1811" lon="5.80682">
        <ele>345.20001220703</ele>
        <time>2016-04-10T08:32:19.000Z</time>
      </trkpt>
      <trkpt lat="43.18104" lon="5.80685">
        <ele>346.20001220703</ele>
        <time>2016-04-10T08:32:21.000Z</time>
      </trkpt>
      <trkpt lat="43.18097" lon="5.80689">
        <ele>347.39999389648</ele>
        <time>2016-04-10T08:32:23.000Z</time>
      </trkpt>
      <trkpt lat="43.18091" lon="5.80695">
        <ele>348</ele>
        <time>2016-04-10T08:32:25.000Z</time>
      </trkpt>
      <trkpt lat="43.18084" lon="5.807">
        <ele>348.39999389648</ele>
        <time>2016-04-10T08:32:27.000Z</time>
      </trkpt>
      <trkpt lat="43.18081" lon="5.80702">
        <ele>348.39999389648</ele>
        <time>2016-04-10T08:32:28.000Z</time>
      </trkpt>
      <trkpt lat="43.18078" lon="5.80705">
        <ele>348.60000610352</ele>
        <time>2016-04-10T08:32:29.000Z</time>
      </trkpt>
      <trkpt lat="43.18071" lon="5.8071">
        <ele>348.79998779297</ele>
        <time>2016-04-10T08:32:31.000Z</time>
      </trkpt>
      <trkpt lat="43.18063" lon="5.80716">
        <ele>348.79998779297</ele>
        <time>2016-04-10T08:32:33.000Z</time>
      </trkpt>
      <trkpt lat="43.18053" lon="5.80725">
        <ele>348.79998779297</ele>
        <time>2016-04-10T08:32:36.000Z</time>
      </trkpt>
      <trkpt lat="43.18049" lon="5.80729">
        <ele>349</ele>
        <time>2016-04-10T08:32:37.000Z</time>
      </trkpt>
      <trkpt lat="43.18037" lon="5.8074">
        <ele>349.20001220703</ele>
        <time>2016-04-10T08:32:40.000Z</time>
      </trkpt>
      <trkpt lat="43.18023" lon="5.80747">
        <ele>348.60000610352</ele>
        <time>2016-04-10T08:32:43.000Z</time>
      </trkpt>
      <trkpt lat="43.18017" lon="5.80749">
        <ele>348.20001220703</ele>
        <time>2016-04-10T08:32:44.000Z</time>
      </trkpt>
      <trkpt lat="43.17991" lon="5.8075">
        <ele>345.79998779297</ele>
        <time>2016-04-10T08:32:48.000Z</time>
      </trkpt>
      <trkpt lat="43.17977" lon="5.80749">
        <ele>344.39999389648</ele>
        <time>2016-04-10T08:32:50.000Z</time>
      </trkpt>
      <trkpt lat="43.17971" lon="5.8075">
        <ele>343.60000610352</ele>
        <time>2016-04-10T08:32:51.000Z</time>
      </trkpt>
      <trkpt lat="43.1796" lon="5.80751">
        <ele>342.20001220703</ele>
        <time>2016-04-10T08:32:53.000Z</time>
      </trkpt>
      <trkpt lat="43.17954" lon="5.80752">
        <ele>341.60000610352</ele>
        <time>2016-04-10T08:32:54.000Z</time>
      </trkpt>
      <trkpt lat="43.17949" lon="5.80752">
        <ele>341</ele>
        <time>2016-04-10T08:32:55.000Z</time>
      </trkpt>
      <trkpt lat="43.17938" lon="5.80748">
        <ele>340.39999389648</ele>
        <time>2016-04-10T08:32:57.000Z</time>
      </trkpt>
      <trkpt lat="43.17932" lon="5.80744">
        <ele>340.20001220703</ele>
        <time>2016-04-10T08:32:58.000Z</time>
      </trkpt>
      <trkpt lat="43.17926" lon="5.80741">
        <ele>340</ele>
        <time>2016-04-10T08:32:59.000Z</time>
      </trkpt>
      <trkpt lat="43.1792" lon="5.80737">
        <ele>339.60000610352</ele>
        <time>2016-04-10T08:33:00.000Z</time>
      </trkpt>
      <trkpt lat="43.17903" lon="5.80727">
        <ele>338.39999389648</ele>
        <time>2016-04-10T08:33:03.000Z</time>
      </trkpt>
      <trkpt lat="43.17898" lon="5.80726">
        <ele>337.79998779297</ele>
        <time>2016-04-10T08:33:04.000Z</time>
      </trkpt>
      <trkpt lat="43.17892" lon="5.80724">
        <ele>337</ele>
        <time>2016-04-10T08:33:05.000Z</time>
      </trkpt>
      <trkpt lat="43.17879" lon="5.80723">
        <ele>335.20001220703</ele>
        <time>2016-04-10T08:33:07.000Z</time>
      </trkpt>
      <trkpt lat="43.17866" lon="5.80722">
        <ele>333.39999389648</ele>
        <time>2016-04-10T08:33:09.000Z</time>
      </trkpt>
      <trkpt lat="43.1786" lon="5.80721">
        <ele>332.39999389648</ele>
        <time>2016-04-10T08:33:10.000Z</time>
      </trkpt>
      <trkpt lat="43.17853" lon="5.80722">
        <ele>331.20001220703</ele>
        <time>2016-04-10T08:33:11.000Z</time>
      </trkpt>
      <trkpt lat="43.17834" lon="5.80721">
        <ele>329.60000610352</ele>
        <time>2016-04-10T08:33:14.000Z</time>
      </trkpt>
      <trkpt lat="43.1782" lon="5.8072">
        <ele>329.20001220703</ele>
        <time>2016-04-10T08:33:16.000Z</time>
      </trkpt>
      <trkpt lat="43.17805" lon="5.80719">
        <ele>328.60000610352</ele>
        <time>2016-04-10T08:33:18.000Z</time>
      </trkpt>
      <trkpt lat="43.17791" lon="5.80719">
        <ele>328</ele>
        <time>2016-04-10T08:33:20.000Z</time>
      </trkpt>
      <trkpt lat="43.17783" lon="5.80719">
        <ele>327.39999389648</ele>
        <time>2016-04-10T08:33:21.000Z</time>
      </trkpt>
      <trkpt lat="43.17777" lon="5.8072">
        <ele>327</ele>
        <time>2016-04-10T08:33:22.000Z</time>
      </trkpt>
      <trkpt lat="43.17766" lon="5.8072">
        <ele>326.39999389648</ele>
        <time>2016-04-10T08:33:24.000Z</time>
      </trkpt>
      <trkpt lat="43.17762" lon="5.8072">
        <ele>326.20001220703</ele>
        <time>2016-04-10T08:33:25.000Z</time>
      </trkpt>
      <trkpt lat="43.17756" lon="5.80723">
        <ele>325.60000610352</ele>
        <time>2016-04-10T08:33:27.000Z</time>
      </trkpt>
      <trkpt lat="43.17756" lon="5.80728">
        <ele>324.79998779297</ele>
        <time>2016-04-10T08:33:29.000Z</time>
      </trkpt>
      <trkpt lat="43.1776" lon="5.80735">
        <ele>324</ele>
        <time>2016-04-10T08:33:31.000Z</time>
      </trkpt>
      <trkpt lat="43.17763" lon="5.80741">
        <ele>323.39999389648</ele>
        <time>2016-04-10T08:33:32.000Z</time>
      </trkpt>
      <trkpt lat="43.17767" lon="5.80746">
        <ele>322.79998779297</ele>
        <time>2016-04-10T08:33:33.000Z</time>
      </trkpt>
      <trkpt lat="43.17775" lon="5.80759">
        <ele>321</ele>
        <time>2016-04-10T08:33:35.000Z</time>
      </trkpt>
      <trkpt lat="43.17782" lon="5.80777">
        <ele>318.79998779297</ele>
        <time>2016-04-10T08:33:37.000Z</time>
      </trkpt>
      <trkpt lat="43.17786" lon="5.80785">
        <ele>317.79998779297</ele>
        <time>2016-04-10T08:33:38.000Z</time>
      </trkpt>
      <trkpt lat="43.17789" lon="5.80793">
        <ele>316.60000610352</ele>
        <time>2016-04-10T08:33:39.000Z</time>
      </trkpt>
      <trkpt lat="43.17797" lon="5.80808">
        <ele>315</ele>
        <time>2016-04-10T08:33:41.000Z</time>
      </trkpt>
      <trkpt lat="43.17804" lon="5.80819">
        <ele>313.79998779297</ele>
        <time>2016-04-10T08:33:43.000Z</time>
      </trkpt>
      <trkpt lat="43.17813" lon="5.80837">
        <ele>311.60000610352</ele>
        <time>2016-04-10T08:33:46.000Z</time>
      </trkpt>
      <trkpt lat="43.1782" lon="5.80857">
        <ele>309.20001220703</ele>
        <time>2016-04-10T08:33:49.000Z</time>
      </trkpt>
      <trkpt lat="43.17821" lon="5.80863">
        <ele>308.39999389648</ele>
        <time>2016-04-10T08:33:50.000Z</time>
      </trkpt>
      <trkpt lat="43.17823" lon="5.80869">
        <ele>308.20001220703</ele>
        <time>2016-04-10T08:33:51.000Z</time>
      </trkpt>
      <trkpt lat="43.17828" lon="5.8088">
        <ele>308</ele>
        <time>2016-04-10T08:33:53.000Z</time>
      </trkpt>
      <trkpt lat="43.17833" lon="5.80888">
        <ele>307.39999389648</ele>
        <time>2016-04-10T08:33:55.000Z</time>
      </trkpt>
      <trkpt lat="43.1784" lon="5.80893">
        <ele>306.60000610352</ele>
        <time>2016-04-10T08:33:57.000Z</time>
      </trkpt>
      <trkpt lat="43.17843" lon="5.80895">
        <ele>306.20001220703</ele>
        <time>2016-04-10T08:33:58.000Z</time>
      </trkpt>
      <trkpt lat="43.17845" lon="5.80897">
        <ele>306</ele>
        <time>2016-04-10T08:33:59.000Z</time>
      </trkpt>
      <trkpt lat="43.17848" lon="5.809">
        <ele>305.79998779297</ele>
        <time>2016-04-10T08:34:00.000Z</time>
      </trkpt>
      <trkpt lat="43.1785" lon="5.80909">
        <ele>305.60000610352</ele>
        <time>2016-04-10T08:34:02.000Z</time>
      </trkpt>
      <trkpt lat="43.17848" lon="5.80914">
        <ele>305.79998779297</ele>
        <time>2016-04-10T08:34:03.000Z</time>
      </trkpt>
      <trkpt lat="43.17839" lon="5.80928">
        <ele>306.79998779297</ele>
        <time>2016-04-10T08:34:06.000Z</time>
      </trkpt>
      <trkpt lat="43.17833" lon="5.80939">
        <ele>307.60000610352</ele>
        <time>2016-04-10T08:34:08.000Z</time>
      </trkpt>
      <trkpt lat="43.17829" lon="5.8095">
        <ele>308</ele>
        <time>2016-04-10T08:34:10.000Z</time>
      </trkpt>
      <trkpt lat="43.1783" lon="5.8096">
        <ele>308</ele>
        <time>2016-04-10T08:34:12.000Z</time>
      </trkpt>
      <trkpt lat="43.17833" lon="5.8097">
        <ele>307.60000610352</ele>
        <time>2016-04-10T08:34:14.000Z</time>
      </trkpt>
      <trkpt lat="43.17835" lon="5.80976">
        <ele>308</ele>
        <time>2016-04-10T08:34:15.000Z</time>
      </trkpt>
      <trkpt lat="43.17837" lon="5.80982">
        <ele>308.39999389648</ele>
        <time>2016-04-10T08:34:16.000Z</time>
      </trkpt>
      <trkpt lat="43.1784" lon="5.80988">
        <ele>308.79998779297</ele>
        <time>2016-04-10T08:34:17.000Z</time>
      </trkpt>
      <trkpt lat="43.17846" lon="5.81001">
        <ele>309.39999389648</ele>
        <time>2016-04-10T08:34:19.000Z</time>
      </trkpt>
      <trkpt lat="43.17851" lon="5.81006">
        <ele>309.39999389648</ele>
        <time>2016-04-10T08:34:20.000Z</time>
      </trkpt>
      <trkpt lat="43.17855" lon="5.81012">
        <ele>309.39999389648</ele>
        <time>2016-04-10T08:34:21.000Z</time>
      </trkpt>
      <trkpt lat="43.17863" lon="5.81023">
        <ele>309.39999389648</ele>
        <time>2016-04-10T08:34:23.000Z</time>
      </trkpt>
      <trkpt lat="43.17874" lon="5.81041">
        <ele>310</ele>
        <time>2016-04-10T08:34:26.000Z</time>
      </trkpt>
      <trkpt lat="43.17881" lon="5.81064">
        <ele>310.20001220703</ele>
        <time>2016-04-10T08:34:29.000Z</time>
      </trkpt>
      <trkpt lat="43.17884" lon="5.81079">
        <ele>309.39999389648</ele>
        <time>2016-04-10T08:34:31.000Z</time>
      </trkpt>
      <trkpt lat="43.17885" lon="5.81095">
        <ele>308.79998779297</ele>
        <time>2016-04-10T08:34:33.000Z</time>
      </trkpt>
      <trkpt lat="43.17884" lon="5.81102">
        <ele>308.60000610352</ele>
        <time>2016-04-10T08:34:34.000Z</time>
      </trkpt>
      <trkpt lat="43.17882" lon="5.81117">
        <ele>308.20001220703</ele>
        <time>2016-04-10T08:34:37.000Z</time>
      </trkpt>
      <trkpt lat="43.1788" lon="5.81133">
        <ele>307.79998779297</ele>
        <time>2016-04-10T08:34:39.000Z</time>
      </trkpt>
      <trkpt lat="43.17879" lon="5.8114">
        <ele>307.39999389648</ele>
        <time>2016-04-10T08:34:40.000Z</time>
      </trkpt>
      <trkpt lat="43.17879" lon="5.81147">
        <ele>306.39999389648</ele>
        <time>2016-04-10T08:34:41.000Z</time>
      </trkpt>
      <trkpt lat="43.17878" lon="5.81155">
        <ele>305.39999389648</ele>
        <time>2016-04-10T08:34:42.000Z</time>
      </trkpt>
      <trkpt lat="43.17878" lon="5.81168">
        <ele>303.60000610352</ele>
        <time>2016-04-10T08:34:44.000Z</time>
      </trkpt>
      <trkpt lat="43.17877" lon="5.81175">
        <ele>302.60000610352</ele>
        <time>2016-04-10T08:34:45.000Z</time>
      </trkpt>
      <trkpt lat="43.17877" lon="5.81182">
        <ele>301.20001220703</ele>
        <time>2016-04-10T08:34:46.000Z</time>
      </trkpt>
      <trkpt lat="43.17874" lon="5.81196">
        <ele>298.79998779297</ele>
        <time>2016-04-10T08:34:48.000Z</time>
      </trkpt>
      <trkpt lat="43.17867" lon="5.81218">
        <ele>295.39999389648</ele>
        <time>2016-04-10T08:34:51.000Z</time>
      </trkpt>
      <trkpt lat="43.17863" lon="5.81233">
        <ele>293.20001220703</ele>
        <time>2016-04-10T08:34:53.000Z</time>
      </trkpt>
      <trkpt lat="43.17859" lon="5.81248">
        <ele>290.60000610352</ele>
        <time>2016-04-10T08:34:55.000Z</time>
      </trkpt>
      <trkpt lat="43.17858" lon="5.81265">
        <ele>287.79998779297</ele>
        <time>2016-04-10T08:34:57.000Z</time>
      </trkpt>
      <trkpt lat="43.17857" lon="5.81282">
        <ele>284.39999389648</ele>
        <time>2016-04-10T08:34:59.000Z</time>
      </trkpt>
      <trkpt lat="43.17855" lon="5.813">
        <ele>281</ele>
        <time>2016-04-10T08:35:01.000Z</time>
      </trkpt>
      <trkpt lat="43.17854" lon="5.81309">
        <ele>279.79998779297</ele>
        <time>2016-04-10T08:35:02.000Z</time>
      </trkpt>
      <trkpt lat="43.17853" lon="5.81317">
        <ele>278.60000610352</ele>
        <time>2016-04-10T08:35:03.000Z</time>
      </trkpt>
      <trkpt lat="43.17851" lon="5.81324">
        <ele>276.60000610352</ele>
        <time>2016-04-10T08:35:04.000Z</time>
      </trkpt>
      <trkpt lat="43.17848" lon="5.8134">
        <ele>272.60000610352</ele>
        <time>2016-04-10T08:35:06.000Z</time>
      </trkpt>
      <trkpt lat="43.17847" lon="5.81347">
        <ele>270.60000610352</ele>
        <time>2016-04-10T08:35:07.000Z</time>
      </trkpt>
      <trkpt lat="43.17845" lon="5.81353">
        <ele>268.79998779297</ele>
        <time>2016-04-10T08:35:08.000Z</time>
      </trkpt>
      <trkpt lat="43.17844" lon="5.8136">
        <ele>267.39999389648</ele>
        <time>2016-04-10T08:35:09.000Z</time>
      </trkpt>
      <trkpt lat="43.17846" lon="5.81368">
        <ele>265.39999389648</ele>
        <time>2016-04-10T08:35:10.000Z</time>
      </trkpt>
      <trkpt lat="43.1785" lon="5.8138">
        <ele>262.39999389648</ele>
        <time>2016-04-10T08:35:12.000Z</time>
      </trkpt>
      <trkpt lat="43.17857" lon="5.81381">
        <ele>262.79998779297</ele>
        <time>2016-04-10T08:35:14.000Z</time>
      </trkpt>
      <trkpt lat="43.1786" lon="5.81377">
        <ele>263.79998779297</ele>
        <time>2016-04-10T08:35:15.000Z</time>
      </trkpt>
      <trkpt lat="43.17864" lon="5.81374">
        <ele>264.79998779297</ele>
        <time>2016-04-10T08:35:16.000Z</time>
      </trkpt>
      <trkpt lat="43.17867" lon="5.81369">
        <ele>266.20001220703</ele>
        <time>2016-04-10T08:35:17.000Z</time>
      </trkpt>
      <trkpt lat="43.1787" lon="5.81365">
        <ele>267.60000610352</ele>
        <time>2016-04-10T08:35:18.000Z</time>
      </trkpt>
      <trkpt lat="43.17876" lon="5.81356">
        <ele>270</ele>
        <time>2016-04-10T08:35:20.000Z</time>
      </trkpt>
      <trkpt lat="43.17881" lon="5.81356">
        <ele>270.39999389648</ele>
        <time>2016-04-10T08:35:22.000Z</time>
      </trkpt>
      <trkpt lat="43.17883" lon="5.81357">
        <ele>270.20001220703</ele>
        <time>2016-04-10T08:35:23.000Z</time>
      </trkpt>
      <trkpt lat="43.1789" lon="5.8137">
        <ele>267.39999389648</ele>
        <time>2016-04-10T08:35:27.000Z</time>
      </trkpt>
      <trkpt lat="43.17893" lon="5.81387">
        <ele>263.20001220703</ele>
        <time>2016-04-10T08:35:30.000Z</time>
      </trkpt>
      <trkpt lat="43.17891" lon="5.81395">
        <ele>262</ele>
        <time>2016-04-10T08:35:31.000Z</time>
      </trkpt>
      <trkpt lat="43.17882" lon="5.81427">
        <ele>257.60000610352</ele>
        <time>2016-04-10T08:35:35.000Z</time>
      </trkpt>
      <trkpt lat="43.1788" lon="5.81434">
        <ele>256.20001220703</ele>
        <time>2016-04-10T08:35:36.000Z</time>
      </trkpt>
      <trkpt lat="43.17876" lon="5.81449">
        <ele>252.80000305176</ele>
        <time>2016-04-10T08:35:39.000Z</time>
      </trkpt>
      <trkpt lat="43.17878" lon="5.81466">
        <ele>250.19999694824</ele>
        <time>2016-04-10T08:35:43.000Z</time>
      </trkpt>
      <trkpt lat="43.17892" lon="5.81492">
        <ele>247.19999694824</ele>
        <time>2016-04-10T08:35:48.000Z</time>
      </trkpt>
      <trkpt lat="43.17896" lon="5.81497">
        <ele>246.80000305176</ele>
        <time>2016-04-10T08:35:49.000Z</time>
      </trkpt>
      <trkpt lat="43.17903" lon="5.81508">
        <ele>245.60000610352</ele>
        <time>2016-04-10T08:35:51.000Z</time>
      </trkpt>
      <trkpt lat="43.17906" lon="5.81513">
        <ele>244.80000305176</ele>
        <time>2016-04-10T08:35:52.000Z</time>
      </trkpt>
      <trkpt lat="43.17909" lon="5.81529">
        <ele>242.60000610352</ele>
        <time>2016-04-10T08:35:54.000Z</time>
      </trkpt>
      <trkpt lat="43.17915" lon="5.81548">
        <ele>240</ele>
        <time>2016-04-10T08:35:57.000Z</time>
      </trkpt>
      <trkpt lat="43.17922" lon="5.81556">
        <ele>239.39999389648</ele>
        <time>2016-04-10T08:35:59.000Z</time>
      </trkpt>
      <trkpt lat="43.17931" lon="5.81556">
        <ele>239.80000305176</ele>
        <time>2016-04-10T08:36:01.000Z</time>
      </trkpt>
      <trkpt lat="43.17936" lon="5.81557">
        <ele>239.60000610352</ele>
        <time>2016-04-10T08:36:02.000Z</time>
      </trkpt>
      <trkpt lat="43.17942" lon="5.81559">
        <ele>239.19999694824</ele>
        <time>2016-04-10T08:36:03.000Z</time>
      </trkpt>
      <trkpt lat="43.17947" lon="5.8156">
        <ele>238.80000305176</ele>
        <time>2016-04-10T08:36:04.000Z</time>
      </trkpt>
      <trkpt lat="43.1796" lon="5.81563">
        <ele>238</ele>
        <time>2016-04-10T08:36:06.000Z</time>
      </trkpt>
      <trkpt lat="43.17967" lon="5.81564">
        <ele>237.60000610352</ele>
        <time>2016-04-10T08:36:07.000Z</time>
      </trkpt>
      <trkpt lat="43.17981" lon="5.81567">
        <ele>236.80000305176</ele>
        <time>2016-04-10T08:36:09.000Z</time>
      </trkpt>
      <trkpt lat="43.18002" lon="5.81572">
        <ele>235.60000610352</ele>
        <time>2016-04-10T08:36:12.000Z</time>
      </trkpt>
      <trkpt lat="43.18016" lon="5.81576">
        <ele>234.60000610352</ele>
        <time>2016-04-10T08:36:14.000Z</time>
      </trkpt>
      <trkpt lat="43.18022" lon="5.81578">
        <ele>234</ele>
        <time>2016-04-10T08:36:15.000Z</time>
      </trkpt>
      <trkpt lat="43.18028" lon="5.81577">
        <ele>234</ele>
        <time>2016-04-10T08:36:16.000Z</time>
      </trkpt>
      <trkpt lat="43.18039" lon="5.81573">
        <ele>234</ele>
        <time>2016-04-10T08:36:18.000Z</time>
      </trkpt>
      <trkpt lat="43.1805" lon="5.81566">
        <ele>234.19999694824</ele>
        <time>2016-04-10T08:36:20.000Z</time>
      </trkpt>
      <trkpt lat="43.18062" lon="5.81559">
        <ele>234.39999389648</ele>
        <time>2016-04-10T08:36:22.000Z</time>
      </trkpt>
      <trkpt lat="43.18071" lon="5.81554">
        <ele>234.80000305176</ele>
        <time>2016-04-10T08:36:24.000Z</time>
      </trkpt>
      <trkpt lat="43.18079" lon="5.81552">
        <ele>234.60000610352</ele>
        <time>2016-04-10T08:36:26.000Z</time>
      </trkpt>
      <trkpt lat="43.18082" lon="5.81554">
        <ele>234</ele>
        <time>2016-04-10T08:36:27.000Z</time>
      </trkpt>
      <trkpt lat="43.18087" lon="5.81563">
        <ele>232.39999389648</ele>
        <time>2016-04-10T08:36:29.000Z</time>
      </trkpt>
      <trkpt lat="43.18089" lon="5.81567">
        <ele>231.80000305176</ele>
        <time>2016-04-10T08:36:30.000Z</time>
      </trkpt>
      <trkpt lat="43.1809" lon="5.81571">
        <ele>231.19999694824</ele>
        <time>2016-04-10T08:36:31.000Z</time>
      </trkpt>
      <trkpt lat="43.18095" lon="5.81577">
        <ele>230</ele>
        <time>2016-04-10T08:36:33.000Z</time>
      </trkpt>
      <trkpt lat="43.18097" lon="5.81579">
        <ele>229.60000610352</ele>
        <time>2016-04-10T08:36:34.000Z</time>
      </trkpt>
      <trkpt lat="43.181" lon="5.8158">
        <ele>229.19999694824</ele>
        <time>2016-04-10T08:36:35.000Z</time>
      </trkpt>
      <trkpt lat="43.18106" lon="5.81581">
        <ele>228.39999389648</ele>
        <time>2016-04-10T08:36:37.000Z</time>
      </trkpt>
      <trkpt lat="43.18113" lon="5.8158">
        <ele>227.80000305176</ele>
        <time>2016-04-10T08:36:39.000Z</time>
      </trkpt>
      <trkpt lat="43.1812" lon="5.8158">
        <ele>227</ele>
        <time>2016-04-10T08:36:41.000Z</time>
      </trkpt>
      <trkpt lat="43.18138" lon="5.81578">
        <ele>225.39999389648</ele>
        <time>2016-04-10T08:36:45.000Z</time>
      </trkpt>
      <trkpt lat="43.18154" lon="5.81571">
        <ele>224.39999389648</ele>
        <time>2016-04-10T08:36:48.000Z</time>
      </trkpt>
      <trkpt lat="43.18166" lon="5.81564">
        <ele>224.19999694824</ele>
        <time>2016-04-10T08:36:50.000Z</time>
      </trkpt>
      <trkpt lat="43.18172" lon="5.8156">
        <ele>224</ele>
        <time>2016-04-10T08:36:51.000Z</time>
      </trkpt>
      <trkpt lat="43.18179" lon="5.81556">
        <ele>223.80000305176</ele>
        <time>2016-04-10T08:36:52.000Z</time>
      </trkpt>
      <trkpt lat="43.18185" lon="5.81553">
        <ele>223.39999389648</ele>
        <time>2016-04-10T08:36:53.000Z</time>
      </trkpt>
      <trkpt lat="43.18199" lon="5.81547">
        <ele>222.39999389648</ele>
        <time>2016-04-10T08:36:55.000Z</time>
      </trkpt>
      <trkpt lat="43.18207" lon="5.81544">
        <ele>221.80000305176</ele>
        <time>2016-04-10T08:36:56.000Z</time>
      </trkpt>
      <trkpt lat="43.18216" lon="5.81541">
        <ele>221</ele>
        <time>2016-04-10T08:36:57.000Z</time>
      </trkpt>
      <trkpt lat="43.18232" lon="5.81535">
        <ele>219.60000610352</ele>
        <time>2016-04-10T08:36:59.000Z</time>
      </trkpt>
      <trkpt lat="43.1824" lon="5.81534">
        <ele>218.80000305176</ele>
        <time>2016-04-10T08:37:00.000Z</time>
      </trkpt>
      <trkpt lat="43.1825" lon="5.81533">
        <ele>217.80000305176</ele>
        <time>2016-04-10T08:37:01.000Z</time>
      </trkpt>
      <trkpt lat="43.18259" lon="5.81532">
        <ele>216.80000305176</ele>
        <time>2016-04-10T08:37:02.000Z</time>
      </trkpt>
      <trkpt lat="43.18277" lon="5.81528">
        <ele>215.60000610352</ele>
        <time>2016-04-10T08:37:04.000Z</time>
      </trkpt>
      <trkpt lat="43.18302" lon="5.8152">
        <ele>214.39999389648</ele>
        <time>2016-04-10T08:37:07.000Z</time>
      </trkpt>
      <trkpt lat="43.18317" lon="5.81516">
        <ele>213</ele>
        <time>2016-04-10T08:37:09.000Z</time>
      </trkpt>
      <trkpt lat="43.18344" lon="5.81503">
        <ele>210.19999694824</ele>
        <time>2016-04-10T08:37:13.000Z</time>
      </trkpt>
      <trkpt lat="43.18355" lon="5.81493">
        <ele>209.80000305176</ele>
        <time>2016-04-10T08:37:15.000Z</time>
      </trkpt>
      <trkpt lat="43.18371" lon="5.81479">
        <ele>209.80000305176</ele>
        <time>2016-04-10T08:37:18.000Z</time>
      </trkpt>
      <trkpt lat="43.18376" lon="5.81474">
        <ele>209.80000305176</ele>
        <time>2016-04-10T08:37:19.000Z</time>
      </trkpt>
      <trkpt lat="43.18381" lon="5.8147">
        <ele>210</ele>
        <time>2016-04-10T08:37:20.000Z</time>
      </trkpt>
      <trkpt lat="43.18389" lon="5.81461">
        <ele>210.39999389648</ele>
        <time>2016-04-10T08:37:22.000Z</time>
      </trkpt>
      <trkpt lat="43.18396" lon="5.81454">
        <ele>210.60000610352</ele>
        <time>2016-04-10T08:37:24.000Z</time>
      </trkpt>
      <trkpt lat="43.18399" lon="5.81453">
        <ele>210.60000610352</ele>
        <time>2016-04-10T08:37:25.000Z</time>
      </trkpt>
      <trkpt lat="43.18403" lon="5.81455">
        <ele>210.19999694824</ele>
        <time>2016-04-10T08:37:26.000Z</time>
      </trkpt>
      <trkpt lat="43.18409" lon="5.81464">
        <ele>208.80000305176</ele>
        <time>2016-04-10T08:37:28.000Z</time>
      </trkpt>
      <trkpt lat="43.18413" lon="5.81481">
        <ele>207</ele>
        <time>2016-04-10T08:37:30.000Z</time>
      </trkpt>
      <trkpt lat="43.18415" lon="5.81491">
        <ele>206</ele>
        <time>2016-04-10T08:37:31.000Z</time>
      </trkpt>
      <trkpt lat="43.18416" lon="5.81502">
        <ele>205</ele>
        <time>2016-04-10T08:37:32.000Z</time>
      </trkpt>
      <trkpt lat="43.18417" lon="5.81522">
        <ele>202.80000305176</ele>
        <time>2016-04-10T08:37:34.000Z</time>
      </trkpt>
      <trkpt lat="43.18418" lon="5.81541">
        <ele>201</ele>
        <time>2016-04-10T08:37:36.000Z</time>
      </trkpt>
      <trkpt lat="43.1842" lon="5.8155">
        <ele>200.19999694824</ele>
        <time>2016-04-10T08:37:37.000Z</time>
      </trkpt>
      <trkpt lat="43.18422" lon="5.81559">
        <ele>199.39999389648</ele>
        <time>2016-04-10T08:37:38.000Z</time>
      </trkpt>
      <trkpt lat="43.18427" lon="5.81578">
        <ele>198</ele>
        <time>2016-04-10T08:37:40.000Z</time>
      </trkpt>
      <trkpt lat="43.18433" lon="5.81599">
        <ele>196.60000610352</ele>
        <time>2016-04-10T08:37:42.000Z</time>
      </trkpt>
      <trkpt lat="43.18441" lon="5.81615">
        <ele>195.39999389648</ele>
        <time>2016-04-10T08:37:44.000Z</time>
      </trkpt>
      <trkpt lat="43.18447" lon="5.81619">
        <ele>194.80000305176</ele>
        <time>2016-04-10T08:37:45.000Z</time>
      </trkpt>
      <trkpt lat="43.18454" lon="5.81624">
        <ele>194.19999694824</ele>
        <time>2016-04-10T08:37:46.000Z</time>
      </trkpt>
      <trkpt lat="43.18461" lon="5.8163">
        <ele>193.39999389648</ele>
        <time>2016-04-10T08:37:47.000Z</time>
      </trkpt>
      <trkpt lat="43.18468" lon="5.81638">
        <ele>192.60000610352</ele>
        <time>2016-04-10T08:37:48.000Z</time>
      </trkpt>
      <trkpt lat="43.18474" lon="5.81645">
        <ele>192.19999694824</ele>
        <time>2016-04-10T08:37:49.000Z</time>
      </trkpt>
      <trkpt lat="43.18481" lon="5.81654">
        <ele>191.60000610352</ele>
        <time>2016-04-10T08:37:50.000Z</time>
      </trkpt>
      <trkpt lat="43.18493" lon="5.81669">
        <ele>190.80000305176</ele>
        <time>2016-04-10T08:37:52.000Z</time>
      </trkpt>
      <trkpt lat="43.18504" lon="5.81684">
        <ele>190</ele>
        <time>2016-04-10T08:37:54.000Z</time>
      </trkpt>
      <trkpt lat="43.18508" lon="5.81692">
        <ele>189.60000610352</ele>
        <time>2016-04-10T08:37:55.000Z</time>
      </trkpt>
      <trkpt lat="43.18511" lon="5.817">
        <ele>189.19999694824</ele>
        <time>2016-04-10T08:37:56.000Z</time>
      </trkpt>
      <trkpt lat="43.18512" lon="5.81709">
        <ele>189</ele>
        <time>2016-04-10T08:37:57.000Z</time>
      </trkpt>
      <trkpt lat="43.18513" lon="5.81717">
        <ele>189</ele>
        <time>2016-04-10T08:37:58.000Z</time>
      </trkpt>
      <trkpt lat="43.18517" lon="5.81733">
        <ele>188.60000610352</ele>
        <time>2016-04-10T08:38:00.000Z</time>
      </trkpt>
      <trkpt lat="43.18523" lon="5.81747">
        <ele>188</ele>
        <time>2016-04-10T08:38:02.000Z</time>
      </trkpt>
      <trkpt lat="43.18528" lon="5.81754">
        <ele>187.60000610352</ele>
        <time>2016-04-10T08:38:03.000Z</time>
      </trkpt>
      <trkpt lat="43.18532" lon="5.8176">
        <ele>187.19999694824</ele>
        <time>2016-04-10T08:38:04.000Z</time>
      </trkpt>
      <trkpt lat="43.18541" lon="5.81773">
        <ele>186.60000610352</ele>
        <time>2016-04-10T08:38:06.000Z</time>
      </trkpt>
      <trkpt lat="43.18553" lon="5.81794">
        <ele>185.60000610352</ele>
        <time>2016-04-10T08:38:09.000Z</time>
      </trkpt>
      <trkpt lat="43.18556" lon="5.81801">
        <ele>185.19999694824</ele>
        <time>2016-04-10T08:38:10.000Z</time>
      </trkpt>
      <trkpt lat="43.18561" lon="5.81816">
        <ele>184.60000610352</ele>
        <time>2016-04-10T08:38:12.000Z</time>
      </trkpt>
      <trkpt lat="43.18565" lon="5.81832">
        <ele>184.19999694824</ele>
        <time>2016-04-10T08:38:14.000Z</time>
      </trkpt>
      <trkpt lat="43.18567" lon="5.81841">
        <ele>184</ele>
        <time>2016-04-10T08:38:15.000Z</time>
      </trkpt>
      <trkpt lat="43.18568" lon="5.81848">
        <ele>183.80000305176</ele>
        <time>2016-04-10T08:38:16.000Z</time>
      </trkpt>
      <trkpt lat="43.1857" lon="5.81862">
        <ele>183.39999389648</ele>
        <time>2016-04-10T08:38:18.000Z</time>
      </trkpt>
      <trkpt lat="43.18572" lon="5.81871">
        <ele>182.80000305176</ele>
        <time>2016-04-10T08:38:20.000Z</time>
      </trkpt>
      <trkpt lat="43.18573" lon="5.81875">
        <ele>182.39999389648</ele>
        <time>2016-04-10T08:38:21.000Z</time>
      </trkpt>
      <trkpt lat="43.18575" lon="5.81888">
        <ele>181.60000610352</ele>
        <time>2016-04-10T08:39:03.000Z</time>
      </trkpt>
      <trkpt lat="43.18576" lon="5.81895">
        <ele>181.19999694824</ele>
        <time>2016-04-10T08:39:05.000Z</time>
      </trkpt>
      <trkpt lat="43.18583" lon="5.81899">
        <ele>181</ele>
        <time>2016-04-10T08:39:08.000Z</time>
      </trkpt>
      <trkpt lat="43.18583" lon="5.81905">
        <ele>180.80000305176</ele>
        <time>2016-04-10T08:39:11.000Z</time>
      </trkpt>
      <trkpt lat="43.18588" lon="5.81922">
        <ele>180</ele>
        <time>2016-04-10T08:39:15.000Z</time>
      </trkpt>
      <trkpt lat="43.18593" lon="5.81935">
        <ele>179.39999389648</ele>
        <time>2016-04-10T08:39:17.000Z</time>
      </trkpt>
      <trkpt lat="43.18595" lon="5.81942">
        <ele>179</ele>
        <time>2016-04-10T08:39:18.000Z</time>
      </trkpt>
      <trkpt lat="43.18599" lon="5.81955">
        <ele>178.39999389648</ele>
        <time>2016-04-10T08:39:20.000Z</time>
      </trkpt>
      <trkpt lat="43.18601" lon="5.81962">
        <ele>178.19999694824</ele>
        <time>2016-04-10T08:39:21.000Z</time>
      </trkpt>
      <trkpt lat="43.1861" lon="5.81988">
        <ele>177</ele>
        <time>2016-04-10T08:39:25.000Z</time>
      </trkpt>
      <trkpt lat="43.18616" lon="5.82008">
        <ele>176.19999694824</ele>
        <time>2016-04-10T08:39:28.000Z</time>
      </trkpt>
      <trkpt lat="43.18617" lon="5.82015">
        <ele>176</ele>
        <time>2016-04-10T08:39:29.000Z</time>
      </trkpt>
      <trkpt lat="43.18622" lon="5.82033">
        <ele>175.19999694824</ele>
        <time>2016-04-10T08:39:32.000Z</time>
      </trkpt>
      <trkpt lat="43.18625" lon="5.82049">
        <ele>174.39999389648</ele>
        <time>2016-04-10T08:39:35.000Z</time>
      </trkpt>
      <trkpt lat="43.18629" lon="5.82065">
        <ele>174</ele>
        <time>2016-04-10T08:39:38.000Z</time>
      </trkpt>
      <trkpt lat="43.1863" lon="5.8208">
        <ele>173.60000610352</ele>
        <time>2016-04-10T08:39:42.000Z</time>
      </trkpt>
      <trkpt lat="43.18631" lon="5.82084">
        <ele>173.39999389648</ele>
        <time>2016-04-10T08:39:48.000Z</time>
      </trkpt>
      <trkpt lat="43.18632" lon="5.82087">
        <ele>173.39999389648</ele>
        <time>2016-04-10T08:39:49.000Z</time>
      </trkpt>
      <trkpt lat="43.18633" lon="5.82089">
        <ele>173.19999694824</ele>
        <time>2016-04-10T08:39:50.000Z</time>
      </trkpt>
      <trkpt lat="43.18638" lon="5.82087">
        <ele>173.19999694824</ele>
        <time>2016-04-10T08:39:52.000Z</time>
      </trkpt>
      <trkpt lat="43.18644" lon="5.82082">
        <ele>173.19999694824</ele>
        <time>2016-04-10T08:39:54.000Z</time>
      </trkpt>
      <trkpt lat="43.18652" lon="5.82077">
        <ele>173.19999694824</ele>
        <time>2016-04-10T08:39:56.000Z</time>
      </trkpt>
      <trkpt lat="43.18659" lon="5.8207">
        <ele>173</ele>
        <time>2016-04-10T08:39:58.000Z</time>
      </trkpt>
      <trkpt lat="43.18673" lon="5.82056">
        <ele>173</ele>
        <time>2016-04-10T08:40:02.000Z</time>
      </trkpt>
      <trkpt lat="43.18699" lon="5.82032">
        <ele>172.80000305176</ele>
        <time>2016-04-10T08:40:09.000Z</time>
      </trkpt>
      <trkpt lat="43.18725" lon="5.82002">
        <ele>172.39999389648</ele>
        <time>2016-04-10T08:40:17.000Z</time>
      </trkpt>
      <trkpt lat="43.18739" lon="5.81992">
        <ele>171.80000305176</ele>
        <time>2016-04-10T08:40:22.000Z</time>
      </trkpt>
      <trkpt lat="43.18742" lon="5.81993">
        <ele>171.60000610352</ele>
        <time>2016-04-10T08:40:23.000Z</time>
      </trkpt>
      <trkpt lat="43.18751" lon="5.82002">
        <ele>171</ele>
        <time>2016-04-10T08:40:26.000Z</time>
      </trkpt>
      <trkpt lat="43.18755" lon="5.82006">
        <ele>170.60000610352</ele>
        <time>2016-04-10T08:40:27.000Z</time>
      </trkpt>
      <trkpt lat="43.18773" lon="5.82027">
        <ele>169.39999389648</ele>
        <time>2016-04-10T08:40:31.000Z</time>
      </trkpt>
      <trkpt lat="43.18778" lon="5.82032">
        <ele>169.19999694824</ele>
        <time>2016-04-10T08:40:32.000Z</time>
      </trkpt>
      <trkpt lat="43.18809" lon="5.82064">
        <ele>167.80000305176</ele>
        <time>2016-04-10T08:40:38.000Z</time>
      </trkpt>
      <trkpt lat="43.18837" lon="5.8209">
        <ele>166.80000305176</ele>
        <time>2016-04-10T08:40:43.000Z</time>
      </trkpt>
      <trkpt lat="43.18843" lon="5.82093">
        <ele>166.60000610352</ele>
        <time>2016-04-10T08:40:44.000Z</time>
      </trkpt>
      <trkpt lat="43.1885" lon="5.82095">
        <ele>166.60000610352</ele>
        <time>2016-04-10T08:40:45.000Z</time>
      </trkpt>
      <trkpt lat="43.18906" lon="5.8211">
        <ele>167</ele>
        <time>2016-04-10T08:40:54.000Z</time>
      </trkpt>
      <trkpt lat="43.18964" lon="5.82119">
        <ele>166.60000610352</ele>
        <time>2016-04-10T08:41:03.000Z</time>
      </trkpt>
      <trkpt lat="43.18976" lon="5.8212">
        <ele>166.39999389648</ele>
        <time>2016-04-10T08:41:05.000Z</time>
      </trkpt>
      <trkpt lat="43.19001" lon="5.82116">
        <ele>166.39999389648</ele>
        <time>2016-04-10T08:41:09.000Z</time>
      </trkpt>
      <trkpt lat="43.19037" lon="5.82109">
        <ele>166.80000305176</ele>
        <time>2016-04-10T08:41:15.000Z</time>
      </trkpt>
      <trkpt lat="43.19063" lon="5.82091">
        <ele>166.39999389648</ele>
        <time>2016-04-10T08:41:20.000Z</time>
      </trkpt>
      <trkpt lat="43.19118" lon="5.8206">
        <ele>164.19999694824</ele>
        <time>2016-04-10T08:41:30.000Z</time>
      </trkpt>
      <trkpt lat="43.19123" lon="5.82058">
        <ele>164</ele>
        <time>2016-04-10T08:41:31.000Z</time>
      </trkpt>
      <trkpt lat="43.19151" lon="5.82053">
        <ele>164</ele>
        <time>2016-04-10T08:41:36.000Z</time>
      </trkpt>
      <trkpt lat="43.19168" lon="5.82035">
        <ele>164.19999694824</ele>
        <time>2016-04-10T08:41:40.000Z</time>
      </trkpt>
      <trkpt lat="43.19198" lon="5.8201">
        <ele>164</ele>
        <time>2016-04-10T08:41:46.000Z</time>
      </trkpt>
      <trkpt lat="43.19244" lon="5.8198">
        <ele>164.60000610352</ele>
        <time>2016-04-10T08:41:55.000Z</time>
      </trkpt>
      <trkpt lat="43.19272" lon="5.81954">
        <ele>165</ele>
        <time>2016-04-10T08:42:01.000Z</time>
      </trkpt>
      <trkpt lat="43.19276" lon="5.81948">
        <ele>165</ele>
        <time>2016-04-10T08:42:02.000Z</time>
      </trkpt>
      <trkpt lat="43.1929" lon="5.81923">
        <ele>165</ele>
        <time>2016-04-10T08:42:06.000Z</time>
      </trkpt>
      <trkpt lat="43.19314" lon="5.81868">
        <ele>163.60000610352</ele>
        <time>2016-04-10T08:42:14.000Z</time>
      </trkpt>
      <trkpt lat="43.19329" lon="5.81814">
        <ele>161.60000610352</ele>
        <time>2016-04-10T08:42:21.000Z</time>
      </trkpt>
      <trkpt lat="43.19339" lon="5.8178">
        <ele>161.39999389648</ele>
        <time>2016-04-10T08:42:26.000Z</time>
      </trkpt>
      <trkpt lat="43.19347" lon="5.8176">
        <ele>161.60000610352</ele>
        <time>2016-04-10T08:42:29.000Z</time>
      </trkpt>
      <trkpt lat="43.19358" lon="5.8172">
        <ele>162</ele>
        <time>2016-04-10T08:42:35.000Z</time>
      </trkpt>
      <trkpt lat="43.1936" lon="5.81714">
        <ele>162</ele>
        <time>2016-04-10T08:42:36.000Z</time>
      </trkpt>
      <trkpt lat="43.19372" lon="5.81703">
        <ele>161.80000305176</ele>
        <time>2016-04-10T08:42:39.000Z</time>
      </trkpt>
      <trkpt lat="43.19376" lon="5.817">
        <ele>161.80000305176</ele>
        <time>2016-04-10T08:42:40.000Z</time>
      </trkpt>
      <trkpt lat="43.1939" lon="5.81689">
        <ele>161.60000610352</ele>
        <time>2016-04-10T08:42:43.000Z</time>
      </trkpt>
      <trkpt lat="43.19397" lon="5.81679">
        <ele>161.19999694824</ele>
        <time>2016-04-10T08:42:45.000Z</time>
      </trkpt>
      <trkpt lat="43.19422" lon="5.81636">
        <ele>159.19999694824</ele>
        <time>2016-04-10T08:42:52.000Z</time>
      </trkpt>
      <trkpt lat="43.1946" lon="5.81586">
        <ele>158.80000305176</ele>
        <time>2016-04-10T08:43:01.000Z</time>
      </trkpt>
      <trkpt lat="43.19472" lon="5.81568">
        <ele>159</ele>
        <time>2016-04-10T08:43:04.000Z</time>
      </trkpt>
      <trkpt lat="43.19474" lon="5.81561">
        <ele>159.19999694824</ele>
        <time>2016-04-10T08:43:05.000Z</time>
      </trkpt>
      <trkpt lat="43.19477" lon="5.81547">
        <ele>159.39999389648</ele>
        <time>2016-04-10T08:43:07.000Z</time>
      </trkpt>
      <trkpt lat="43.19478" lon="5.81532">
        <ele>160</ele>
        <time>2016-04-10T08:43:09.000Z</time>
      </trkpt>
      <trkpt lat="43.19481" lon="5.815">
        <ele>160.39999389648</ele>
        <time>2016-04-10T08:43:13.000Z</time>
      </trkpt>
      <trkpt lat="43.19486" lon="5.81452">
        <ele>160.39999389648</ele>
        <time>2016-04-10T08:43:19.000Z</time>
      </trkpt>
      <trkpt lat="43.1949" lon="5.81437">
        <ele>160.39999389648</ele>
        <time>2016-04-10T08:43:21.000Z</time>
      </trkpt>
      <trkpt lat="43.19504" lon="5.81413">
        <ele>160.80000305176</ele>
        <time>2016-04-10T08:43:25.000Z</time>
      </trkpt>
      <trkpt lat="43.19514" lon="5.81404">
        <ele>160.80000305176</ele>
        <time>2016-04-10T08:43:27.000Z</time>
      </trkpt>
      <trkpt lat="43.1953" lon="5.81394">
        <ele>160.60000610352</ele>
        <time>2016-04-10T08:43:30.000Z</time>
      </trkpt>
      <trkpt lat="43.19535" lon="5.81391">
        <ele>160.39999389648</ele>
        <time>2016-04-10T08:43:31.000Z</time>
      </trkpt>
      <trkpt lat="43.19557" lon="5.81377">
        <ele>160</ele>
        <time>2016-04-10T08:43:35.000Z</time>
      </trkpt>
      <trkpt lat="43.19573" lon="5.81364">
        <ele>159.60000610352</ele>
        <time>2016-04-10T08:43:38.000Z</time>
      </trkpt>
      <trkpt lat="43.19611" lon="5.81338">
        <ele>158.80000305176</ele>
        <time>2016-04-10T08:43:45.000Z</time>
      </trkpt>
      <trkpt lat="43.19638" lon="5.81312">
        <ele>158</ele>
        <time>2016-04-10T08:43:51.000Z</time>
      </trkpt>
      <trkpt lat="43.19657" lon="5.81302">
        <ele>157.60000610352</ele>
        <time>2016-04-10T08:43:55.000Z</time>
      </trkpt>
      <trkpt lat="43.19661" lon="5.81302">
        <ele>157.60000610352</ele>
        <time>2016-04-10T08:43:56.000Z</time>
      </trkpt>
      <trkpt lat="43.19664" lon="5.81302">
        <ele>157.39999389648</ele>
        <time>2016-04-10T08:43:57.000Z</time>
      </trkpt>
      <trkpt lat="43.1968" lon="5.8129">
        <ele>157</ele>
        <time>2016-04-10T08:44:02.000Z</time>
      </trkpt>
      <trkpt lat="43.19695" lon="5.81261">
        <ele>157.19999694824</ele>
        <time>2016-04-10T08:44:07.000Z</time>
      </trkpt>
      <trkpt lat="43.19729" lon="5.81199">
        <ele>157.19999694824</ele>
        <time>2016-04-10T08:44:17.000Z</time>
      </trkpt>
      <trkpt lat="43.19734" lon="5.81194">
        <ele>157.39999389648</ele>
        <time>2016-04-10T08:44:18.000Z</time>
      </trkpt>
      <trkpt lat="43.19739" lon="5.81189">
        <ele>157.19999694824</ele>
        <time>2016-04-10T08:44:19.000Z</time>
      </trkpt>
      <trkpt lat="43.19753" lon="5.81176">
        <ele>156.60000610352</ele>
        <time>2016-04-10T08:44:22.000Z</time>
      </trkpt>
      <trkpt lat="43.1978" lon="5.81138">
        <ele>156</ele>
        <time>2016-04-10T08:44:29.000Z</time>
      </trkpt>
      <trkpt lat="43.19801" lon="5.81105">
        <ele>155.60000610352</ele>
        <time>2016-04-10T08:44:35.000Z</time>
      </trkpt>
      <trkpt lat="43.19804" lon="5.811">
        <ele>155.60000610352</ele>
        <time>2016-04-10T08:44:36.000Z</time>
      </trkpt>
      <trkpt lat="43.19826" lon="5.81058">
        <ele>155</ele>
        <time>2016-04-10T08:44:43.000Z</time>
      </trkpt>
      <trkpt lat="43.19849" lon="5.8102">
        <ele>155.60000610352</ele>
        <time>2016-04-10T08:44:49.000Z</time>
      </trkpt>
      <trkpt lat="43.19874" lon="5.80983">
        <ele>155.80000305176</ele>
        <time>2016-04-10T08:44:55.000Z</time>
      </trkpt>
      <trkpt lat="43.19893" lon="5.80934">
        <ele>154.80000305176</ele>
        <time>2016-04-10T08:45:02.000Z</time>
      </trkpt>
      <trkpt lat="43.19897" lon="5.80928">
        <ele>154.80000305176</ele>
        <time>2016-04-10T08:45:03.000Z</time>
      </trkpt>
      <trkpt lat="43.1991" lon="5.80918">
        <ele>154.39999389648</ele>
        <time>2016-04-10T08:45:06.000Z</time>
      </trkpt>
      <trkpt lat="43.19925" lon="5.80919">
        <ele>154</ele>
        <time>2016-04-10T08:45:09.000Z</time>
      </trkpt>
      <trkpt lat="43.19929" lon="5.8092">
        <ele>154</ele>
        <time>2016-04-10T08:45:10.000Z</time>
      </trkpt>
      <trkpt lat="43.19934" lon="5.80919">
        <ele>154.19999694824</ele>
        <time>2016-04-10T08:45:11.000Z</time>
      </trkpt>
      <trkpt lat="43.19946" lon="5.80912">
        <ele>154.60000610352</ele>
        <time>2016-04-10T08:45:14.000Z</time>
      </trkpt>
      <trkpt lat="43.19952" lon="5.80905">
        <ele>154.60000610352</ele>
        <time>2016-04-10T08:45:16.000Z</time>
      </trkpt>
      <trkpt lat="43.19959" lon="5.80896">
        <ele>154.60000610352</ele>
        <time>2016-04-10T08:45:19.000Z</time>
      </trkpt>
      <trkpt lat="43.19965" lon="5.80886">
        <ele>154.39999389648</ele>
        <time>2016-04-10T08:45:22.000Z</time>
      </trkpt>
      <trkpt lat="43.19963" lon="5.80875">
        <ele>154.80000305176</ele>
        <time>2016-04-10T08:45:24.000Z</time>
      </trkpt>
      <trkpt lat="43.19951" lon="5.80845">
        <ele>155.39999389648</ele>
        <time>2016-04-10T08:45:29.000Z</time>
      </trkpt>
      <trkpt lat="43.19945" lon="5.80835">
        <ele>155.39999389648</ele>
        <time>2016-04-10T08:45:31.000Z</time>
      </trkpt>
      <trkpt lat="43.19938" lon="5.80819">
        <ele>155.80000305176</ele>
        <time>2016-04-10T08:45:34.000Z</time>
      </trkpt>
      <trkpt lat="43.19924" lon="5.80781">
        <ele>156.80000305176</ele>
        <time>2016-04-10T08:45:40.000Z</time>
      </trkpt>
      <trkpt lat="43.19919" lon="5.80768">
        <ele>157.19999694824</ele>
        <time>2016-04-10T08:45:42.000Z</time>
      </trkpt>
      <trkpt lat="43.19906" lon="5.80747">
        <ele>157.80000305176</ele>
        <time>2016-04-10T08:45:46.000Z</time>
      </trkpt>
      <trkpt lat="43.19901" lon="5.80743">
        <ele>158</ele>
        <time>2016-04-10T08:45:47.000Z</time>
      </trkpt>
      <trkpt lat="43.1988" lon="5.80727">
        <ele>158.19999694824</ele>
        <time>2016-04-10T08:45:52.000Z</time>
      </trkpt>
      <trkpt lat="43.19869" lon="5.80718">
        <ele>158.39999389648</ele>
        <time>2016-04-10T08:45:55.000Z</time>
      </trkpt>
      <trkpt lat="43.19852" lon="5.80704">
        <ele>158.60000610352</ele>
        <time>2016-04-10T08:46:00.000Z</time>
      </trkpt>
      <trkpt lat="43.1984" lon="5.80695">
        <ele>158.80000305176</ele>
        <time>2016-04-10T08:46:05.000Z</time>
      </trkpt>
      <trkpt lat="43.19842" lon="5.80688">
        <ele>159</ele>
        <time>2016-04-10T08:46:10.000Z</time>
      </trkpt>
      <trkpt lat="43.19843" lon="5.80686">
        <ele>159</ele>
        <time>2016-04-10T08:46:11.000Z</time>
      </trkpt>
      <trkpt lat="43.19846" lon="5.80681">
        <ele>159</ele>
        <time>2016-04-10T08:46:15.000Z</time>
      </trkpt>
      <trkpt lat="43.19846" lon="5.80679">
        <ele>159</ele>
        <time>2016-04-10T08:46:16.000Z</time>
      </trkpt>
      <trkpt lat="43.19846" lon="5.80676">
        <ele>159.19999694824</ele>
        <time>2016-04-10T08:46:17.000Z</time>
      </trkpt>
      <trkpt lat="43.19839" lon="5.80663">
        <ele>159.60000610352</ele>
        <time>2016-04-10T08:46:21.000Z</time>
      </trkpt>
      <trkpt lat="43.19828" lon="5.80656">
        <ele>160.39999389648</ele>
        <time>2016-04-10T08:46:24.000Z</time>
      </trkpt>
      <trkpt lat="43.19825" lon="5.80654">
        <ele>160.60000610352</ele>
        <time>2016-04-10T08:46:25.000Z</time>
      </trkpt>
      <trkpt lat="43.19821" lon="5.80652">
        <ele>160.80000305176</ele>
        <time>2016-04-10T08:46:26.000Z</time>
      </trkpt>
      <trkpt lat="43.19804" lon="5.8064">
        <ele>162</ele>
        <time>2016-04-10T08:46:32.000Z</time>
      </trkpt>
      <trkpt lat="43.19799" lon="5.80633">
        <ele>162.19999694824</ele>
        <time>2016-04-10T08:46:35.000Z</time>
      </trkpt>
      <trkpt lat="43.19797" lon="5.80625">
        <ele>162.39999389648</ele>
        <time>2016-04-10T08:46:38.000Z</time>
      </trkpt>
      <trkpt lat="43.19802" lon="5.80607">
        <ele>162.39999389648</ele>
        <time>2016-04-10T08:46:41.000Z</time>
      </trkpt>
      <trkpt lat="43.19805" lon="5.80599">
        <ele>162.39999389648</ele>
        <time>2016-04-10T08:46:42.000Z</time>
      </trkpt>
      <trkpt lat="43.19809" lon="5.80585">
        <ele>162.60000610352</ele>
        <time>2016-04-10T08:46:44.000Z</time>
      </trkpt>
      <trkpt lat="43.1982" lon="5.80546">
        <ele>163.19999694824</ele>
        <time>2016-04-10T08:46:50.000Z</time>
      </trkpt>
      <trkpt lat="43.19821" lon="5.80539">
        <ele>163.19999694824</ele>
        <time>2016-04-10T08:46:51.000Z</time>
      </trkpt>
      <trkpt lat="43.19826" lon="5.80512">
        <ele>164.60000610352</ele>
        <time>2016-04-10T08:46:55.000Z</time>
      </trkpt>
      <trkpt lat="43.19831" lon="5.8049">
        <ele>166</ele>
        <time>2016-04-10T08:46:59.000Z</time>
      </trkpt>
      <trkpt lat="43.19832" lon="5.80484">
        <ele>166.19999694824</ele>
        <time>2016-04-10T08:47:00.000Z</time>
      </trkpt>
      <trkpt lat="43.19837" lon="5.80472">
        <ele>167</ele>
        <time>2016-04-10T08:47:03.000Z</time>
      </trkpt>
      <trkpt lat="43.19838" lon="5.8047">
        <ele>167.19999694824</ele>
        <time>2016-04-10T08:47:04.000Z</time>
      </trkpt>
      <trkpt lat="43.1984" lon="5.80468">
        <ele>167.19999694824</ele>
        <time>2016-04-10T08:47:05.000Z</time>
      </trkpt>
      <trkpt lat="43.19842" lon="5.8047">
        <ele>167.19999694824</ele>
        <time>2016-04-10T08:47:06.000Z</time>
      </trkpt>
      <trkpt lat="43.19844" lon="5.80471">
        <ele>167</ele>
        <time>2016-04-10T08:47:07.000Z</time>
      </trkpt>
      <trkpt lat="43.19851" lon="5.80476">
        <ele>166.60000610352</ele>
        <time>2016-04-10T08:47:09.000Z</time>
      </trkpt>
      <trkpt lat="43.1986" lon="5.80481">
        <ele>166.39999389648</ele>
        <time>2016-04-10T08:47:11.000Z</time>
      </trkpt>
      <trkpt lat="43.19892" lon="5.80486">
        <ele>166</ele>
        <time>2016-04-10T08:47:17.000Z</time>
      </trkpt>
      <trkpt lat="43.19923" lon="5.80483">
        <ele>166.19999694824</ele>
        <time>2016-04-10T08:47:23.000Z</time>
      </trkpt>
      <trkpt lat="43.19928" lon="5.80483">
        <ele>166.19999694824</ele>
        <time>2016-04-10T08:47:24.000Z</time>
      </trkpt>
      <trkpt lat="43.19933" lon="5.80483">
        <ele>166</ele>
        <time>2016-04-10T08:47:25.000Z</time>
      </trkpt>
      <trkpt lat="43.19954" lon="5.8049">
        <ele>164.80000305176</ele>
        <time>2016-04-10T08:47:29.000Z</time>
      </trkpt>
      <trkpt lat="43.19959" lon="5.80493">
        <ele>164.39999389648</ele>
        <time>2016-04-10T08:47:30.000Z</time>
      </trkpt>
      <trkpt lat="43.1997" lon="5.80503">
        <ele>163.39999389648</ele>
        <time>2016-04-10T08:47:32.000Z</time>
      </trkpt>
      <trkpt lat="43.1998" lon="5.80515">
        <ele>162.39999389648</ele>
        <time>2016-04-10T08:47:34.000Z</time>
      </trkpt>
      <trkpt lat="43.1999" lon="5.80527">
        <ele>161.39999389648</ele>
        <time>2016-04-10T08:47:36.000Z</time>
      </trkpt>
      <trkpt lat="43.19999" lon="5.80541">
        <ele>160.19999694824</ele>
        <time>2016-04-10T08:47:38.000Z</time>
      </trkpt>
      <trkpt lat="43.20008" lon="5.80554">
        <ele>159.19999694824</ele>
        <time>2016-04-10T08:47:40.000Z</time>
      </trkpt>
      <trkpt lat="43.20016" lon="5.80567">
        <ele>158.60000610352</ele>
        <time>2016-04-10T08:47:42.000Z</time>
      </trkpt>
      <trkpt lat="43.2003" lon="5.80589">
        <ele>157.60000610352</ele>
        <time>2016-04-10T08:47:45.000Z</time>
      </trkpt>
      <trkpt lat="43.20044" lon="5.80611">
        <ele>156.60000610352</ele>
        <time>2016-04-10T08:47:48.000Z</time>
      </trkpt>
      <trkpt lat="43.20048" lon="5.80618">
        <ele>156.19999694824</ele>
        <time>2016-04-10T08:47:49.000Z</time>
      </trkpt>
      <trkpt lat="43.20056" lon="5.80631">
        <ele>155.60000610352</ele>
        <time>2016-04-10T08:47:51.000Z</time>
      </trkpt>
      <trkpt lat="43.2006" lon="5.80636">
        <ele>155.39999389648</ele>
        <time>2016-04-10T08:47:52.000Z</time>
      </trkpt>
      <trkpt lat="43.20066" lon="5.80639">
        <ele>155</ele>
        <time>2016-04-10T08:47:53.000Z</time>
      </trkpt>
      <trkpt lat="43.20071" lon="5.80642">
        <ele>154.80000305176</ele>
        <time>2016-04-10T08:47:54.000Z</time>
      </trkpt>
      <trkpt lat="43.20084" lon="5.80654">
        <ele>154.60000610352</ele>
        <time>2016-04-10T08:47:57.000Z</time>
      </trkpt>
      <trkpt lat="43.20087" lon="5.80659">
        <ele>154.60000610352</ele>
        <time>2016-04-10T08:47:58.000Z</time>
      </trkpt>
      <trkpt lat="43.201" lon="5.80686">
        <ele>154.60000610352</ele>
        <time>2016-04-10T08:48:04.000Z</time>
      </trkpt>
      <trkpt lat="43.20116" lon="5.80717">
        <ele>155.19999694824</ele>
        <time>2016-04-10T08:48:11.000Z</time>
      </trkpt>
      <trkpt lat="43.20126" lon="5.8073">
        <ele>156</ele>
        <time>2016-04-10T08:48:14.000Z</time>
      </trkpt>
      <trkpt lat="43.20138" lon="5.80738">
        <ele>156.60000610352</ele>
        <time>2016-04-10T08:48:17.000Z</time>
      </trkpt>
      <trkpt lat="43.20142" lon="5.80739">
        <ele>156.80000305176</ele>
        <time>2016-04-10T08:48:18.000Z</time>
      </trkpt>
      <trkpt lat="43.20148" lon="5.8074">
        <ele>157</ele>
        <time>2016-04-10T08:48:19.000Z</time>
      </trkpt>
      <trkpt lat="43.20157" lon="5.80737">
        <ele>156.80000305176</ele>
        <time>2016-04-10T08:48:21.000Z</time>
      </trkpt>
      <trkpt lat="43.20166" lon="5.8073">
        <ele>156.39999389648</ele>
        <time>2016-04-10T08:48:23.000Z</time>
      </trkpt>
      <trkpt lat="43.20175" lon="5.8072">
        <ele>156</ele>
        <time>2016-04-10T08:48:25.000Z</time>
      </trkpt>
      <trkpt lat="43.20181" lon="5.80711">
        <ele>156</ele>
        <time>2016-04-10T08:48:27.000Z</time>
      </trkpt>
      <trkpt lat="43.20183" lon="5.80706">
        <ele>156.19999694824</ele>
        <time>2016-04-10T08:48:28.000Z</time>
      </trkpt>
      <trkpt lat="43.20188" lon="5.80697">
        <ele>156.60000610352</ele>
        <time>2016-04-10T08:48:30.000Z</time>
      </trkpt>
      <trkpt lat="43.20204" lon="5.80683">
        <ele>158.19999694824</ele>
        <time>2016-04-10T08:48:35.000Z</time>
      </trkpt>
      <trkpt lat="43.20207" lon="5.8068">
        <ele>158.39999389648</ele>
        <time>2016-04-10T08:48:36.000Z</time>
      </trkpt>
      <trkpt lat="43.20213" lon="5.80664">
        <ele>158.80000305176</ele>
        <time>2016-04-10T08:48:39.000Z</time>
      </trkpt>
      <trkpt lat="43.2022" lon="5.80647">
        <ele>159.60000610352</ele>
        <time>2016-04-10T08:48:42.000Z</time>
      </trkpt>
      <trkpt lat="43.20231" lon="5.80623">
        <ele>160.80000305176</ele>
        <time>2016-04-10T08:48:46.000Z</time>
      </trkpt>
      <trkpt lat="43.20234" lon="5.80618">
        <ele>161</ele>
        <time>2016-04-10T08:48:47.000Z</time>
      </trkpt>
      <trkpt lat="43.20255" lon="5.80571">
        <ele>160.39999389648</ele>
        <time>2016-04-10T08:48:55.000Z</time>
      </trkpt>
      <trkpt lat="43.20271" lon="5.8054">
        <ele>160.39999389648</ele>
        <time>2016-04-10T08:49:01.000Z</time>
      </trkpt>
      <trkpt lat="43.20277" lon="5.8053">
        <ele>160.60000610352</ele>
        <time>2016-04-10T08:49:03.000Z</time>
      </trkpt>
      <trkpt lat="43.20297" lon="5.80497">
        <ele>161.19999694824</ele>
        <time>2016-04-10T08:49:10.000Z</time>
      </trkpt>
      <trkpt lat="43.20302" lon="5.80489">
        <ele>161.60000610352</ele>
        <time>2016-04-10T08:49:12.000Z</time>
      </trkpt>
      <trkpt lat="43.20307" lon="5.8048">
        <ele>161.80000305176</ele>
        <time>2016-04-10T08:49:14.000Z</time>
      </trkpt>
      <trkpt lat="43.20308" lon="5.80469">
        <ele>161.60000610352</ele>
        <time>2016-04-10T08:49:16.000Z</time>
      </trkpt>
      <trkpt lat="43.20301" lon="5.80445">
        <ele>159.39999389648</ele>
        <time>2016-04-10T08:49:20.000Z</time>
      </trkpt>
      <trkpt lat="43.20299" lon="5.80437">
        <ele>158.60000610352</ele>
        <time>2016-04-10T08:49:21.000Z</time>
      </trkpt>
      <trkpt lat="43.20297" lon="5.8043">
        <ele>158</ele>
        <time>2016-04-10T08:49:22.000Z</time>
      </trkpt>
      <trkpt lat="43.20293" lon="5.80418">
        <ele>156.80000305176</ele>
        <time>2016-04-10T08:49:24.000Z</time>
      </trkpt>
      <trkpt lat="43.20291" lon="5.80409">
        <ele>156.39999389648</ele>
        <time>2016-04-10T08:49:26.000Z</time>
      </trkpt>
      <trkpt lat="43.20291" lon="5.80399">
        <ele>156.19999694824</ele>
        <time>2016-04-10T08:49:28.000Z</time>
      </trkpt>
      <trkpt lat="43.20295" lon="5.80383">
        <ele>156.39999389648</ele>
        <time>2016-04-10T08:49:31.000Z</time>
      </trkpt>
      <trkpt lat="43.20297" lon="5.80371">
        <ele>156.60000610352</ele>
        <time>2016-04-10T08:49:33.000Z</time>
      </trkpt>
      <trkpt lat="43.203" lon="5.80342">
        <ele>157</ele>
        <time>2016-04-10T08:49:37.000Z</time>
      </trkpt>
      <trkpt lat="43.20303" lon="5.80315">
        <ele>157.19999694824</ele>
        <time>2016-04-10T08:49:41.000Z</time>
      </trkpt>
      <trkpt lat="43.20305" lon="5.8031">
        <ele>157.19999694824</ele>
        <time>2016-04-10T08:49:42.000Z</time>
      </trkpt>
      <trkpt lat="43.20307" lon="5.80305">
        <ele>157.39999389648</ele>
        <time>2016-04-10T08:49:43.000Z</time>
      </trkpt>
      <trkpt lat="43.2032" lon="5.80288">
        <ele>159</ele>
        <time>2016-04-10T08:49:47.000Z</time>
      </trkpt>
      <trkpt lat="43.20323" lon="5.80283">
        <ele>159.39999389648</ele>
        <time>2016-04-10T08:49:48.000Z</time>
      </trkpt>
      <trkpt lat="43.20346" lon="5.80265">
        <ele>157.39999389648</ele>
        <time>2016-04-10T08:49:53.000Z</time>
      </trkpt>
      <trkpt lat="43.20352" lon="5.80263">
        <ele>157.60000610352</ele>
        <time>2016-04-10T08:49:54.000Z</time>
      </trkpt>
      <trkpt lat="43.20363" lon="5.80263">
        <ele>158.39999389648</ele>
        <time>2016-04-10T08:49:56.000Z</time>
      </trkpt>
      <trkpt lat="43.20369" lon="5.80261">
        <ele>158.80000305176</ele>
        <time>2016-04-10T08:49:57.000Z</time>
      </trkpt>
      <trkpt lat="43.20386" lon="5.80259">
        <ele>159.60000610352</ele>
        <time>2016-04-10T08:50:00.000Z</time>
      </trkpt>
      <trkpt lat="43.20415" lon="5.80259">
        <ele>159.60000610352</ele>
        <time>2016-04-10T08:50:05.000Z</time>
      </trkpt>
      <trkpt lat="43.20421" lon="5.80259">
        <ele>159.60000610352</ele>
        <time>2016-04-10T08:50:06.000Z</time>
      </trkpt>
      <trkpt lat="43.20444" lon="5.80258">
        <ele>156.60000610352</ele>
        <time>2016-04-10T08:50:10.000Z</time>
      </trkpt>
      <trkpt lat="43.20455" lon="5.80255">
        <ele>154.19999694824</ele>
        <time>2016-04-10T08:50:12.000Z</time>
      </trkpt>
      <trkpt lat="43.20459" lon="5.80251">
        <ele>152.60000610352</ele>
        <time>2016-04-10T08:50:13.000Z</time>
      </trkpt>
      <trkpt lat="43.20464" lon="5.80239">
        <ele>151.60000610352</ele>
        <time>2016-04-10T08:50:15.000Z</time>
      </trkpt>
      <trkpt lat="43.20466" lon="5.80232">
        <ele>151</ele>
        <time>2016-04-10T08:50:16.000Z</time>
      </trkpt>
      <trkpt lat="43.20469" lon="5.80218">
        <ele>150</ele>
        <time>2016-04-10T08:50:18.000Z</time>
      </trkpt>
      <trkpt lat="43.20471" lon="5.80211">
        <ele>149.60000610352</ele>
        <time>2016-04-10T08:50:19.000Z</time>
      </trkpt>
      <trkpt lat="43.20477" lon="5.80198">
        <ele>148.80000305176</ele>
        <time>2016-04-10T08:50:21.000Z</time>
      </trkpt>
      <trkpt lat="43.20488" lon="5.8018">
        <ele>148</ele>
        <time>2016-04-10T08:50:24.000Z</time>
      </trkpt>
      <trkpt lat="43.20497" lon="5.80173">
        <ele>147.80000305176</ele>
        <time>2016-04-10T08:50:26.000Z</time>
      </trkpt>
      <trkpt lat="43.20513" lon="5.8016">
        <ele>147.39999389648</ele>
        <time>2016-04-10T08:50:29.000Z</time>
      </trkpt>
      <trkpt lat="43.20518" lon="5.80154">
        <ele>147.80000305176</ele>
        <time>2016-04-10T08:50:30.000Z</time>
      </trkpt>
      <trkpt lat="43.20523" lon="5.80149">
        <ele>148</ele>
        <time>2016-04-10T08:50:31.000Z</time>
      </trkpt>
      <trkpt lat="43.20556" lon="5.80118">
        <ele>147.80000305176</ele>
        <time>2016-04-10T08:50:37.000Z</time>
      </trkpt>
      <trkpt lat="43.20561" lon="5.80111">
        <ele>147.80000305176</ele>
        <time>2016-04-10T08:50:38.000Z</time>
      </trkpt>
      <trkpt lat="43.20568" lon="5.80097">
        <ele>147.19999694824</ele>
        <time>2016-04-10T08:50:40.000Z</time>
      </trkpt>
      <trkpt lat="43.20571" lon="5.80068">
        <ele>145.39999389648</ele>
        <time>2016-04-10T08:50:44.000Z</time>
      </trkpt>
      <trkpt lat="43.20571" lon="5.80061">
        <ele>145</ele>
        <time>2016-04-10T08:50:45.000Z</time>
      </trkpt>
      <trkpt lat="43.20574" lon="5.80047">
        <ele>144.80000305176</ele>
        <time>2016-04-10T08:50:47.000Z</time>
      </trkpt>
      <trkpt lat="43.20578" lon="5.80042">
        <ele>144.80000305176</ele>
        <time>2016-04-10T08:50:48.000Z</time>
      </trkpt>
      <trkpt lat="43.20589" lon="5.80037">
        <ele>144</ele>
        <time>2016-04-10T08:50:50.000Z</time>
      </trkpt>
      <trkpt lat="43.20595" lon="5.80033">
        <ele>143.39999389648</ele>
        <time>2016-04-10T08:50:51.000Z</time>
      </trkpt>
      <trkpt lat="43.20601" lon="5.8003">
        <ele>144.39999389648</ele>
        <time>2016-04-10T08:50:52.000Z</time>
      </trkpt>
      <trkpt lat="43.20612" lon="5.80022">
        <ele>146.39999389648</ele>
        <time>2016-04-10T08:50:54.000Z</time>
      </trkpt>
      <trkpt lat="43.2062" lon="5.8001">
        <ele>147.80000305176</ele>
        <time>2016-04-10T08:50:56.000Z</time>
      </trkpt>
      <trkpt lat="43.20632" lon="5.79976">
        <ele>147.60000610352</ele>
        <time>2016-04-10T08:51:01.000Z</time>
      </trkpt>
      <trkpt lat="43.20634" lon="5.79968">
        <ele>147.60000610352</ele>
        <time>2016-04-10T08:51:02.000Z</time>
      </trkpt>
      <trkpt lat="43.20637" lon="5.79953">
        <ele>147.80000305176</ele>
        <time>2016-04-10T08:51:04.000Z</time>
      </trkpt>
      <trkpt lat="43.20643" lon="5.79922">
        <ele>147.39999389648</ele>
        <time>2016-04-10T08:51:08.000Z</time>
      </trkpt>
      <trkpt lat="43.20652" lon="5.79892">
        <ele>146</ele>
        <time>2016-04-10T08:51:12.000Z</time>
      </trkpt>
      <trkpt lat="43.20656" lon="5.79884">
        <ele>146.19999694824</ele>
        <time>2016-04-10T08:51:13.000Z</time>
      </trkpt>
      <trkpt lat="43.20681" lon="5.79841">
        <ele>143.80000305176</ele>
        <time>2016-04-10T08:51:19.000Z</time>
      </trkpt>
      <trkpt lat="43.20685" lon="5.79834">
        <ele>143.80000305176</ele>
        <time>2016-04-10T08:51:20.000Z</time>
      </trkpt>
      <trkpt lat="43.20714" lon="5.79784">
        <ele>145.60000610352</ele>
        <time>2016-04-10T08:51:27.000Z</time>
      </trkpt>
      <trkpt lat="43.20747" lon="5.79734">
        <ele>142.60000610352</ele>
        <time>2016-04-10T08:51:35.000Z</time>
      </trkpt>
      <trkpt lat="43.20779" lon="5.79696">
        <ele>143.19999694824</ele>
        <time>2016-04-10T08:51:42.000Z</time>
      </trkpt>
      <trkpt lat="43.20814" lon="5.79667">
        <ele>145.60000610352</ele>
        <time>2016-04-10T08:51:49.000Z</time>
      </trkpt>
      <trkpt lat="43.20864" lon="5.79633">
        <ele>143.80000305176</ele>
        <time>2016-04-10T08:51:59.000Z</time>
      </trkpt>
      <trkpt lat="43.20882" lon="5.79639">
        <ele>145.60000610352</ele>
        <time>2016-04-10T08:52:03.000Z</time>
      </trkpt>
      <trkpt lat="43.20891" lon="5.79655">
        <ele>149.19999694824</ele>
        <time>2016-04-10T08:52:06.000Z</time>
      </trkpt>
      <trkpt lat="43.20894" lon="5.79661">
        <ele>150.39999389648</ele>
        <time>2016-04-10T08:52:07.000Z</time>
      </trkpt>
      <trkpt lat="43.20907" lon="5.79684">
        <ele>155.19999694824</ele>
        <time>2016-04-10T08:52:11.000Z</time>
      </trkpt>
      <trkpt lat="43.20911" lon="5.79688">
        <ele>156</ele>
        <time>2016-04-10T08:52:12.000Z</time>
      </trkpt>
      <trkpt lat="43.20915" lon="5.79691">
        <ele>156.80000305176</ele>
        <time>2016-04-10T08:52:13.000Z</time>
      </trkpt>
      <trkpt lat="43.20929" lon="5.79698">
        <ele>159</ele>
        <time>2016-04-10T08:52:16.000Z</time>
      </trkpt>
      <trkpt lat="43.20944" lon="5.79704">
        <ele>160.60000610352</ele>
        <time>2016-04-10T08:52:19.000Z</time>
      </trkpt>
      <trkpt lat="43.20963" lon="5.79702">
        <ele>161</ele>
        <time>2016-04-10T08:52:23.000Z</time>
      </trkpt>
      <trkpt lat="43.20968" lon="5.79699">
        <ele>160.60000610352</ele>
        <time>2016-04-10T08:52:24.000Z</time>
      </trkpt>
      <trkpt lat="43.20981" lon="5.79688">
        <ele>159</ele>
        <time>2016-04-10T08:52:27.000Z</time>
      </trkpt>
      <trkpt lat="43.20984" lon="5.79684">
        <ele>157.80000305176</ele>
        <time>2016-04-10T08:52:28.000Z</time>
      </trkpt>
      <trkpt lat="43.20988" lon="5.79679">
        <ele>156.60000610352</ele>
        <time>2016-04-10T08:52:29.000Z</time>
      </trkpt>
      <trkpt lat="43.21013" lon="5.79655">
        <ele>150</ele>
        <time>2016-04-10T08:52:35.000Z</time>
      </trkpt>
      <trkpt lat="43.2105" lon="5.79626">
        <ele>149</ele>
        <time>2016-04-10T08:52:41.000Z</time>
      </trkpt>
      <trkpt lat="43.21073" lon="5.79614">
        <ele>150.80000305176</ele>
        <time>2016-04-10T08:52:44.000Z</time>
      </trkpt>
      <trkpt lat="43.21088" lon="5.79608">
        <ele>149</ele>
        <time>2016-04-10T08:52:46.000Z</time>
      </trkpt>
      <trkpt lat="43.21111" lon="5.79599">
        <ele>149.80000305176</ele>
        <time>2016-04-10T08:52:49.000Z</time>
      </trkpt>
      <trkpt lat="43.21144" lon="5.79589">
        <ele>152.19999694824</ele>
        <time>2016-04-10T08:52:53.000Z</time>
      </trkpt>
      <trkpt lat="43.21162" lon="5.79582">
        <ele>151.80000305176</ele>
        <time>2016-04-10T08:52:55.000Z</time>
      </trkpt>
      <trkpt lat="43.21181" lon="5.79572">
        <ele>150.80000305176</ele>
        <time>2016-04-10T08:52:57.000Z</time>
      </trkpt>
      <trkpt lat="43.21189" lon="5.79567">
        <ele>150</ele>
        <time>2016-04-10T08:52:58.000Z</time>
      </trkpt>
      <trkpt lat="43.21197" lon="5.79561">
        <ele>149.60000610352</ele>
        <time>2016-04-10T08:52:59.000Z</time>
      </trkpt>
      <trkpt lat="43.21216" lon="5.79545">
        <ele>150.19999694824</ele>
        <time>2016-04-10T08:53:02.000Z</time>
      </trkpt>
      <trkpt lat="43.21221" lon="5.79541">
        <ele>150.60000610352</ele>
        <time>2016-04-10T08:53:03.000Z</time>
      </trkpt>
      <trkpt lat="43.21239" lon="5.79522">
        <ele>150.39999389648</ele>
        <time>2016-04-10T08:53:07.000Z</time>
      </trkpt>
      <trkpt lat="43.2125" lon="5.79504">
        <ele>147</ele>
        <time>2016-04-10T08:53:10.000Z</time>
      </trkpt>
      <trkpt lat="43.21261" lon="5.79486">
        <ele>143.39999389648</ele>
        <time>2016-04-10T08:53:13.000Z</time>
      </trkpt>
      <trkpt lat="43.21271" lon="5.79468">
        <ele>142</ele>
        <time>2016-04-10T08:53:16.000Z</time>
      </trkpt>
      <trkpt lat="43.2128" lon="5.79458">
        <ele>143</ele>
        <time>2016-04-10T08:53:18.000Z</time>
      </trkpt>
      <trkpt lat="43.21315" lon="5.79421">
        <ele>143.19999694824</ele>
        <time>2016-04-10T08:53:25.000Z</time>
      </trkpt>
      <trkpt lat="43.21344" lon="5.79393">
        <ele>136.80000305176</ele>
        <time>2016-04-10T08:53:30.000Z</time>
      </trkpt>
      <trkpt lat="43.21349" lon="5.79387">
        <ele>135.60000610352</ele>
        <time>2016-04-10T08:53:31.000Z</time>
      </trkpt>
      <trkpt lat="43.21359" lon="5.79375">
        <ele>133.80000305176</ele>
        <time>2016-04-10T08:53:33.000Z</time>
      </trkpt>
      <trkpt lat="43.21375" lon="5.79352">
        <ele>130.19999694824</ele>
        <time>2016-04-10T08:53:37.000Z</time>
      </trkpt>
      <trkpt lat="43.21377" lon="5.79347">
        <ele>129.60000610352</ele>
        <time>2016-04-10T08:53:38.000Z</time>
      </trkpt>
      <trkpt lat="43.21382" lon="5.79326">
        <ele>129.19999694824</ele>
        <time>2016-04-10T08:53:42.000Z</time>
      </trkpt>
      <trkpt lat="43.2138" lon="5.79322">
        <ele>129.19999694824</ele>
        <time>2016-04-10T08:53:43.000Z</time>
      </trkpt>
      <trkpt lat="43.21375" lon="5.79315">
        <ele>128.80000305176</ele>
        <time>2016-04-10T08:53:45.000Z</time>
      </trkpt>
      <trkpt lat="43.21355" lon="5.79302">
        <ele>127.80000305176</ele>
        <time>2016-04-10T08:53:50.000Z</time>
      </trkpt>
      <trkpt lat="43.21338" lon="5.79282">
        <ele>128.39999389648</ele>
        <time>2016-04-10T08:53:54.000Z</time>
      </trkpt>
      <trkpt lat="43.21331" lon="5.79271">
        <ele>129.80000305176</ele>
        <time>2016-04-10T08:53:56.000Z</time>
      </trkpt>
      <trkpt lat="43.2132" lon="5.79248">
        <ele>132.19999694824</ele>
        <time>2016-04-10T08:54:00.000Z</time>
      </trkpt>
      <trkpt lat="43.21297" lon="5.79211">
        <ele>136</ele>
        <time>2016-04-10T08:54:07.000Z</time>
      </trkpt>
      <trkpt lat="43.2129" lon="5.79188">
        <ele>135.39999389648</ele>
        <time>2016-04-10T08:54:10.000Z</time>
      </trkpt>
      <trkpt lat="43.21285" lon="5.79171">
        <ele>135</ele>
        <time>2016-04-10T08:54:12.000Z</time>
      </trkpt>
      <trkpt lat="43.21283" lon="5.79162">
        <ele>134.60000610352</ele>
        <time>2016-04-10T08:54:13.000Z</time>
      </trkpt>
      <trkpt lat="43.21283" lon="5.79146">
        <ele>134.19999694824</ele>
        <time>2016-04-10T08:54:15.000Z</time>
      </trkpt>
      <trkpt lat="43.21284" lon="5.79138">
        <ele>134</ele>
        <time>2016-04-10T08:54:16.000Z</time>
      </trkpt>
      <trkpt lat="43.21291" lon="5.79109">
        <ele>134.19999694824</ele>
        <time>2016-04-10T08:54:20.000Z</time>
      </trkpt>
      <trkpt lat="43.21294" lon="5.79102">
        <ele>134</ele>
        <time>2016-04-10T08:54:21.000Z</time>
      </trkpt>
      <trkpt lat="43.21307" lon="5.7908">
        <ele>131.39999389648</ele>
        <time>2016-04-10T08:54:25.000Z</time>
      </trkpt>
      <trkpt lat="43.21311" lon="5.79075">
        <ele>130.39999389648</ele>
        <time>2016-04-10T08:54:26.000Z</time>
      </trkpt>
      <trkpt lat="43.21335" lon="5.7905">
        <ele>124.19999694824</ele>
        <time>2016-04-10T08:54:31.000Z</time>
      </trkpt>
      <trkpt lat="43.21338" lon="5.79044">
        <ele>123.19999694824</ele>
        <time>2016-04-10T08:54:32.000Z</time>
      </trkpt>
      <trkpt lat="43.21342" lon="5.79021">
        <ele>122.19999694824</ele>
        <time>2016-04-10T08:54:35.000Z</time>
      </trkpt>
      <trkpt lat="43.21342" lon="5.79014">
        <ele>122</ele>
        <time>2016-04-10T08:54:36.000Z</time>
      </trkpt>
      <trkpt lat="43.2134" lon="5.78966">
        <ele>121.19999694824</ele>
        <time>2016-04-10T08:54:42.000Z</time>
      </trkpt>
      <trkpt lat="43.21336" lon="5.78951">
        <ele>121.40000152588</ele>
        <time>2016-04-10T08:54:44.000Z</time>
      </trkpt>
      <trkpt lat="43.2133" lon="5.78938">
        <ele>121.80000305176</ele>
        <time>2016-04-10T08:54:46.000Z</time>
      </trkpt>
      <trkpt lat="43.21315" lon="5.78926">
        <ele>122.19999694824</ele>
        <time>2016-04-10T08:54:49.000Z</time>
      </trkpt>
      <trkpt lat="43.21293" lon="5.78919">
        <ele>123</ele>
        <time>2016-04-10T08:54:53.000Z</time>
      </trkpt>
      <trkpt lat="43.21287" lon="5.78918">
        <ele>123.80000305176</ele>
        <time>2016-04-10T08:54:54.000Z</time>
      </trkpt>
      <trkpt lat="43.21271" lon="5.78916">
        <ele>127</ele>
        <time>2016-04-10T08:54:57.000Z</time>
      </trkpt>
      <trkpt lat="43.2123" lon="5.78908">
        <ele>143.39999389648</ele>
        <time>2016-04-10T08:55:04.000Z</time>
      </trkpt>
      <trkpt lat="43.21222" lon="5.789">
        <ele>146.39999389648</ele>
        <time>2016-04-10T08:55:06.000Z</time>
      </trkpt>
      <trkpt lat="43.21219" lon="5.78893">
        <ele>146.60000610352</ele>
        <time>2016-04-10T08:55:07.000Z</time>
      </trkpt>
      <trkpt lat="43.21212" lon="5.7886">
        <ele>143.19999694824</ele>
        <time>2016-04-10T08:55:11.000Z</time>
      </trkpt>
      <trkpt lat="43.21206" lon="5.78835">
        <ele>140.60000610352</ele>
        <time>2016-04-10T08:55:14.000Z</time>
      </trkpt>
      <trkpt lat="43.21197" lon="5.78802">
        <ele>140.60000610352</ele>
        <time>2016-04-10T08:55:18.000Z</time>
      </trkpt>
      <trkpt lat="43.2118" lon="5.7874">
        <ele>138.39999389648</ele>
        <time>2016-04-10T08:55:26.000Z</time>
      </trkpt>
      <trkpt lat="43.21163" lon="5.78679">
        <ele>131.60000610352</ele>
        <time>2016-04-10T08:55:34.000Z</time>
      </trkpt>
      <trkpt lat="43.21144" lon="5.78636">
        <ele>127.59999847412</ele>
        <time>2016-04-10T08:55:40.000Z</time>
      </trkpt>
      <trkpt lat="43.21141" lon="5.78629">
        <ele>127</ele>
        <time>2016-04-10T08:55:41.000Z</time>
      </trkpt>
      <trkpt lat="43.21137" lon="5.78623">
        <ele>126.59999847412</ele>
        <time>2016-04-10T08:55:42.000Z</time>
      </trkpt>
      <trkpt lat="43.21133" lon="5.78617">
        <ele>126</ele>
        <time>2016-04-10T08:55:43.000Z</time>
      </trkpt>
      <trkpt lat="43.21119" lon="5.78599">
        <ele>125</ele>
        <time>2016-04-10T08:55:46.000Z</time>
      </trkpt>
      <trkpt lat="43.21089" lon="5.78568">
        <ele>123.59999847412</ele>
        <time>2016-04-10T08:55:52.000Z</time>
      </trkpt>
      <trkpt lat="43.21076" lon="5.78552">
        <ele>122.19999694824</ele>
        <time>2016-04-10T08:55:55.000Z</time>
      </trkpt>
      <trkpt lat="43.21049" lon="5.78512">
        <ele>121.80000305176</ele>
        <time>2016-04-10T08:56:02.000Z</time>
      </trkpt>
      <trkpt lat="43.2103" lon="5.78486">
        <ele>121.59999847412</ele>
        <time>2016-04-10T08:56:07.000Z</time>
      </trkpt>
      <trkpt lat="43.21019" lon="5.7847">
        <ele>121.40000152588</ele>
        <time>2016-04-10T08:56:10.000Z</time>
      </trkpt>
      <trkpt lat="43.21015" lon="5.78464">
        <ele>121</ele>
        <time>2016-04-10T08:56:11.000Z</time>
      </trkpt>
      <trkpt lat="43.21009" lon="5.78441">
        <ele>119.80000305176</ele>
        <time>2016-04-10T08:56:14.000Z</time>
      </trkpt>
      <trkpt lat="43.21011" lon="5.78418">
        <ele>117.59999847412</ele>
        <time>2016-04-10T08:56:17.000Z</time>
      </trkpt>
      <trkpt lat="43.21017" lon="5.78403">
        <ele>115.80000305176</ele>
        <time>2016-04-10T08:56:19.000Z</time>
      </trkpt>
      <trkpt lat="43.2103" lon="5.78375">
        <ele>114.40000152588</ele>
        <time>2016-04-10T08:56:23.000Z</time>
      </trkpt>
      <trkpt lat="43.21057" lon="5.78325">
        <ele>112.40000152588</ele>
        <time>2016-04-10T08:56:31.000Z</time>
      </trkpt>
      <trkpt lat="43.21072" lon="5.78303">
        <ele>112</ele>
        <time>2016-04-10T08:56:35.000Z</time>
      </trkpt>
      <trkpt lat="43.21075" lon="5.78296">
        <ele>111.59999847412</ele>
        <time>2016-04-10T08:56:36.000Z</time>
      </trkpt>
      <trkpt lat="43.21078" lon="5.78267">
        <ele>111.19999694824</ele>
        <time>2016-04-10T08:56:40.000Z</time>
      </trkpt>
      <trkpt lat="43.21081" lon="5.7825">
        <ele>111.40000152588</ele>
        <time>2016-04-10T08:56:42.000Z</time>
      </trkpt>
      <trkpt lat="43.21084" lon="5.78241">
        <ele>111.40000152588</ele>
        <time>2016-04-10T08:56:43.000Z</time>
      </trkpt>
      <trkpt lat="43.21086" lon="5.78223">
        <ele>111.59999847412</ele>
        <time>2016-04-10T08:56:45.000Z</time>
      </trkpt>
      <trkpt lat="43.21091" lon="5.78179">
        <ele>112.59999847412</ele>
        <time>2016-04-10T08:56:50.000Z</time>
      </trkpt>
      <trkpt lat="43.21092" lon="5.78162">
        <ele>113.19999694824</ele>
        <time>2016-04-10T08:56:52.000Z</time>
      </trkpt>
      <trkpt lat="43.21094" lon="5.78138">
        <ele>114</ele>
        <time>2016-04-10T08:56:55.000Z</time>
      </trkpt>
      <trkpt lat="43.21097" lon="5.78106">
        <ele>114.19999694824</ele>
        <time>2016-04-10T08:56:59.000Z</time>
      </trkpt>
      <trkpt lat="43.21098" lon="5.78097">
        <ele>114.19999694824</ele>
        <time>2016-04-10T08:57:00.000Z</time>
      </trkpt>
      <trkpt lat="43.21101" lon="5.78056">
        <ele>114.59999847412</ele>
        <time>2016-04-10T08:57:05.000Z</time>
      </trkpt>
      <trkpt lat="43.21101" lon="5.78048">
        <ele>115</ele>
        <time>2016-04-10T08:57:06.000Z</time>
      </trkpt>
      <trkpt lat="43.21103" lon="5.78025">
        <ele>116</ele>
        <time>2016-04-10T08:57:09.000Z</time>
      </trkpt>
      <trkpt lat="43.21107" lon="5.77985">
        <ele>118</ele>
        <time>2016-04-10T08:57:14.000Z</time>
      </trkpt>
      <trkpt lat="43.21109" lon="5.77978">
        <ele>118.19999694824</ele>
        <time>2016-04-10T08:57:15.000Z</time>
      </trkpt>
      <trkpt lat="43.21114" lon="5.77963">
        <ele>118</ele>
        <time>2016-04-10T08:57:17.000Z</time>
      </trkpt>
      <trkpt lat="43.21117" lon="5.77955">
        <ele>117.59999847412</ele>
        <time>2016-04-10T08:57:18.000Z</time>
      </trkpt>
      <trkpt lat="43.21124" lon="5.77941">
        <ele>117.19999694824</ele>
        <time>2016-04-10T08:57:20.000Z</time>
      </trkpt>
      <trkpt lat="43.21142" lon="5.77917">
        <ele>117.19999694824</ele>
        <time>2016-04-10T08:57:24.000Z</time>
      </trkpt>
      <trkpt lat="43.21175" lon="5.77876">
        <ele>118</ele>
        <time>2016-04-10T08:57:31.000Z</time>
      </trkpt>
      <trkpt lat="43.21197" lon="5.77839">
        <ele>118.19999694824</ele>
        <time>2016-04-10T08:57:37.000Z</time>
      </trkpt>
      <trkpt lat="43.21199" lon="5.77833">
        <ele>118</ele>
        <time>2016-04-10T08:57:38.000Z</time>
      </trkpt>
      <trkpt lat="43.21202" lon="5.77821">
        <ele>117.59999847412</ele>
        <time>2016-04-10T08:57:40.000Z</time>
      </trkpt>
      <trkpt lat="43.21204" lon="5.77815">
        <ele>117.19999694824</ele>
        <time>2016-04-10T08:57:41.000Z</time>
      </trkpt>
      <trkpt lat="43.21205" lon="5.7781">
        <ele>117</ele>
        <time>2016-04-10T08:57:42.000Z</time>
      </trkpt>
      <trkpt lat="43.21208" lon="5.77799">
        <ele>116.59999847412</ele>
        <time>2016-04-10T08:57:44.000Z</time>
      </trkpt>
      <trkpt lat="43.2121" lon="5.77786">
        <ele>116.40000152588</ele>
        <time>2016-04-10T08:57:46.000Z</time>
      </trkpt>
      <trkpt lat="43.21208" lon="5.7778">
        <ele>116.19999694824</ele>
        <time>2016-04-10T08:57:47.000Z</time>
      </trkpt>
      <trkpt lat="43.21206" lon="5.77769">
        <ele>115.80000305176</ele>
        <time>2016-04-10T08:57:50.000Z</time>
      </trkpt>
      <trkpt lat="43.21205" lon="5.77765">
        <ele>115.59999847412</ele>
        <time>2016-04-10T08:57:51.000Z</time>
      </trkpt>
      <trkpt lat="43.212" lon="5.77754">
        <ele>115</ele>
        <time>2016-04-10T08:57:53.000Z</time>
      </trkpt>
      <trkpt lat="43.21195" lon="5.77742">
        <ele>114.40000152588</ele>
        <time>2016-04-10T08:57:55.000Z</time>
      </trkpt>
      <trkpt lat="43.21175" lon="5.77721">
        <ele>112.80000305176</ele>
        <time>2016-04-10T08:58:00.000Z</time>
      </trkpt>
      <trkpt lat="43.21166" lon="5.77712">
        <ele>112.40000152588</ele>
        <time>2016-04-10T08:58:02.000Z</time>
      </trkpt>
      <trkpt lat="43.21156" lon="5.77697">
        <ele>112</ele>
        <time>2016-04-10T08:58:05.000Z</time>
      </trkpt>
      <trkpt lat="43.2114" lon="5.77675">
        <ele>111</ele>
        <time>2016-04-10T08:58:10.000Z</time>
      </trkpt>
      <trkpt lat="43.21125" lon="5.77654">
        <ele>110.19999694824</ele>
        <time>2016-04-10T08:58:14.000Z</time>
      </trkpt>
      <trkpt lat="43.2111" lon="5.77619">
        <ele>109.59999847412</ele>
        <time>2016-04-10T08:58:19.000Z</time>
      </trkpt>
      <trkpt lat="43.21102" lon="5.77598">
        <ele>109.19999694824</ele>
        <time>2016-04-10T08:58:22.000Z</time>
      </trkpt>
      <trkpt lat="43.21089" lon="5.77566">
        <ele>108.80000305176</ele>
        <time>2016-04-10T08:58:27.000Z</time>
      </trkpt>
      <trkpt lat="43.21065" lon="5.77518">
        <ele>110.40000152588</ele>
        <time>2016-04-10T08:58:35.000Z</time>
      </trkpt>
      <trkpt lat="43.2104" lon="5.77483">
        <ele>111.59999847412</ele>
        <time>2016-04-10T08:58:42.000Z</time>
      </trkpt>
      <trkpt lat="43.21031" lon="5.77476">
        <ele>111.80000305176</ele>
        <time>2016-04-10T08:58:44.000Z</time>
      </trkpt>
      <trkpt lat="43.21017" lon="5.77466">
        <ele>112.59999847412</ele>
        <time>2016-04-10T08:58:47.000Z</time>
      </trkpt>
      <trkpt lat="43.21013" lon="5.77462">
        <ele>113.19999694824</ele>
        <time>2016-04-10T08:58:48.000Z</time>
      </trkpt>
      <trkpt lat="43.20993" lon="5.7745">
        <ele>112.80000305176</ele>
        <time>2016-04-10T08:58:52.000Z</time>
      </trkpt>
      <trkpt lat="43.20973" lon="5.7744">
        <ele>112</ele>
        <time>2016-04-10T08:58:56.000Z</time>
      </trkpt>
      <trkpt lat="43.20958" lon="5.77435">
        <ele>111.40000152588</ele>
        <time>2016-04-10T08:58:59.000Z</time>
      </trkpt>
      <trkpt lat="43.2093" lon="5.77424">
        <ele>110.19999694824</ele>
        <time>2016-04-10T08:59:04.000Z</time>
      </trkpt>
      <trkpt lat="43.20916" lon="5.77398">
        <ele>111.19999694824</ele>
        <time>2016-04-10T08:59:07.000Z</time>
      </trkpt>
      <trkpt lat="43.20915" lon="5.77378">
        <ele>112.19999694824</ele>
        <time>2016-04-10T08:59:09.000Z</time>
      </trkpt>
      <trkpt lat="43.20914" lon="5.77368">
        <ele>112.19999694824</ele>
        <time>2016-04-10T08:59:10.000Z</time>
      </trkpt>
      <trkpt lat="43.20914" lon="5.77347">
        <ele>112.59999847412</ele>
        <time>2016-04-10T08:59:12.000Z</time>
      </trkpt>
      <trkpt lat="43.20912" lon="5.77305">
        <ele>113.40000152588</ele>
        <time>2016-04-10T08:59:16.000Z</time>
      </trkpt>
      <trkpt lat="43.20914" lon="5.77275">
        <ele>114.19999694824</ele>
        <time>2016-04-10T08:59:19.000Z</time>
      </trkpt>
      <trkpt lat="43.20916" lon="5.77258">
        <ele>114.19999694824</ele>
        <time>2016-04-10T08:59:21.000Z</time>
      </trkpt>
      <trkpt lat="43.20918" lon="5.77245">
        <ele>114.19999694824</ele>
        <time>2016-04-10T08:59:23.000Z</time>
      </trkpt>
      <trkpt lat="43.20921" lon="5.77239">
        <ele>114.40000152588</ele>
        <time>2016-04-10T08:59:24.000Z</time>
      </trkpt>
      <trkpt lat="43.20926" lon="5.77221">
        <ele>114.80000305176</ele>
        <time>2016-04-10T08:59:27.000Z</time>
      </trkpt>
      <trkpt lat="43.20929" lon="5.77216">
        <ele>115</ele>
        <time>2016-04-10T08:59:28.000Z</time>
      </trkpt>
      <trkpt lat="43.20931" lon="5.77211">
        <ele>115.40000152588</ele>
        <time>2016-04-10T08:59:29.000Z</time>
      </trkpt>
      <trkpt lat="43.20938" lon="5.772">
        <ele>116.40000152588</ele>
        <time>2016-04-10T08:59:31.000Z</time>
      </trkpt>
      <trkpt lat="43.20944" lon="5.7719">
        <ele>117.19999694824</ele>
        <time>2016-04-10T08:59:33.000Z</time>
      </trkpt>
      <trkpt lat="43.2095" lon="5.7718">
        <ele>118.19999694824</ele>
        <time>2016-04-10T08:59:35.000Z</time>
      </trkpt>
      <trkpt lat="43.20957" lon="5.77172">
        <ele>119</ele>
        <time>2016-04-10T08:59:37.000Z</time>
      </trkpt>
      <trkpt lat="43.20972" lon="5.77157">
        <ele>120.40000152588</ele>
        <time>2016-04-10T08:59:41.000Z</time>
      </trkpt>
      <trkpt lat="43.20976" lon="5.77153">
        <ele>120.59999847412</ele>
        <time>2016-04-10T08:59:42.000Z</time>
      </trkpt>
      <trkpt lat="43.21" lon="5.77132">
        <ele>122.59999847412</ele>
        <time>2016-04-10T08:59:48.000Z</time>
      </trkpt>
      <trkpt lat="43.21013" lon="5.77124">
        <ele>123.19999694824</ele>
        <time>2016-04-10T08:59:51.000Z</time>
      </trkpt>
      <trkpt lat="43.21026" lon="5.77116">
        <ele>124.40000152588</ele>
        <time>2016-04-10T08:59:54.000Z</time>
      </trkpt>
      <trkpt lat="43.21046" lon="5.77099">
        <ele>126</ele>
        <time>2016-04-10T08:59:59.000Z</time>
      </trkpt>
      <trkpt lat="43.21049" lon="5.77095">
        <ele>126.19999694824</ele>
        <time>2016-04-10T09:00:00.000Z</time>
      </trkpt>
      <trkpt lat="43.21065" lon="5.77081">
        <ele>127.59999847412</ele>
        <time>2016-04-10T09:00:04.000Z</time>
      </trkpt>
      <trkpt lat="43.21081" lon="5.77066">
        <ele>128.80000305176</ele>
        <time>2016-04-10T09:00:08.000Z</time>
      </trkpt>
      <trkpt lat="43.21095" lon="5.77047">
        <ele>129.39999389648</ele>
        <time>2016-04-10T09:00:12.000Z</time>
      </trkpt>
      <trkpt lat="43.21106" lon="5.77034">
        <ele>129.39999389648</ele>
        <time>2016-04-10T09:00:15.000Z</time>
      </trkpt>
      <trkpt lat="43.21124" lon="5.77002">
        <ele>128.80000305176</ele>
        <time>2016-04-10T09:00:21.000Z</time>
      </trkpt>
      <trkpt lat="43.21127" lon="5.76997">
        <ele>128.80000305176</ele>
        <time>2016-04-10T09:00:22.000Z</time>
      </trkpt>
      <trkpt lat="43.21139" lon="5.76977">
        <ele>129.60000610352</ele>
        <time>2016-04-10T09:00:26.000Z</time>
      </trkpt>
      <trkpt lat="43.21148" lon="5.76963">
        <ele>130.19999694824</ele>
        <time>2016-04-10T09:00:29.000Z</time>
      </trkpt>
      <trkpt lat="43.21152" lon="5.76958">
        <ele>130.60000610352</ele>
        <time>2016-04-10T09:00:30.000Z</time>
      </trkpt>
      <trkpt lat="43.2117" lon="5.76938">
        <ele>132.19999694824</ele>
        <time>2016-04-10T09:00:35.000Z</time>
      </trkpt>
      <trkpt lat="43.21185" lon="5.76923">
        <ele>133.39999389648</ele>
        <time>2016-04-10T09:00:39.000Z</time>
      </trkpt>
      <trkpt lat="43.212" lon="5.76906">
        <ele>134.19999694824</ele>
        <time>2016-04-10T09:00:43.000Z</time>
      </trkpt>
      <trkpt lat="43.21207" lon="5.76897">
        <ele>135.19999694824</ele>
        <time>2016-04-10T09:00:45.000Z</time>
      </trkpt>
      <trkpt lat="43.21219" lon="5.7688">
        <ele>136.39999389648</ele>
        <time>2016-04-10T09:00:49.000Z</time>
      </trkpt>
      <trkpt lat="43.21223" lon="5.76876">
        <ele>136.60000610352</ele>
        <time>2016-04-10T09:00:50.000Z</time>
      </trkpt>
      <trkpt lat="43.21226" lon="5.76873">
        <ele>137</ele>
        <time>2016-04-10T09:00:51.000Z</time>
      </trkpt>
      <trkpt lat="43.2123" lon="5.76869">
        <ele>137.39999389648</ele>
        <time>2016-04-10T09:00:52.000Z</time>
      </trkpt>
      <trkpt lat="43.21241" lon="5.76861">
        <ele>138.39999389648</ele>
        <time>2016-04-10T09:00:55.000Z</time>
      </trkpt>
      <trkpt lat="43.21245" lon="5.76859">
        <ele>138.80000305176</ele>
        <time>2016-04-10T09:00:56.000Z</time>
      </trkpt>
      <trkpt lat="43.21258" lon="5.76853">
        <ele>140</ele>
        <time>2016-04-10T09:00:59.000Z</time>
      </trkpt>
      <trkpt lat="43.21275" lon="5.76847">
        <ele>141.60000610352</ele>
        <time>2016-04-10T09:01:03.000Z</time>
      </trkpt>
      <trkpt lat="43.21279" lon="5.76845">
        <ele>142</ele>
        <time>2016-04-10T09:01:04.000Z</time>
      </trkpt>
      <trkpt lat="43.21291" lon="5.7684">
        <ele>143</ele>
        <time>2016-04-10T09:01:07.000Z</time>
      </trkpt>
      <trkpt lat="43.21299" lon="5.76837">
        <ele>144</ele>
        <time>2016-04-10T09:01:09.000Z</time>
      </trkpt>
      <trkpt lat="43.21312" lon="5.76832">
        <ele>145.39999389648</ele>
        <time>2016-04-10T09:01:12.000Z</time>
      </trkpt>
      <trkpt lat="43.21338" lon="5.76817">
        <ele>147.80000305176</ele>
        <time>2016-04-10T09:01:18.000Z</time>
      </trkpt>
      <trkpt lat="43.21346" lon="5.76812">
        <ele>148.60000610352</ele>
        <time>2016-04-10T09:01:20.000Z</time>
      </trkpt>
      <trkpt lat="43.21364" lon="5.76799">
        <ele>149.39999389648</ele>
        <time>2016-04-10T09:01:25.000Z</time>
      </trkpt>
      <trkpt lat="43.21367" lon="5.76797">
        <ele>149.39999389648</ele>
        <time>2016-04-10T09:01:26.000Z</time>
      </trkpt>
      <trkpt lat="43.21382" lon="5.76787">
        <ele>149.60000610352</ele>
        <time>2016-04-10T09:01:30.000Z</time>
      </trkpt>
      <trkpt lat="43.21389" lon="5.7678">
        <ele>149.39999389648</ele>
        <time>2016-04-10T09:01:32.000Z</time>
      </trkpt>
      <trkpt lat="43.21392" lon="5.76776">
        <ele>149.39999389648</ele>
        <time>2016-04-10T09:01:33.000Z</time>
      </trkpt>
      <trkpt lat="43.21397" lon="5.76768">
        <ele>148.80000305176</ele>
        <time>2016-04-10T09:01:35.000Z</time>
      </trkpt>
      <trkpt lat="43.21403" lon="5.7676">
        <ele>148.80000305176</ele>
        <time>2016-04-10T09:01:37.000Z</time>
      </trkpt>
      <trkpt lat="43.21415" lon="5.76743">
        <ele>148.60000610352</ele>
        <time>2016-04-10T09:01:41.000Z</time>
      </trkpt>
      <trkpt lat="43.21421" lon="5.76733">
        <ele>148.39999389648</ele>
        <time>2016-04-10T09:01:43.000Z</time>
      </trkpt>
      <trkpt lat="43.21434" lon="5.76714">
        <ele>148</ele>
        <time>2016-04-10T09:01:47.000Z</time>
      </trkpt>
      <trkpt lat="43.21455" lon="5.76685">
        <ele>147.80000305176</ele>
        <time>2016-04-10T09:01:53.000Z</time>
      </trkpt>
      <trkpt lat="43.21483" lon="5.76643">
        <ele>147.60000610352</ele>
        <time>2016-04-10T09:02:01.000Z</time>
      </trkpt>
      <trkpt lat="43.21499" lon="5.76609">
        <ele>146.19999694824</ele>
        <time>2016-04-10T09:02:06.000Z</time>
      </trkpt>
      <trkpt lat="43.21503" lon="5.76601">
        <ele>145.80000305176</ele>
        <time>2016-04-10T09:02:07.000Z</time>
      </trkpt>
      <trkpt lat="43.21513" lon="5.7659">
        <ele>145.39999389648</ele>
        <time>2016-04-10T09:02:09.000Z</time>
      </trkpt>
      <trkpt lat="43.21522" lon="5.7658">
        <ele>145.39999389648</ele>
        <time>2016-04-10T09:02:11.000Z</time>
      </trkpt>
      <trkpt lat="43.21539" lon="5.76563">
        <ele>146.80000305176</ele>
        <time>2016-04-10T09:02:15.000Z</time>
      </trkpt>
      <trkpt lat="43.21563" lon="5.76541">
        <ele>149.19999694824</ele>
        <time>2016-04-10T09:02:21.000Z</time>
      </trkpt>
      <trkpt lat="43.21574" lon="5.7653">
        <ele>150</ele>
        <time>2016-04-10T09:02:24.000Z</time>
      </trkpt>
      <trkpt lat="43.21582" lon="5.76523">
        <ele>150.19999694824</ele>
        <time>2016-04-10T09:02:26.000Z</time>
      </trkpt>
      <trkpt lat="43.21587" lon="5.7652">
        <ele>150.39999389648</ele>
        <time>2016-04-10T09:02:27.000Z</time>
      </trkpt>
      <trkpt lat="43.21598" lon="5.76516">
        <ele>151.19999694824</ele>
        <time>2016-04-10T09:02:29.000Z</time>
      </trkpt>
      <trkpt lat="43.21604" lon="5.76514">
        <ele>151.39999389648</ele>
        <time>2016-04-10T09:02:30.000Z</time>
      </trkpt>
      <trkpt lat="43.21614" lon="5.76505">
        <ele>151</ele>
        <time>2016-04-10T09:02:32.000Z</time>
      </trkpt>
      <trkpt lat="43.21621" lon="5.76492">
        <ele>150.19999694824</ele>
        <time>2016-04-10T09:02:34.000Z</time>
      </trkpt>
      <trkpt lat="43.21626" lon="5.7648">
        <ele>150.80000305176</ele>
        <time>2016-04-10T09:02:36.000Z</time>
      </trkpt>
      <trkpt lat="43.21629" lon="5.76473">
        <ele>151</ele>
        <time>2016-04-10T09:02:37.000Z</time>
      </trkpt>
      <trkpt lat="43.21643" lon="5.7644">
        <ele>149.60000610352</ele>
        <time>2016-04-10T09:02:42.000Z</time>
      </trkpt>
      <trkpt lat="43.21652" lon="5.76422">
        <ele>148.19999694824</ele>
        <time>2016-04-10T09:02:45.000Z</time>
      </trkpt>
      <trkpt lat="43.2166" lon="5.76406">
        <ele>147</ele>
        <time>2016-04-10T09:02:48.000Z</time>
      </trkpt>
      <trkpt lat="43.21674" lon="5.76389">
        <ele>146.60000610352</ele>
        <time>2016-04-10T09:02:51.000Z</time>
      </trkpt>
      <trkpt lat="43.21679" lon="5.76383">
        <ele>146.19999694824</ele>
        <time>2016-04-10T09:02:52.000Z</time>
      </trkpt>
      <trkpt lat="43.21686" lon="5.76376">
        <ele>145.19999694824</ele>
        <time>2016-04-10T09:02:53.000Z</time>
      </trkpt>
      <trkpt lat="43.21702" lon="5.76361">
        <ele>143.60000610352</ele>
        <time>2016-04-10T09:02:55.000Z</time>
      </trkpt>
      <trkpt lat="43.21709" lon="5.76354">
        <ele>142.80000305176</ele>
        <time>2016-04-10T09:02:56.000Z</time>
      </trkpt>
      <trkpt lat="43.21716" lon="5.76348">
        <ele>142.19999694824</ele>
        <time>2016-04-10T09:02:57.000Z</time>
      </trkpt>
      <trkpt lat="43.21727" lon="5.76337">
        <ele>140.60000610352</ele>
        <time>2016-04-10T09:02:59.000Z</time>
      </trkpt>
      <trkpt lat="43.21737" lon="5.76327">
        <ele>139.19999694824</ele>
        <time>2016-04-10T09:03:01.000Z</time>
      </trkpt>
      <trkpt lat="43.21742" lon="5.7632">
        <ele>138</ele>
        <time>2016-04-10T09:03:02.000Z</time>
      </trkpt>
      <trkpt lat="43.21754" lon="5.76297">
        <ele>136</ele>
        <time>2016-04-10T09:03:05.000Z</time>
      </trkpt>
      <trkpt lat="43.21758" lon="5.76292">
        <ele>135.39999389648</ele>
        <time>2016-04-10T09:03:06.000Z</time>
      </trkpt>
      <trkpt lat="43.21772" lon="5.76282">
        <ele>134.60000610352</ele>
        <time>2016-04-10T09:03:09.000Z</time>
      </trkpt>
      <trkpt lat="43.21802" lon="5.76267">
        <ele>134.19999694824</ele>
        <time>2016-04-10T09:03:15.000Z</time>
      </trkpt>
      <trkpt lat="43.21815" lon="5.7626">
        <ele>135.19999694824</ele>
        <time>2016-04-10T09:03:18.000Z</time>
      </trkpt>
      <trkpt lat="43.21824" lon="5.76256">
        <ele>136</ele>
        <time>2016-04-10T09:03:20.000Z</time>
      </trkpt>
      <trkpt lat="43.21833" lon="5.76251">
        <ele>136.80000305176</ele>
        <time>2016-04-10T09:03:22.000Z</time>
      </trkpt>
      <trkpt lat="43.21842" lon="5.76245">
        <ele>137.60000610352</ele>
        <time>2016-04-10T09:03:24.000Z</time>
      </trkpt>
      <trkpt lat="43.2185" lon="5.7624">
        <ele>138.19999694824</ele>
        <time>2016-04-10T09:03:26.000Z</time>
      </trkpt>
      <trkpt lat="43.21864" lon="5.76232">
        <ele>138.19999694824</ele>
        <time>2016-04-10T09:03:29.000Z</time>
      </trkpt>
      <trkpt lat="43.21868" lon="5.7623">
        <ele>138.19999694824</ele>
        <time>2016-04-10T09:03:30.000Z</time>
      </trkpt>
      <trkpt lat="43.2188" lon="5.76222">
        <ele>138</ele>
        <time>2016-04-10T09:03:33.000Z</time>
      </trkpt>
      <trkpt lat="43.21898" lon="5.76213">
        <ele>137.60000610352</ele>
        <time>2016-04-10T09:03:37.000Z</time>
      </trkpt>
      <trkpt lat="43.21908" lon="5.7621">
        <ele>137.39999389648</ele>
        <time>2016-04-10T09:03:39.000Z</time>
      </trkpt>
      <trkpt lat="43.2192" lon="5.76204">
        <ele>137.39999389648</ele>
        <time>2016-04-10T09:03:42.000Z</time>
      </trkpt>
      <trkpt lat="43.21929" lon="5.76197">
        <ele>137.39999389648</ele>
        <time>2016-04-10T09:03:44.000Z</time>
      </trkpt>
      <trkpt lat="43.21941" lon="5.76183">
        <ele>137.60000610352</ele>
        <time>2016-04-10T09:03:47.000Z</time>
      </trkpt>
      <trkpt lat="43.21951" lon="5.76174">
        <ele>137.60000610352</ele>
        <time>2016-04-10T09:03:49.000Z</time>
      </trkpt>
      <trkpt lat="43.2197" lon="5.76152">
        <ele>138.60000610352</ele>
        <time>2016-04-10T09:03:54.000Z</time>
      </trkpt>
      <trkpt lat="43.22004" lon="5.76117">
        <ele>140.39999389648</ele>
        <time>2016-04-10T09:04:03.000Z</time>
      </trkpt>
      <trkpt lat="43.22009" lon="5.76113">
        <ele>140.60000610352</ele>
        <time>2016-04-10T09:04:04.000Z</time>
      </trkpt>
      <trkpt lat="43.22017" lon="5.76105">
        <ele>140.80000305176</ele>
        <time>2016-04-10T09:04:06.000Z</time>
      </trkpt>
      <trkpt lat="43.22025" lon="5.76097">
        <ele>141.19999694824</ele>
        <time>2016-04-10T09:04:08.000Z</time>
      </trkpt>
      <trkpt lat="43.22042" lon="5.76081">
        <ele>141.80000305176</ele>
        <time>2016-04-10T09:04:12.000Z</time>
      </trkpt>
      <trkpt lat="43.22058" lon="5.76066">
        <ele>143.19999694824</ele>
        <time>2016-04-10T09:04:16.000Z</time>
      </trkpt>
      <trkpt lat="43.22076" lon="5.76053">
        <ele>144.60000610352</ele>
        <time>2016-04-10T09:04:20.000Z</time>
      </trkpt>
      <trkpt lat="43.22084" lon="5.76048">
        <ele>145.39999389648</ele>
        <time>2016-04-10T09:04:22.000Z</time>
      </trkpt>
      <trkpt lat="43.22089" lon="5.76046">
        <ele>145.60000610352</ele>
        <time>2016-04-10T09:04:23.000Z</time>
      </trkpt>
      <trkpt lat="43.22099" lon="5.76042">
        <ele>146</ele>
        <time>2016-04-10T09:04:25.000Z</time>
      </trkpt>
      <trkpt lat="43.22119" lon="5.76033">
        <ele>146.39999389648</ele>
        <time>2016-04-10T09:04:29.000Z</time>
      </trkpt>
      <trkpt lat="43.22125" lon="5.7603">
        <ele>146.39999389648</ele>
        <time>2016-04-10T09:04:30.000Z</time>
      </trkpt>
      <trkpt lat="43.22145" lon="5.76022">
        <ele>146.80000305176</ele>
        <time>2016-04-10T09:04:34.000Z</time>
      </trkpt>
      <trkpt lat="43.22159" lon="5.76017">
        <ele>147.80000305176</ele>
        <time>2016-04-10T09:04:37.000Z</time>
      </trkpt>
      <trkpt lat="43.22168" lon="5.76013">
        <ele>148.39999389648</ele>
        <time>2016-04-10T09:04:39.000Z</time>
      </trkpt>
      <trkpt lat="43.22181" lon="5.76006">
        <ele>149.19999694824</ele>
        <time>2016-04-10T09:04:42.000Z</time>
      </trkpt>
      <trkpt lat="43.22186" lon="5.76004">
        <ele>149.19999694824</ele>
        <time>2016-04-10T09:04:43.000Z</time>
      </trkpt>
      <trkpt lat="43.22205" lon="5.75993">
        <ele>149.80000305176</ele>
        <time>2016-04-10T09:04:47.000Z</time>
      </trkpt>
      <trkpt lat="43.22218" lon="5.75984">
        <ele>150.39999389648</ele>
        <time>2016-04-10T09:04:50.000Z</time>
      </trkpt>
      <trkpt lat="43.22225" lon="5.75977">
        <ele>151</ele>
        <time>2016-04-10T09:04:52.000Z</time>
      </trkpt>
      <trkpt lat="43.22245" lon="5.75958">
        <ele>151.60000610352</ele>
        <time>2016-04-10T09:04:57.000Z</time>
      </trkpt>
      <trkpt lat="43.22248" lon="5.75953">
        <ele>151.80000305176</ele>
        <time>2016-04-10T09:04:58.000Z</time>
      </trkpt>
      <trkpt lat="43.22251" lon="5.75948">
        <ele>152.19999694824</ele>
        <time>2016-04-10T09:04:59.000Z</time>
      </trkpt>
      <trkpt lat="43.22264" lon="5.75922">
        <ele>154.39999389648</ele>
        <time>2016-04-10T09:05:04.000Z</time>
      </trkpt>
      <trkpt lat="43.22271" lon="5.75908">
        <ele>155</ele>
        <time>2016-04-10T09:05:07.000Z</time>
      </trkpt>
      <trkpt lat="43.22277" lon="5.75898">
        <ele>155.39999389648</ele>
        <time>2016-04-10T09:05:10.000Z</time>
      </trkpt>
      <trkpt lat="43.22282" lon="5.75884">
        <ele>155.80000305176</ele>
        <time>2016-04-10T09:05:15.000Z</time>
      </trkpt>
      <trkpt lat="43.22278" lon="5.75847">
        <ele>157.19999694824</ele>
        <time>2016-04-10T09:05:20.000Z</time>
      </trkpt>
      <trkpt lat="43.22276" lon="5.75787">
        <ele>157.39999389648</ele>
        <time>2016-04-10T09:05:27.000Z</time>
      </trkpt>
      <trkpt lat="43.22276" lon="5.75732">
        <ele>153.60000610352</ele>
        <time>2016-04-10T09:05:33.000Z</time>
      </trkpt>
      <trkpt lat="43.22275" lon="5.75705">
        <ele>153.39999389648</ele>
        <time>2016-04-10T09:05:36.000Z</time>
      </trkpt>
      <trkpt lat="43.22265" lon="5.75644">
        <ele>152.19999694824</ele>
        <time>2016-04-10T09:05:43.000Z</time>
      </trkpt>
      <trkpt lat="43.22263" lon="5.75635">
        <ele>152</ele>
        <time>2016-04-10T09:05:44.000Z</time>
      </trkpt>
      <trkpt lat="43.22259" lon="5.75628">
        <ele>152.19999694824</ele>
        <time>2016-04-10T09:05:45.000Z</time>
      </trkpt>
      <trkpt lat="43.2225" lon="5.75616">
        <ele>152.60000610352</ele>
        <time>2016-04-10T09:05:47.000Z</time>
      </trkpt>
      <trkpt lat="43.22228" lon="5.75603">
        <ele>153.19999694824</ele>
        <time>2016-04-10T09:05:51.000Z</time>
      </trkpt>
      <trkpt lat="43.22223" lon="5.75601">
        <ele>153.19999694824</ele>
        <time>2016-04-10T09:05:52.000Z</time>
      </trkpt>
      <trkpt lat="43.22174" lon="5.75585">
        <ele>152.60000610352</ele>
        <time>2016-04-10T09:06:00.000Z</time>
      </trkpt>
      <trkpt lat="43.22147" lon="5.75568">
        <ele>152.39999389648</ele>
        <time>2016-04-10T09:06:05.000Z</time>
      </trkpt>
      <trkpt lat="43.22138" lon="5.75557">
        <ele>152.80000305176</ele>
        <time>2016-04-10T09:06:07.000Z</time>
      </trkpt>
      <trkpt lat="43.22125" lon="5.75537">
        <ele>152.19999694824</ele>
        <time>2016-04-10T09:06:10.000Z</time>
      </trkpt>
      <trkpt lat="43.22089" lon="5.75484">
        <ele>149.80000305176</ele>
        <time>2016-04-10T09:06:17.000Z</time>
      </trkpt>
      <trkpt lat="43.22083" lon="5.75477">
        <ele>149.60000610352</ele>
        <time>2016-04-10T09:06:18.000Z</time>
      </trkpt>
      <trkpt lat="43.22064" lon="5.75455">
        <ele>148.39999389648</ele>
        <time>2016-04-10T09:06:21.000Z</time>
      </trkpt>
      <trkpt lat="43.2205" lon="5.75443">
        <ele>147.39999389648</ele>
        <time>2016-04-10T09:06:23.000Z</time>
      </trkpt>
      <trkpt lat="43.22043" lon="5.75437">
        <ele>147</ele>
        <time>2016-04-10T09:06:24.000Z</time>
      </trkpt>
      <trkpt lat="43.2202" lon="5.75424">
        <ele>145.80000305176</ele>
        <time>2016-04-10T09:06:27.000Z</time>
      </trkpt>
      <trkpt lat="43.22012" lon="5.75419">
        <ele>145.39999389648</ele>
        <time>2016-04-10T09:06:28.000Z</time>
      </trkpt>
      <trkpt lat="43.21997" lon="5.75409">
        <ele>145.19999694824</ele>
        <time>2016-04-10T09:06:30.000Z</time>
      </trkpt>
      <trkpt lat="43.21975" lon="5.7539">
        <ele>145</ele>
        <time>2016-04-10T09:06:33.000Z</time>
      </trkpt>
      <trkpt lat="43.21967" lon="5.75385">
        <ele>145</ele>
        <time>2016-04-10T09:06:34.000Z</time>
      </trkpt>
      <trkpt lat="43.21959" lon="5.75381">
        <ele>145</ele>
        <time>2016-04-10T09:06:35.000Z</time>
      </trkpt>
      <trkpt lat="43.2195" lon="5.75378">
        <ele>144.80000305176</ele>
        <time>2016-04-10T09:06:36.000Z</time>
      </trkpt>
      <trkpt lat="43.21941" lon="5.75376">
        <ele>144.80000305176</ele>
        <time>2016-04-10T09:06:37.000Z</time>
      </trkpt>
      <trkpt lat="43.21925" lon="5.75378">
        <ele>145.19999694824</ele>
        <time>2016-04-10T09:06:39.000Z</time>
      </trkpt>
      <trkpt lat="43.21918" lon="5.75381">
        <ele>145.39999389648</ele>
        <time>2016-04-10T09:06:40.000Z</time>
      </trkpt>
      <trkpt lat="43.21906" lon="5.75391">
        <ele>144.60000610352</ele>
        <time>2016-04-10T09:06:42.000Z</time>
      </trkpt>
      <trkpt lat="43.21901" lon="5.75397">
        <ele>144.60000610352</ele>
        <time>2016-04-10T09:06:43.000Z</time>
      </trkpt>
      <trkpt lat="43.21895" lon="5.75402">
        <ele>144.80000305176</ele>
        <time>2016-04-10T09:06:44.000Z</time>
      </trkpt>
      <trkpt lat="43.21889" lon="5.75407">
        <ele>144.80000305176</ele>
        <time>2016-04-10T09:06:45.000Z</time>
      </trkpt>
      <trkpt lat="43.21876" lon="5.75412">
        <ele>144.60000610352</ele>
        <time>2016-04-10T09:06:47.000Z</time>
      </trkpt>
      <trkpt lat="43.21858" lon="5.75411">
        <ele>143.80000305176</ele>
        <time>2016-04-10T09:06:50.000Z</time>
      </trkpt>
      <trkpt lat="43.21852" lon="5.75409">
        <ele>143.39999389648</ele>
        <time>2016-04-10T09:06:51.000Z</time>
      </trkpt>
      <trkpt lat="43.21846" lon="5.75407">
        <ele>143</ele>
        <time>2016-04-10T09:06:52.000Z</time>
      </trkpt>
      <trkpt lat="43.21828" lon="5.75409">
        <ele>143.39999389648</ele>
        <time>2016-04-10T09:06:55.000Z</time>
      </trkpt>
      <trkpt lat="43.21811" lon="5.75416">
        <ele>143.80000305176</ele>
        <time>2016-04-10T09:06:58.000Z</time>
      </trkpt>
      <trkpt lat="43.21805" lon="5.75418">
        <ele>144</ele>
        <time>2016-04-10T09:06:59.000Z</time>
      </trkpt>
      <trkpt lat="43.218" lon="5.75419">
        <ele>144</ele>
        <time>2016-04-10T09:07:00.000Z</time>
      </trkpt>
      <trkpt lat="43.21762" lon="5.75434">
        <ele>142.19999694824</ele>
        <time>2016-04-10T09:07:07.000Z</time>
      </trkpt>
      <trkpt lat="43.21748" lon="5.75442">
        <ele>142</ele>
        <time>2016-04-10T09:07:10.000Z</time>
      </trkpt>
      <trkpt lat="43.21739" lon="5.75446">
        <ele>142</ele>
        <time>2016-04-10T09:07:12.000Z</time>
      </trkpt>
      <trkpt lat="43.21735" lon="5.75448">
        <ele>142.19999694824</ele>
        <time>2016-04-10T09:07:13.000Z</time>
      </trkpt>
      <trkpt lat="43.2172" lon="5.75454">
        <ele>142.60000610352</ele>
        <time>2016-04-10T09:07:16.000Z</time>
      </trkpt>
      <trkpt lat="43.21703" lon="5.75457">
        <ele>143.39999389648</ele>
        <time>2016-04-10T09:07:19.000Z</time>
      </trkpt>
      <trkpt lat="43.21687" lon="5.75461">
        <ele>144</ele>
        <time>2016-04-10T09:07:22.000Z</time>
      </trkpt>
      <trkpt lat="43.21673" lon="5.75462">
        <ele>144</ele>
        <time>2016-04-10T09:07:25.000Z</time>
      </trkpt>
      <trkpt lat="43.21662" lon="5.75462">
        <ele>143.39999389648</ele>
        <time>2016-04-10T09:07:27.000Z</time>
      </trkpt>
      <trkpt lat="43.21634" lon="5.75457">
        <ele>142.19999694824</ele>
        <time>2016-04-10T09:07:32.000Z</time>
      </trkpt>
      <trkpt lat="43.21592" lon="5.75443">
        <ele>140.60000610352</ele>
        <time>2016-04-10T09:07:39.000Z</time>
      </trkpt>
      <trkpt lat="43.21586" lon="5.7544">
        <ele>140.60000610352</ele>
        <time>2016-04-10T09:07:40.000Z</time>
      </trkpt>
      <trkpt lat="43.2156" lon="5.75422">
        <ele>140.39999389648</ele>
        <time>2016-04-10T09:07:45.000Z</time>
      </trkpt>
      <trkpt lat="43.21551" lon="5.75414">
        <ele>140.39999389648</ele>
        <time>2016-04-10T09:07:47.000Z</time>
      </trkpt>
      <trkpt lat="43.21543" lon="5.75405">
        <ele>140.39999389648</ele>
        <time>2016-04-10T09:07:49.000Z</time>
      </trkpt>
      <trkpt lat="43.21535" lon="5.75394">
        <ele>140.39999389648</ele>
        <time>2016-04-10T09:07:51.000Z</time>
      </trkpt>
      <trkpt lat="43.21532" lon="5.75388">
        <ele>140.39999389648</ele>
        <time>2016-04-10T09:07:52.000Z</time>
      </trkpt>
      <trkpt lat="43.21525" lon="5.75376">
        <ele>141</ele>
        <time>2016-04-10T09:07:54.000Z</time>
      </trkpt>
      <trkpt lat="43.21518" lon="5.75368">
        <ele>141.39999389648</ele>
        <time>2016-04-10T09:07:56.000Z</time>
      </trkpt>
      <trkpt lat="43.21514" lon="5.75366">
        <ele>141.39999389648</ele>
        <time>2016-04-10T09:07:57.000Z</time>
      </trkpt>
      <trkpt lat="43.21497" lon="5.7536">
        <ele>141.60000610352</ele>
        <time>2016-04-10T09:08:00.000Z</time>
      </trkpt>
      <trkpt lat="43.21486" lon="5.75358">
        <ele>141.80000305176</ele>
        <time>2016-04-10T09:08:02.000Z</time>
      </trkpt>
      <trkpt lat="43.21444" lon="5.75357">
        <ele>141.39999389648</ele>
        <time>2016-04-10T09:08:09.000Z</time>
      </trkpt>
      <trkpt lat="43.21411" lon="5.75352">
        <ele>140.60000610352</ele>
        <time>2016-04-10T09:08:15.000Z</time>
      </trkpt>
      <trkpt lat="43.21406" lon="5.7535">
        <ele>140.60000610352</ele>
        <time>2016-04-10T09:08:16.000Z</time>
      </trkpt>
      <trkpt lat="43.21382" lon="5.75337">
        <ele>140.39999389648</ele>
        <time>2016-04-10T09:08:21.000Z</time>
      </trkpt>
      <trkpt lat="43.21371" lon="5.75334">
        <ele>140.19999694824</ele>
        <time>2016-04-10T09:08:23.000Z</time>
      </trkpt>
      <trkpt lat="43.21336" lon="5.7533">
        <ele>139.60000610352</ele>
        <time>2016-04-10T09:08:29.000Z</time>
      </trkpt>
      <trkpt lat="43.21319" lon="5.75324">
        <ele>139</ele>
        <time>2016-04-10T09:08:32.000Z</time>
      </trkpt>
      <trkpt lat="43.21315" lon="5.7532">
        <ele>139</ele>
        <time>2016-04-10T09:08:33.000Z</time>
      </trkpt>
      <trkpt lat="43.21312" lon="5.75303">
        <ele>139.39999389648</ele>
        <time>2016-04-10T09:08:36.000Z</time>
      </trkpt>
      <trkpt lat="43.21315" lon="5.75294">
        <ele>140</ele>
        <time>2016-04-10T09:08:37.000Z</time>
      </trkpt>
      <trkpt lat="43.21319" lon="5.75285">
        <ele>140.60000610352</ele>
        <time>2016-04-10T09:08:38.000Z</time>
      </trkpt>
      <trkpt lat="43.21322" lon="5.75275">
        <ele>141</ele>
        <time>2016-04-10T09:08:39.000Z</time>
      </trkpt>
      <trkpt lat="43.21323" lon="5.75266">
        <ele>141.19999694824</ele>
        <time>2016-04-10T09:08:40.000Z</time>
      </trkpt>
      <trkpt lat="43.21323" lon="5.75249">
        <ele>141.39999389648</ele>
        <time>2016-04-10T09:08:42.000Z</time>
      </trkpt>
      <trkpt lat="43.21319" lon="5.75234">
        <ele>141.60000610352</ele>
        <time>2016-04-10T09:08:44.000Z</time>
      </trkpt>
      <trkpt lat="43.21317" lon="5.75229">
        <ele>141.60000610352</ele>
        <time>2016-04-10T09:08:45.000Z</time>
      </trkpt>
      <trkpt lat="43.21314" lon="5.75224">
        <ele>141.60000610352</ele>
        <time>2016-04-10T09:08:46.000Z</time>
      </trkpt>
      <trkpt lat="43.21303" lon="5.75212">
        <ele>142</ele>
        <time>2016-04-10T09:08:52.000Z</time>
      </trkpt>
      <trkpt lat="43.21292" lon="5.75217">
        <ele>141.60000610352</ele>
        <time>2016-04-10T09:08:53.000Z</time>
      </trkpt>
      <trkpt lat="43.21282" lon="5.75221">
        <ele>141.19999694824</ele>
        <time>2016-04-10T09:08:54.000Z</time>
      </trkpt>
      <trkpt lat="43.21265" lon="5.75225">
        <ele>141</ele>
        <time>2016-04-10T09:08:56.000Z</time>
      </trkpt>
      <trkpt lat="43.21246" lon="5.75233">
        <ele>139</ele>
        <time>2016-04-10T09:08:58.000Z</time>
      </trkpt>
      <trkpt lat="43.21229" lon="5.75236">
        <ele>137.19999694824</ele>
        <time>2016-04-10T09:09:00.000Z</time>
      </trkpt>
      <trkpt lat="43.21212" lon="5.75233">
        <ele>135.60000610352</ele>
        <time>2016-04-10T09:09:03.000Z</time>
      </trkpt>
      <trkpt lat="43.21202" lon="5.75224">
        <ele>135</ele>
        <time>2016-04-10T09:09:05.000Z</time>
      </trkpt>
      <trkpt lat="43.21167" lon="5.75178">
        <ele>133.39999389648</ele>
        <time>2016-04-10T09:09:13.000Z</time>
      </trkpt>
      <trkpt lat="43.21162" lon="5.75172">
        <ele>133.19999694824</ele>
        <time>2016-04-10T09:09:14.000Z</time>
      </trkpt>
      <trkpt lat="43.21156" lon="5.75166">
        <ele>132.80000305176</ele>
        <time>2016-04-10T09:09:15.000Z</time>
      </trkpt>
      <trkpt lat="43.2114" lon="5.75147">
        <ele>132</ele>
        <time>2016-04-10T09:09:18.000Z</time>
      </trkpt>
      <trkpt lat="43.21134" lon="5.75141">
        <ele>131.60000610352</ele>
        <time>2016-04-10T09:09:19.000Z</time>
      </trkpt>
      <trkpt lat="43.21118" lon="5.75134">
        <ele>130.39999389648</ele>
        <time>2016-04-10T09:09:21.000Z</time>
      </trkpt>
      <trkpt lat="43.2111" lon="5.75131">
        <ele>129.80000305176</ele>
        <time>2016-04-10T09:09:22.000Z</time>
      </trkpt>
      <trkpt lat="43.21095" lon="5.75126">
        <ele>128.60000610352</ele>
        <time>2016-04-10T09:09:24.000Z</time>
      </trkpt>
      <trkpt lat="43.21068" lon="5.75109">
        <ele>127.80000305176</ele>
        <time>2016-04-10T09:09:28.000Z</time>
      </trkpt>
      <trkpt lat="43.21058" lon="5.75098">
        <ele>127.80000305176</ele>
        <time>2016-04-10T09:09:30.000Z</time>
      </trkpt>
      <trkpt lat="43.21051" lon="5.75085">
        <ele>128</ele>
        <time>2016-04-10T09:09:32.000Z</time>
      </trkpt>
      <trkpt lat="43.21048" lon="5.75078">
        <ele>128.19999694824</ele>
        <time>2016-04-10T09:09:33.000Z</time>
      </trkpt>
      <trkpt lat="43.2104" lon="5.75056">
        <ele>129</ele>
        <time>2016-04-10T09:09:36.000Z</time>
      </trkpt>
      <trkpt lat="43.21035" lon="5.7504">
        <ele>128.60000610352</ele>
        <time>2016-04-10T09:09:38.000Z</time>
      </trkpt>
      <trkpt lat="43.21025" lon="5.75008">
        <ele>128</ele>
        <time>2016-04-10T09:09:43.000Z</time>
      </trkpt>
      <trkpt lat="43.2102" lon="5.75001">
        <ele>127.59999847412</ele>
        <time>2016-04-10T09:09:46.000Z</time>
      </trkpt>
      <trkpt lat="43.21018" lon="5.75">
        <ele>127.40000152588</ele>
        <time>2016-04-10T09:09:47.000Z</time>
      </trkpt>
      <trkpt lat="43.21006" lon="5.75002">
        <ele>126.19999694824</ele>
        <time>2016-04-10T09:09:50.000Z</time>
      </trkpt>
      <trkpt lat="43.2099" lon="5.75014">
        <ele>123.80000305176</ele>
        <time>2016-04-10T09:09:53.000Z</time>
      </trkpt>
      <trkpt lat="43.20978" lon="5.75022">
        <ele>122.19999694824</ele>
        <time>2016-04-10T09:09:55.000Z</time>
      </trkpt>
      <trkpt lat="43.20962" lon="5.75033">
        <ele>121</ele>
        <time>2016-04-10T09:09:58.000Z</time>
      </trkpt>
      <trkpt lat="43.20953" lon="5.7504">
        <ele>120.19999694824</ele>
        <time>2016-04-10T09:10:00.000Z</time>
      </trkpt>
      <trkpt lat="43.20949" lon="5.75043">
        <ele>119.80000305176</ele>
        <time>2016-04-10T09:10:01.000Z</time>
      </trkpt>
      <trkpt lat="43.20946" lon="5.75045">
        <ele>119.59999847412</ele>
        <time>2016-04-10T09:10:02.000Z</time>
      </trkpt>
      <trkpt lat="43.20943" lon="5.75045">
        <ele>119.19999694824</ele>
        <time>2016-04-10T09:10:03.000Z</time>
      </trkpt>
      <trkpt lat="43.2094" lon="5.75044">
        <ele>118.80000305176</ele>
        <time>2016-04-10T09:10:04.000Z</time>
      </trkpt>
      <trkpt lat="43.20936" lon="5.75037">
        <ele>118.19999694824</ele>
        <time>2016-04-10T09:10:06.000Z</time>
      </trkpt>
      <trkpt lat="43.20937" lon="5.7503">
        <ele>118</ele>
        <time>2016-04-10T09:10:07.000Z</time>
      </trkpt>
      <trkpt lat="43.20937" lon="5.75023">
        <ele>117.80000305176</ele>
        <time>2016-04-10T09:10:08.000Z</time>
      </trkpt>
      <trkpt lat="43.20937" lon="5.7501">
        <ele>117.40000152588</ele>
        <time>2016-04-10T09:10:10.000Z</time>
      </trkpt>
      <trkpt lat="43.20937" lon="5.74993">
        <ele>116.80000305176</ele>
        <time>2016-04-10T09:10:13.000Z</time>
      </trkpt>
      <trkpt lat="43.20941" lon="5.74978">
        <ele>116.80000305176</ele>
        <time>2016-04-10T09:10:16.000Z</time>
      </trkpt>
      <trkpt lat="43.20945" lon="5.74963">
        <ele>116.80000305176</ele>
        <time>2016-04-10T09:10:18.000Z</time>
      </trkpt>
      <trkpt lat="43.20951" lon="5.74939">
        <ele>116</ele>
        <time>2016-04-10T09:10:21.000Z</time>
      </trkpt>
      <trkpt lat="43.20963" lon="5.74896">
        <ele>114.80000305176</ele>
        <time>2016-04-10T09:10:26.000Z</time>
      </trkpt>
      <trkpt lat="43.20965" lon="5.74888">
        <ele>114.80000305176</ele>
        <time>2016-04-10T09:10:27.000Z</time>
      </trkpt>
      <trkpt lat="43.20972" lon="5.74854">
        <ele>115.80000305176</ele>
        <time>2016-04-10T09:10:31.000Z</time>
      </trkpt>
      <trkpt lat="43.20972" lon="5.74844">
        <ele>115.59999847412</ele>
        <time>2016-04-10T09:10:32.000Z</time>
      </trkpt>
      <trkpt lat="43.20967" lon="5.74816">
        <ele>114</ele>
        <time>2016-04-10T09:10:35.000Z</time>
      </trkpt>
      <trkpt lat="43.20965" lon="5.74808">
        <ele>113.40000152588</ele>
        <time>2016-04-10T09:10:36.000Z</time>
      </trkpt>
      <trkpt lat="43.20949" lon="5.74763">
        <ele>112</ele>
        <time>2016-04-10T09:10:41.000Z</time>
      </trkpt>
      <trkpt lat="43.20946" lon="5.74754">
        <ele>111.80000305176</ele>
        <time>2016-04-10T09:10:42.000Z</time>
      </trkpt>
      <trkpt lat="43.2094" lon="5.74715">
        <ele>111.19999694824</ele>
        <time>2016-04-10T09:10:46.000Z</time>
      </trkpt>
      <trkpt lat="43.2094" lon="5.74705">
        <ele>110.80000305176</ele>
        <time>2016-04-10T09:10:47.000Z</time>
      </trkpt>
      <trkpt lat="43.20945" lon="5.7467">
        <ele>110.59999847412</ele>
        <time>2016-04-10T09:10:51.000Z</time>
      </trkpt>
      <trkpt lat="43.20947" lon="5.74661">
        <ele>110.59999847412</ele>
        <time>2016-04-10T09:10:52.000Z</time>
      </trkpt>
      <trkpt lat="43.20948" lon="5.74652">
        <ele>110.59999847412</ele>
        <time>2016-04-10T09:10:53.000Z</time>
      </trkpt>
      <trkpt lat="43.20949" lon="5.74616">
        <ele>110.80000305176</ele>
        <time>2016-04-10T09:10:57.000Z</time>
      </trkpt>
      <trkpt lat="43.20949" lon="5.7456">
        <ele>110.80000305176</ele>
        <time>2016-04-10T09:11:03.000Z</time>
      </trkpt>
      <trkpt lat="43.20947" lon="5.74533">
        <ele>110.40000152588</ele>
        <time>2016-04-10T09:11:06.000Z</time>
      </trkpt>
      <trkpt lat="43.20936" lon="5.74491">
        <ele>109.59999847412</ele>
        <time>2016-04-10T09:11:11.000Z</time>
      </trkpt>
      <trkpt lat="43.20929" lon="5.74477">
        <ele>109</ele>
        <time>2016-04-10T09:11:13.000Z</time>
      </trkpt>
      <trkpt lat="43.20915" lon="5.7446">
        <ele>109.19999694824</ele>
        <time>2016-04-10T09:11:16.000Z</time>
      </trkpt>
      <trkpt lat="43.2089" lon="5.74453">
        <ele>109.19999694824</ele>
        <time>2016-04-10T09:11:20.000Z</time>
      </trkpt>
      <trkpt lat="43.20877" lon="5.74455">
        <ele>109</ele>
        <time>2016-04-10T09:11:22.000Z</time>
      </trkpt>
      <trkpt lat="43.20844" lon="5.74458">
        <ele>108.40000152588</ele>
        <time>2016-04-10T09:11:27.000Z</time>
      </trkpt>
      <trkpt lat="43.20825" lon="5.74456">
        <ele>107.80000305176</ele>
        <time>2016-04-10T09:11:30.000Z</time>
      </trkpt>
      <trkpt lat="43.20813" lon="5.74452">
        <ele>107.59999847412</ele>
        <time>2016-04-10T09:11:32.000Z</time>
      </trkpt>
      <trkpt lat="43.20792" lon="5.74432">
        <ele>107.40000152588</ele>
        <time>2016-04-10T09:11:36.000Z</time>
      </trkpt>
      <trkpt lat="43.20766" lon="5.74398">
        <ele>107</ele>
        <time>2016-04-10T09:11:42.000Z</time>
      </trkpt>
      <trkpt lat="43.20758" lon="5.74385">
        <ele>106.59999847412</ele>
        <time>2016-04-10T09:11:44.000Z</time>
      </trkpt>
      <trkpt lat="43.20751" lon="5.74372">
        <ele>106.19999694824</ele>
        <time>2016-04-10T09:11:46.000Z</time>
      </trkpt>
      <trkpt lat="43.20738" lon="5.74341">
        <ele>105.80000305176</ele>
        <time>2016-04-10T09:11:50.000Z</time>
      </trkpt>
      <trkpt lat="43.20723" lon="5.74284">
        <ele>105.40000152588</ele>
        <time>2016-04-10T09:11:57.000Z</time>
      </trkpt>
      <trkpt lat="43.20713" lon="5.74243">
        <ele>104.40000152588</ele>
        <time>2016-04-10T09:12:02.000Z</time>
      </trkpt>
      <trkpt lat="43.20709" lon="5.74218">
        <ele>104.59999847412</ele>
        <time>2016-04-10T09:12:05.000Z</time>
      </trkpt>
      <trkpt lat="43.20703" lon="5.74184">
        <ele>104.40000152588</ele>
        <time>2016-04-10T09:12:09.000Z</time>
      </trkpt>
      <trkpt lat="43.207" lon="5.74177">
        <ele>104.19999694824</ele>
        <time>2016-04-10T09:12:10.000Z</time>
      </trkpt>
      <trkpt lat="43.20697" lon="5.74169">
        <ele>103.80000305176</ele>
        <time>2016-04-10T09:12:11.000Z</time>
      </trkpt>
      <trkpt lat="43.20682" lon="5.7415">
        <ele>102.19999694824</ele>
        <time>2016-04-10T09:12:14.000Z</time>
      </trkpt>
      <trkpt lat="43.20676" lon="5.74144">
        <ele>101.80000305176</ele>
        <time>2016-04-10T09:12:15.000Z</time>
      </trkpt>
      <trkpt lat="43.20659" lon="5.74126">
        <ele>101.40000152588</ele>
        <time>2016-04-10T09:12:18.000Z</time>
      </trkpt>
      <trkpt lat="43.20641" lon="5.74107">
        <ele>100.80000305176</ele>
        <time>2016-04-10T09:12:21.000Z</time>
      </trkpt>
      <trkpt lat="43.20629" lon="5.74095">
        <ele>100.40000152588</ele>
        <time>2016-04-10T09:12:23.000Z</time>
      </trkpt>
      <trkpt lat="43.20602" lon="5.74073">
        <ele>99.599998474121</ele>
        <time>2016-04-10T09:12:27.000Z</time>
      </trkpt>
      <trkpt lat="43.20588" lon="5.74065">
        <ele>98.800003051758</ele>
        <time>2016-04-10T09:12:29.000Z</time>
      </trkpt>
      <trkpt lat="43.20581" lon="5.74062">
        <ele>98.400001525879</ele>
        <time>2016-04-10T09:12:30.000Z</time>
      </trkpt>
      <trkpt lat="43.20559" lon="5.74048">
        <ele>96.800003051758</ele>
        <time>2016-04-10T09:12:33.000Z</time>
      </trkpt>
      <trkpt lat="43.20553" lon="5.7404">
        <ele>96.400001525879</ele>
        <time>2016-04-10T09:12:34.000Z</time>
      </trkpt>
      <trkpt lat="43.20534" lon="5.74002">
        <ele>94.800003051758</ele>
        <time>2016-04-10T09:12:38.000Z</time>
      </trkpt>
      <trkpt lat="43.2053" lon="5.73993">
        <ele>94.400001525879</ele>
        <time>2016-04-10T09:12:39.000Z</time>
      </trkpt>
      <trkpt lat="43.20521" lon="5.73975">
        <ele>93.599998474121</ele>
        <time>2016-04-10T09:12:41.000Z</time>
      </trkpt>
      <trkpt lat="43.20515" lon="5.73967">
        <ele>93.199996948242</ele>
        <time>2016-04-10T09:12:42.000Z</time>
      </trkpt>
      <trkpt lat="43.20503" lon="5.73955">
        <ele>92.599998474121</ele>
        <time>2016-04-10T09:12:44.000Z</time>
      </trkpt>
      <trkpt lat="43.20481" lon="5.73948">
        <ele>91.800003051758</ele>
        <time>2016-04-10T09:12:47.000Z</time>
      </trkpt>
      <trkpt lat="43.20467" lon="5.7395">
        <ele>91.400001525879</ele>
        <time>2016-04-10T09:12:49.000Z</time>
      </trkpt>
      <trkpt lat="43.20454" lon="5.73953">
        <ele>91</ele>
        <time>2016-04-10T09:12:51.000Z</time>
      </trkpt>
      <trkpt lat="43.20396" lon="5.73967">
        <ele>90.800003051758</ele>
        <time>2016-04-10T09:13:00.000Z</time>
      </trkpt>
      <trkpt lat="43.20349" lon="5.73974">
        <ele>92</ele>
        <time>2016-04-10T09:13:08.000Z</time>
      </trkpt>
      <trkpt lat="43.2033" lon="5.7398">
        <ele>93</ele>
        <time>2016-04-10T09:13:13.000Z</time>
      </trkpt>
      <trkpt lat="43.20326" lon="5.73979">
        <ele>93.199996948242</ele>
        <time>2016-04-10T09:13:14.000Z</time>
      </trkpt>
      <trkpt lat="43.20316" lon="5.73977">
        <ele>94</ele>
        <time>2016-04-10T09:13:16.000Z</time>
      </trkpt>
      <trkpt lat="43.2031" lon="5.73976">
        <ele>94.400001525879</ele>
        <time>2016-04-10T09:13:17.000Z</time>
      </trkpt>
      <trkpt lat="43.2028" lon="5.73977">
        <ele>96.599998474121</ele>
        <time>2016-04-10T09:13:22.000Z</time>
      </trkpt>
      <trkpt lat="43.20268" lon="5.73978">
        <ele>97.400001525879</ele>
        <time>2016-04-10T09:13:24.000Z</time>
      </trkpt>
      <trkpt lat="43.20258" lon="5.73978">
        <ele>98.199996948242</ele>
        <time>2016-04-10T09:13:26.000Z</time>
      </trkpt>
      <trkpt lat="43.20249" lon="5.73975">
        <ele>99</ele>
        <time>2016-04-10T09:13:28.000Z</time>
      </trkpt>
      <trkpt lat="43.20246" lon="5.73977">
        <ele>99.199996948242</ele>
        <time>2016-04-10T09:13:29.000Z</time>
      </trkpt>
      <trkpt lat="43.20243" lon="5.73982">
        <ele>99.400001525879</ele>
        <time>2016-04-10T09:13:30.000Z</time>
      </trkpt>
      <trkpt lat="43.20241" lon="5.74004">
        <ele>99.400001525879</ele>
        <time>2016-04-10T09:13:33.000Z</time>
      </trkpt>
      <trkpt lat="43.2024" lon="5.74012">
        <ele>99.400001525879</ele>
        <time>2016-04-10T09:13:34.000Z</time>
      </trkpt>
      <trkpt lat="43.2024" lon="5.74057">
        <ele>98.800003051758</ele>
        <time>2016-04-10T09:13:39.000Z</time>
      </trkpt>
      <trkpt lat="43.20236" lon="5.74131">
        <ele>97.599998474121</ele>
        <time>2016-04-10T09:13:47.000Z</time>
      </trkpt>
      <trkpt lat="43.20224" lon="5.74188">
        <ele>97.199996948242</ele>
        <time>2016-04-10T09:13:54.000Z</time>
      </trkpt>
      <trkpt lat="43.20217" lon="5.74209">
        <ele>96.800003051758</ele>
        <time>2016-04-10T09:13:57.000Z</time>
      </trkpt>
      <trkpt lat="43.2021" lon="5.74236">
        <ele>96.599998474121</ele>
        <time>2016-04-10T09:14:01.000Z</time>
      </trkpt>
      <trkpt lat="43.20194" lon="5.74296">
        <ele>96.199996948242</ele>
        <time>2016-04-10T09:14:09.000Z</time>
      </trkpt>
      <trkpt lat="43.20177" lon="5.74349">
        <ele>95.400001525879</ele>
        <time>2016-04-10T09:14:16.000Z</time>
      </trkpt>
      <trkpt lat="43.20149" lon="5.74416">
        <ele>95.199996948242</ele>
        <time>2016-04-10T09:14:25.000Z</time>
      </trkpt>
      <trkpt lat="43.20131" lon="5.7446">
        <ele>95.599998474121</ele>
        <time>2016-04-10T09:14:31.000Z</time>
      </trkpt>
      <trkpt lat="43.20106" lon="5.74508">
        <ele>96.599998474121</ele>
        <time>2016-04-10T09:14:38.000Z</time>
      </trkpt>
      <trkpt lat="43.20102" lon="5.74513">
        <ele>96.800003051758</ele>
        <time>2016-04-10T09:14:39.000Z</time>
      </trkpt>
      <trkpt lat="43.2008" lon="5.74542">
        <ele>98.599998474121</ele>
        <time>2016-04-10T09:14:44.000Z</time>
      </trkpt>
      <trkpt lat="43.20066" lon="5.7456">
        <ele>100</ele>
        <time>2016-04-10T09:14:47.000Z</time>
      </trkpt>
      <trkpt lat="43.20062" lon="5.74565">
        <ele>100.59999847412</ele>
        <time>2016-04-10T09:14:48.000Z</time>
      </trkpt>
      <trkpt lat="43.20044" lon="5.74588">
        <ele>102.59999847412</ele>
        <time>2016-04-10T09:14:52.000Z</time>
      </trkpt>
      <trkpt lat="43.20026" lon="5.74612">
        <ele>103</ele>
        <time>2016-04-10T09:14:56.000Z</time>
      </trkpt>
      <trkpt lat="43.20022" lon="5.74617">
        <ele>103.19999694824</ele>
        <time>2016-04-10T09:14:57.000Z</time>
      </trkpt>
      <trkpt lat="43.20013" lon="5.74629">
        <ele>103.40000152588</ele>
        <time>2016-04-10T09:14:59.000Z</time>
      </trkpt>
      <trkpt lat="43.19995" lon="5.74653">
        <ele>106</ele>
        <time>2016-04-10T09:15:03.000Z</time>
      </trkpt>
      <trkpt lat="43.1998" lon="5.74678">
        <ele>108.59999847412</ele>
        <time>2016-04-10T09:15:07.000Z</time>
      </trkpt>
      <trkpt lat="43.1997" lon="5.74699">
        <ele>109.40000152588</ele>
        <time>2016-04-10T09:15:10.000Z</time>
      </trkpt>
      <trkpt lat="43.19957" lon="5.74728">
        <ele>110.59999847412</ele>
        <time>2016-04-10T09:15:14.000Z</time>
      </trkpt>
      <trkpt lat="43.19954" lon="5.74735">
        <ele>111</ele>
        <time>2016-04-10T09:15:15.000Z</time>
      </trkpt>
      <trkpt lat="43.19945" lon="5.74755">
        <ele>111.59999847412</ele>
        <time>2016-04-10T09:15:18.000Z</time>
      </trkpt>
      <trkpt lat="43.19932" lon="5.74783">
        <ele>112.40000152588</ele>
        <time>2016-04-10T09:15:22.000Z</time>
      </trkpt>
      <trkpt lat="43.19918" lon="5.74812">
        <ele>115.19999694824</ele>
        <time>2016-04-10T09:15:26.000Z</time>
      </trkpt>
      <trkpt lat="43.19909" lon="5.74833">
        <ele>118</ele>
        <time>2016-04-10T09:15:29.000Z</time>
      </trkpt>
      <trkpt lat="43.19906" lon="5.7484">
        <ele>118.80000305176</ele>
        <time>2016-04-10T09:15:30.000Z</time>
      </trkpt>
      <trkpt lat="43.19894" lon="5.74866">
        <ele>122.40000152588</ele>
        <time>2016-04-10T09:15:34.000Z</time>
      </trkpt>
      <trkpt lat="43.19891" lon="5.74873">
        <ele>123.40000152588</ele>
        <time>2016-04-10T09:15:35.000Z</time>
      </trkpt>
      <trkpt lat="43.19886" lon="5.74887">
        <ele>124.80000305176</ele>
        <time>2016-04-10T09:15:37.000Z</time>
      </trkpt>
      <trkpt lat="43.19879" lon="5.74917">
        <ele>127</ele>
        <time>2016-04-10T09:15:41.000Z</time>
      </trkpt>
      <trkpt lat="43.19876" lon="5.74941">
        <ele>128.60000610352</ele>
        <time>2016-04-10T09:15:44.000Z</time>
      </trkpt>
      <trkpt lat="43.19875" lon="5.74967">
        <ele>130</ele>
        <time>2016-04-10T09:15:47.000Z</time>
      </trkpt>
      <trkpt lat="43.19875" lon="5.74975">
        <ele>130.19999694824</ele>
        <time>2016-04-10T09:15:48.000Z</time>
      </trkpt>
      <trkpt lat="43.19874" lon="5.75007">
        <ele>130.80000305176</ele>
        <time>2016-04-10T09:15:52.000Z</time>
      </trkpt>
      <trkpt lat="43.19873" lon="5.75038">
        <ele>133.60000610352</ele>
        <time>2016-04-10T09:15:56.000Z</time>
      </trkpt>
      <trkpt lat="43.19871" lon="5.75061">
        <ele>135.60000610352</ele>
        <time>2016-04-10T09:15:59.000Z</time>
      </trkpt>
      <trkpt lat="43.1987" lon="5.75088">
        <ele>137</ele>
        <time>2016-04-10T09:16:03.000Z</time>
      </trkpt>
      <trkpt lat="43.19869" lon="5.75094">
        <ele>137.19999694824</ele>
        <time>2016-04-10T09:16:04.000Z</time>
      </trkpt>
      <trkpt lat="43.19869" lon="5.75114">
        <ele>138</ele>
        <time>2016-04-10T09:16:07.000Z</time>
      </trkpt>
      <trkpt lat="43.19867" lon="5.7514">
        <ele>139.19999694824</ele>
        <time>2016-04-10T09:16:11.000Z</time>
      </trkpt>
      <trkpt lat="43.19866" lon="5.75147">
        <ele>139.39999389648</ele>
        <time>2016-04-10T09:16:12.000Z</time>
      </trkpt>
      <trkpt lat="43.19862" lon="5.75173">
        <ele>139.80000305176</ele>
        <time>2016-04-10T09:16:16.000Z</time>
      </trkpt>
      <trkpt lat="43.19859" lon="5.75199">
        <ele>139.60000610352</ele>
        <time>2016-04-10T09:16:20.000Z</time>
      </trkpt>
      <trkpt lat="43.19857" lon="5.75212">
        <ele>139.80000305176</ele>
        <time>2016-04-10T09:16:22.000Z</time>
      </trkpt>
      <trkpt lat="43.19856" lon="5.75218">
        <ele>139.80000305176</ele>
        <time>2016-04-10T09:16:23.000Z</time>
      </trkpt>
      <trkpt lat="43.19853" lon="5.75231">
        <ele>140.19999694824</ele>
        <time>2016-04-10T09:16:25.000Z</time>
      </trkpt>
      <trkpt lat="43.19847" lon="5.75249">
        <ele>141.19999694824</ele>
        <time>2016-04-10T09:16:28.000Z</time>
      </trkpt>
      <trkpt lat="43.19845" lon="5.75255">
        <ele>141.39999389648</ele>
        <time>2016-04-10T09:16:29.000Z</time>
      </trkpt>
      <trkpt lat="43.19839" lon="5.75272">
        <ele>142.80000305176</ele>
        <time>2016-04-10T09:16:32.000Z</time>
      </trkpt>
      <trkpt lat="43.1983" lon="5.75295">
        <ele>145</ele>
        <time>2016-04-10T09:16:36.000Z</time>
      </trkpt>
      <trkpt lat="43.19828" lon="5.753">
        <ele>145.60000610352</ele>
        <time>2016-04-10T09:16:37.000Z</time>
      </trkpt>
      <trkpt lat="43.19822" lon="5.75316">
        <ele>146.60000610352</ele>
        <time>2016-04-10T09:16:40.000Z</time>
      </trkpt>
      <trkpt lat="43.19812" lon="5.75344">
        <ele>147.19999694824</ele>
        <time>2016-04-10T09:16:45.000Z</time>
      </trkpt>
      <trkpt lat="43.19807" lon="5.7536">
        <ele>147.60000610352</ele>
        <time>2016-04-10T09:16:48.000Z</time>
      </trkpt>
      <trkpt lat="43.19803" lon="5.75374">
        <ele>147.80000305176</ele>
        <time>2016-04-10T09:16:51.000Z</time>
      </trkpt>
      <trkpt lat="43.19799" lon="5.75386">
        <ele>148</ele>
        <time>2016-04-10T09:16:54.000Z</time>
      </trkpt>
      <trkpt lat="43.19793" lon="5.75405">
        <ele>148.39999389648</ele>
        <time>2016-04-10T09:16:58.000Z</time>
      </trkpt>
      <trkpt lat="43.19791" lon="5.7541">
        <ele>148.39999389648</ele>
        <time>2016-04-10T09:16:59.000Z</time>
      </trkpt>
      <trkpt lat="43.19782" lon="5.75442">
        <ele>148.80000305176</ele>
        <time>2016-04-10T09:17:05.000Z</time>
      </trkpt>
      <trkpt lat="43.19778" lon="5.75455">
        <ele>148.60000610352</ele>
        <time>2016-04-10T09:17:07.000Z</time>
      </trkpt>
      <trkpt lat="43.19773" lon="5.75474">
        <ele>148.80000305176</ele>
        <time>2016-04-10T09:17:10.000Z</time>
      </trkpt>
      <trkpt lat="43.19766" lon="5.75496">
        <ele>148.39999389648</ele>
        <time>2016-04-10T09:17:14.000Z</time>
      </trkpt>
      <trkpt lat="43.19764" lon="5.75502">
        <ele>148.39999389648</ele>
        <time>2016-04-10T09:17:15.000Z</time>
      </trkpt>
      <trkpt lat="43.19755" lon="5.75531">
        <ele>146.60000610352</ele>
        <time>2016-04-10T09:17:20.000Z</time>
      </trkpt>
      <trkpt lat="43.19751" lon="5.75543">
        <ele>145.60000610352</ele>
        <time>2016-04-10T09:17:22.000Z</time>
      </trkpt>
      <trkpt lat="43.19742" lon="5.7557">
        <ele>145.80000305176</ele>
        <time>2016-04-10T09:17:27.000Z</time>
      </trkpt>
      <trkpt lat="43.19735" lon="5.75593">
        <ele>145</ele>
        <time>2016-04-10T09:17:31.000Z</time>
      </trkpt>
      <trkpt lat="43.19732" lon="5.75606">
        <ele>144.60000610352</ele>
        <time>2016-04-10T09:17:33.000Z</time>
      </trkpt>
      <trkpt lat="43.19721" lon="5.75639">
        <ele>145.19999694824</ele>
        <time>2016-04-10T09:17:38.000Z</time>
      </trkpt>
      <trkpt lat="43.19719" lon="5.75645">
        <ele>145.39999389648</ele>
        <time>2016-04-10T09:17:39.000Z</time>
      </trkpt>
      <trkpt lat="43.19711" lon="5.75671">
        <ele>146.19999694824</ele>
        <time>2016-04-10T09:17:43.000Z</time>
      </trkpt>
      <trkpt lat="43.19705" lon="5.75689">
        <ele>146.19999694824</ele>
        <time>2016-04-10T09:17:46.000Z</time>
      </trkpt>
      <trkpt lat="43.19702" lon="5.75701">
        <ele>145.80000305176</ele>
        <time>2016-04-10T09:17:48.000Z</time>
      </trkpt>
      <trkpt lat="43.197" lon="5.75707">
        <ele>145.60000610352</ele>
        <time>2016-04-10T09:17:49.000Z</time>
      </trkpt>
      <trkpt lat="43.19696" lon="5.75717">
        <ele>145.60000610352</ele>
        <time>2016-04-10T09:17:51.000Z</time>
      </trkpt>
      <trkpt lat="43.19694" lon="5.75723">
        <ele>145.60000610352</ele>
        <time>2016-04-10T09:17:52.000Z</time>
      </trkpt>
      <trkpt lat="43.19691" lon="5.75738">
        <ele>144.39999389648</ele>
        <time>2016-04-10T09:17:55.000Z</time>
      </trkpt>
      <trkpt lat="43.19688" lon="5.75749">
        <ele>143.39999389648</ele>
        <time>2016-04-10T09:17:57.000Z</time>
      </trkpt>
      <trkpt lat="43.19676" lon="5.75769">
        <ele>142.19999694824</ele>
        <time>2016-04-10T09:18:01.000Z</time>
      </trkpt>
      <trkpt lat="43.19668" lon="5.75788">
        <ele>138.39999389648</ele>
        <time>2016-04-10T09:18:04.000Z</time>
      </trkpt>
      <trkpt lat="43.19663" lon="5.75798">
        <ele>136.80000305176</ele>
        <time>2016-04-10T09:18:06.000Z</time>
      </trkpt>
      <trkpt lat="43.19658" lon="5.75806">
        <ele>136</ele>
        <time>2016-04-10T09:18:08.000Z</time>
      </trkpt>
      <trkpt lat="43.19654" lon="5.75808">
        <ele>135.60000610352</ele>
        <time>2016-04-10T09:18:10.000Z</time>
      </trkpt>
      <trkpt lat="43.19651" lon="5.75804">
        <ele>135.80000305176</ele>
        <time>2016-04-10T09:18:12.000Z</time>
      </trkpt>
      <trkpt lat="43.19649" lon="5.758">
        <ele>136</ele>
        <time>2016-04-10T09:18:13.000Z</time>
      </trkpt>
      <trkpt lat="43.19646" lon="5.75792">
        <ele>136.60000610352</ele>
        <time>2016-04-10T09:18:15.000Z</time>
      </trkpt>
      <trkpt lat="43.19634" lon="5.75771">
        <ele>138</ele>
        <time>2016-04-10T09:18:20.000Z</time>
      </trkpt>
      <trkpt lat="43.19631" lon="5.75767">
        <ele>138.39999389648</ele>
        <time>2016-04-10T09:18:21.000Z</time>
      </trkpt>
      <trkpt lat="43.1962" lon="5.75744">
        <ele>140.19999694824</ele>
        <time>2016-04-10T09:18:26.000Z</time>
      </trkpt>
      <trkpt lat="43.19618" lon="5.75739">
        <ele>140.60000610352</ele>
        <time>2016-04-10T09:18:27.000Z</time>
      </trkpt>
      <trkpt lat="43.19611" lon="5.75725">
        <ele>142</ele>
        <time>2016-04-10T09:18:31.000Z</time>
      </trkpt>
      <trkpt lat="43.19597" lon="5.75725">
        <ele>140.80000305176</ele>
        <time>2016-04-10T09:18:36.000Z</time>
      </trkpt>
      <trkpt lat="43.19586" lon="5.75724">
        <ele>139</ele>
        <time>2016-04-10T09:18:42.000Z</time>
      </trkpt>
      <trkpt lat="43.19583" lon="5.75723">
        <ele>138.60000610352</ele>
        <time>2016-04-10T09:18:44.000Z</time>
      </trkpt>
    </trkseg>
  </trk>
</gpx>